<?xml version="1.0" encoding="UTF-8" standalone="no" ?>
<gpx xmlns="http://www.topografix.com/GPX/1/1" xmlns:xsi="http://www.w3.org/2001/XMLSchema-instance" xsi:schemaLocation="http://www.topografix.com/GPX/1/1 http://www.topografix.com/GPX/1/1/gpx.xsd" version="1.1" creator="VisuGPX - https://www.visugpx.com">
  <metadata>
    <name>Arthies -- Vienne en Arthies MA-Rando-2020-09-13-171048</name>
  </metadata>
  <trk>
    <name><![CDATA[MA-Rando-2020-09-13-171048]]></name>
    <trkseg>
      <trkpt lat="49.09408" lon="1.78938">
        <ele>176</ele>
        <time>2020-09-13T08:14:41Z</time>
      </trkpt>
      <trkpt lat="49.09411" lon="1.78923">
        <ele>175</ele>
        <time>2020-09-13T08:14:52Z</time>
      </trkpt>
      <trkpt lat="49.09418" lon="1.78909">
        <ele>173</ele>
        <time>2020-09-13T08:15:01Z</time>
      </trkpt>
      <trkpt lat="49.09425" lon="1.78898">
        <ele>172</ele>
        <time>2020-09-13T08:15:08Z</time>
      </trkpt>
      <trkpt lat="49.09428" lon="1.78884">
        <ele>171</ele>
        <time>2020-09-13T08:15:18Z</time>
      </trkpt>
      <trkpt lat="49.09432" lon="1.78871">
        <ele>170</ele>
        <time>2020-09-13T08:15:25Z</time>
      </trkpt>
      <trkpt lat="49.0944" lon="1.7886">
        <ele>170</ele>
        <time>2020-09-13T08:15:32Z</time>
      </trkpt>
      <trkpt lat="49.09448" lon="1.7885">
        <ele>170</ele>
        <time>2020-09-13T08:15:38Z</time>
      </trkpt>
      <trkpt lat="49.09455" lon="1.78838">
        <ele>169</ele>
        <time>2020-09-13T08:15:47Z</time>
      </trkpt>
      <trkpt lat="49.09462" lon="1.78825">
        <ele>168</ele>
        <time>2020-09-13T08:15:55Z</time>
      </trkpt>
      <trkpt lat="49.09469" lon="1.78815">
        <ele>168</ele>
        <time>2020-09-13T08:16:03Z</time>
      </trkpt>
      <trkpt lat="49.09477" lon="1.78803">
        <ele>168</ele>
        <time>2020-09-13T08:16:12Z</time>
      </trkpt>
      <trkpt lat="49.09486" lon="1.78797">
        <ele>168</ele>
        <time>2020-09-13T08:16:21Z</time>
      </trkpt>
      <trkpt lat="49.09495" lon="1.78793">
        <ele>168</ele>
        <time>2020-09-13T08:16:29Z</time>
      </trkpt>
      <trkpt lat="49.09504" lon="1.78786">
        <ele>165</ele>
        <time>2020-09-13T08:16:37Z</time>
      </trkpt>
      <trkpt lat="49.09513" lon="1.78778">
        <ele>165</ele>
        <time>2020-09-13T08:16:45Z</time>
      </trkpt>
      <trkpt lat="49.09523" lon="1.78772">
        <ele>165</ele>
        <time>2020-09-13T08:16:53Z</time>
      </trkpt>
      <trkpt lat="49.09532" lon="1.78767">
        <ele>164</ele>
        <time>2020-09-13T08:17:02Z</time>
      </trkpt>
      <trkpt lat="49.09541" lon="1.78759">
        <ele>164</ele>
        <time>2020-09-13T08:17:10Z</time>
      </trkpt>
      <trkpt lat="49.09552" lon="1.78756">
        <ele>163</ele>
        <time>2020-09-13T08:17:17Z</time>
      </trkpt>
      <trkpt lat="49.09562" lon="1.78751">
        <ele>162</ele>
        <time>2020-09-13T08:17:24Z</time>
      </trkpt>
      <trkpt lat="49.09573" lon="1.78748">
        <ele>161</ele>
        <time>2020-09-13T08:17:31Z</time>
      </trkpt>
      <trkpt lat="49.09584" lon="1.78746">
        <ele>159</ele>
        <time>2020-09-13T08:17:39Z</time>
      </trkpt>
      <trkpt lat="49.09593" lon="1.78745">
        <ele>158</ele>
        <time>2020-09-13T08:17:46Z</time>
      </trkpt>
      <trkpt lat="49.09604" lon="1.78741">
        <ele>156</ele>
        <time>2020-09-13T08:17:53Z</time>
      </trkpt>
      <trkpt lat="49.09613" lon="1.78736">
        <ele>155</ele>
        <time>2020-09-13T08:18:01Z</time>
      </trkpt>
      <trkpt lat="49.09623" lon="1.78736">
        <ele>155</ele>
        <time>2020-09-13T08:18:09Z</time>
      </trkpt>
      <trkpt lat="49.09632" lon="1.78735">
        <ele>154</ele>
        <time>2020-09-13T08:18:16Z</time>
      </trkpt>
      <trkpt lat="49.09643" lon="1.78733">
        <ele>153</ele>
        <time>2020-09-13T08:18:25Z</time>
      </trkpt>
      <trkpt lat="49.09653" lon="1.78732">
        <ele>153</ele>
        <time>2020-09-13T08:18:33Z</time>
      </trkpt>
      <trkpt lat="49.09663" lon="1.7873">
        <ele>153</ele>
        <time>2020-09-13T08:18:42Z</time>
      </trkpt>
      <trkpt lat="49.09673" lon="1.78725">
        <ele>149</ele>
        <time>2020-09-13T08:18:50Z</time>
      </trkpt>
      <trkpt lat="49.09683" lon="1.78721">
        <ele>149</ele>
        <time>2020-09-13T08:18:57Z</time>
      </trkpt>
      <trkpt lat="49.09693" lon="1.78715">
        <ele>149</ele>
        <time>2020-09-13T08:19:05Z</time>
      </trkpt>
      <trkpt lat="49.09701" lon="1.78706">
        <ele>148</ele>
        <time>2020-09-13T08:19:12Z</time>
      </trkpt>
      <trkpt lat="49.0971" lon="1.78699">
        <ele>148</ele>
        <time>2020-09-13T08:19:20Z</time>
      </trkpt>
      <trkpt lat="49.09718" lon="1.7869">
        <ele>147</ele>
        <time>2020-09-13T08:19:26Z</time>
      </trkpt>
      <trkpt lat="49.09726" lon="1.78682">
        <ele>147</ele>
        <time>2020-09-13T08:19:34Z</time>
      </trkpt>
      <trkpt lat="49.09733" lon="1.78671">
        <ele>146</ele>
        <time>2020-09-13T08:19:40Z</time>
      </trkpt>
      <trkpt lat="49.09742" lon="1.78662">
        <ele>144</ele>
        <time>2020-09-13T08:19:50Z</time>
      </trkpt>
      <trkpt lat="49.09751" lon="1.78652">
        <ele>143</ele>
        <time>2020-09-13T08:19:57Z</time>
      </trkpt>
      <trkpt lat="49.0976" lon="1.78647">
        <ele>143</ele>
        <time>2020-09-13T08:20:04Z</time>
      </trkpt>
      <trkpt lat="49.09769" lon="1.78638">
        <ele>142</ele>
        <time>2020-09-13T08:20:11Z</time>
      </trkpt>
      <trkpt lat="49.09778" lon="1.7863">
        <ele>142</ele>
        <time>2020-09-13T08:20:18Z</time>
      </trkpt>
      <trkpt lat="49.09787" lon="1.78622">
        <ele>142</ele>
        <time>2020-09-13T08:20:25Z</time>
      </trkpt>
      <trkpt lat="49.09793" lon="1.7861">
        <ele>142</ele>
        <time>2020-09-13T08:20:32Z</time>
      </trkpt>
      <trkpt lat="49.09794" lon="1.78595">
        <ele>142</ele>
        <time>2020-09-13T08:20:40Z</time>
      </trkpt>
      <trkpt lat="49.09793" lon="1.7858">
        <ele>141</ele>
        <time>2020-09-13T08:20:46Z</time>
      </trkpt>
      <trkpt lat="49.09791" lon="1.78564">
        <ele>141</ele>
        <time>2020-09-13T08:20:54Z</time>
      </trkpt>
      <trkpt lat="49.09792" lon="1.78549">
        <ele>141</ele>
        <time>2020-09-13T08:21:00Z</time>
      </trkpt>
      <trkpt lat="49.09794" lon="1.78534">
        <ele>141</ele>
        <time>2020-09-13T08:21:08Z</time>
      </trkpt>
      <trkpt lat="49.09795" lon="1.78517">
        <ele>141</ele>
        <time>2020-09-13T08:21:14Z</time>
      </trkpt>
      <trkpt lat="49.09797" lon="1.78502">
        <ele>141</ele>
        <time>2020-09-13T08:21:22Z</time>
      </trkpt>
      <trkpt lat="49.09799" lon="1.78487">
        <ele>141</ele>
        <time>2020-09-13T08:21:29Z</time>
      </trkpt>
      <trkpt lat="49.09803" lon="1.78472">
        <ele>141</ele>
        <time>2020-09-13T08:21:36Z</time>
      </trkpt>
      <trkpt lat="49.09808" lon="1.78456">
        <ele>141</ele>
        <time>2020-09-13T08:21:45Z</time>
      </trkpt>
      <trkpt lat="49.09812" lon="1.78442">
        <ele>141</ele>
        <time>2020-09-13T08:21:51Z</time>
      </trkpt>
      <trkpt lat="49.09817" lon="1.78429">
        <ele>141</ele>
        <time>2020-09-13T08:21:59Z</time>
      </trkpt>
      <trkpt lat="49.09821" lon="1.78412">
        <ele>141</ele>
        <time>2020-09-13T08:22:05Z</time>
      </trkpt>
      <trkpt lat="49.09822" lon="1.78395">
        <ele>142</ele>
        <time>2020-09-13T08:22:14Z</time>
      </trkpt>
      <trkpt lat="49.09826" lon="1.78382">
        <ele>142</ele>
        <time>2020-09-13T08:22:22Z</time>
      </trkpt>
      <trkpt lat="49.0983" lon="1.78368">
        <ele>142</ele>
        <time>2020-09-13T08:22:31Z</time>
      </trkpt>
      <trkpt lat="49.09833" lon="1.78351">
        <ele>142</ele>
        <time>2020-09-13T08:22:38Z</time>
      </trkpt>
      <trkpt lat="49.09837" lon="1.78337">
        <ele>143</ele>
        <time>2020-09-13T08:22:45Z</time>
      </trkpt>
      <trkpt lat="49.0984" lon="1.78323">
        <ele>144</ele>
        <time>2020-09-13T08:22:53Z</time>
      </trkpt>
      <trkpt lat="49.09843" lon="1.78308">
        <ele>144</ele>
        <time>2020-09-13T08:23:01Z</time>
      </trkpt>
      <trkpt lat="49.09848" lon="1.78294">
        <ele>144</ele>
        <time>2020-09-13T08:23:09Z</time>
      </trkpt>
      <trkpt lat="49.09852" lon="1.78281">
        <ele>145</ele>
        <time>2020-09-13T08:23:16Z</time>
      </trkpt>
      <trkpt lat="49.09853" lon="1.78266">
        <ele>145</ele>
        <time>2020-09-13T08:23:24Z</time>
      </trkpt>
      <trkpt lat="49.09856" lon="1.7825">
        <ele>145</ele>
        <time>2020-09-13T08:23:31Z</time>
      </trkpt>
      <trkpt lat="49.0986" lon="1.78238">
        <ele>146</ele>
        <time>2020-09-13T08:23:38Z</time>
      </trkpt>
      <trkpt lat="49.09864" lon="1.78224">
        <ele>147</ele>
        <time>2020-09-13T08:23:45Z</time>
      </trkpt>
      <trkpt lat="49.09865" lon="1.78209">
        <ele>147</ele>
        <time>2020-09-13T08:23:51Z</time>
      </trkpt>
      <trkpt lat="49.09865" lon="1.78192">
        <ele>147</ele>
        <time>2020-09-13T08:24:00Z</time>
      </trkpt>
      <trkpt lat="49.09865" lon="1.78176">
        <ele>147</ele>
        <time>2020-09-13T08:24:08Z</time>
      </trkpt>
      <trkpt lat="49.09865" lon="1.7816">
        <ele>149</ele>
        <time>2020-09-13T08:24:16Z</time>
      </trkpt>
      <trkpt lat="49.09867" lon="1.78147">
        <ele>149</ele>
        <time>2020-09-13T08:24:22Z</time>
      </trkpt>
      <trkpt lat="49.09869" lon="1.78131">
        <ele>149</ele>
        <time>2020-09-13T08:24:29Z</time>
      </trkpt>
      <trkpt lat="49.09869" lon="1.78117">
        <ele>149</ele>
        <time>2020-09-13T08:24:35Z</time>
      </trkpt>
      <trkpt lat="49.09872" lon="1.78099">
        <ele>150</ele>
        <time>2020-09-13T08:24:44Z</time>
      </trkpt>
      <trkpt lat="49.09872" lon="1.78083">
        <ele>152</ele>
        <time>2020-09-13T08:24:52Z</time>
      </trkpt>
      <trkpt lat="49.09872" lon="1.78067">
        <ele>152</ele>
        <time>2020-09-13T08:25:00Z</time>
      </trkpt>
      <trkpt lat="49.09874" lon="1.78052">
        <ele>153</ele>
        <time>2020-09-13T08:25:07Z</time>
      </trkpt>
      <trkpt lat="49.09875" lon="1.78035">
        <ele>153</ele>
        <time>2020-09-13T08:25:15Z</time>
      </trkpt>
      <trkpt lat="49.09877" lon="1.7802">
        <ele>154</ele>
        <time>2020-09-13T08:25:22Z</time>
      </trkpt>
      <trkpt lat="49.09879" lon="1.78005">
        <ele>154</ele>
        <time>2020-09-13T08:25:29Z</time>
      </trkpt>
      <trkpt lat="49.09881" lon="1.77989">
        <ele>156</ele>
        <time>2020-09-13T08:25:37Z</time>
      </trkpt>
      <trkpt lat="49.09884" lon="1.77974">
        <ele>157</ele>
        <time>2020-09-13T08:25:44Z</time>
      </trkpt>
      <trkpt lat="49.09884" lon="1.77959">
        <ele>157</ele>
        <time>2020-09-13T08:25:52Z</time>
      </trkpt>
      <trkpt lat="49.09886" lon="1.77942">
        <ele>157</ele>
        <time>2020-09-13T08:26:00Z</time>
      </trkpt>
      <trkpt lat="49.09888" lon="1.77925">
        <ele>157</ele>
        <time>2020-09-13T08:26:09Z</time>
      </trkpt>
      <trkpt lat="49.0989" lon="1.7791">
        <ele>160</ele>
        <time>2020-09-13T08:26:17Z</time>
      </trkpt>
      <trkpt lat="49.09893" lon="1.77893">
        <ele>160</ele>
        <time>2020-09-13T08:26:25Z</time>
      </trkpt>
      <trkpt lat="49.09896" lon="1.77878">
        <ele>160</ele>
        <time>2020-09-13T08:26:33Z</time>
      </trkpt>
      <trkpt lat="49.09901" lon="1.77866">
        <ele>161</ele>
        <time>2020-09-13T08:26:40Z</time>
      </trkpt>
      <trkpt lat="49.09908" lon="1.77854">
        <ele>161</ele>
        <time>2020-09-13T08:26:50Z</time>
      </trkpt>
      <trkpt lat="49.09917" lon="1.77848">
        <ele>161</ele>
        <time>2020-09-13T08:26:57Z</time>
      </trkpt>
      <trkpt lat="49.09926" lon="1.77837">
        <ele>162</ele>
        <time>2020-09-13T08:27:04Z</time>
      </trkpt>
      <trkpt lat="49.09935" lon="1.77829">
        <ele>163</ele>
        <time>2020-09-13T08:27:12Z</time>
      </trkpt>
      <trkpt lat="49.09944" lon="1.7782">
        <ele>163</ele>
        <time>2020-09-13T08:27:21Z</time>
      </trkpt>
      <trkpt lat="49.09952" lon="1.77812">
        <ele>163</ele>
        <time>2020-09-13T08:27:27Z</time>
      </trkpt>
      <trkpt lat="49.09959" lon="1.77802">
        <ele>163</ele>
        <time>2020-09-13T08:27:33Z</time>
      </trkpt>
      <trkpt lat="49.0996" lon="1.77787">
        <ele>163</ele>
        <time>2020-09-13T08:27:41Z</time>
      </trkpt>
      <trkpt lat="49.09959" lon="1.77772">
        <ele>163</ele>
        <time>2020-09-13T08:27:48Z</time>
      </trkpt>
      <trkpt lat="49.09959" lon="1.77756">
        <ele>164</ele>
        <time>2020-09-13T08:27:56Z</time>
      </trkpt>
      <trkpt lat="49.09965" lon="1.77745">
        <ele>165</ele>
        <time>2020-09-13T08:28:03Z</time>
      </trkpt>
      <trkpt lat="49.09967" lon="1.7773">
        <ele>165</ele>
        <time>2020-09-13T08:28:10Z</time>
      </trkpt>
      <trkpt lat="49.09968" lon="1.77715">
        <ele>166</ele>
        <time>2020-09-13T08:28:18Z</time>
      </trkpt>
      <trkpt lat="49.09969" lon="1.777">
        <ele>166</ele>
        <time>2020-09-13T08:28:26Z</time>
      </trkpt>
      <trkpt lat="49.09972" lon="1.77687">
        <ele>166</ele>
        <time>2020-09-13T08:28:33Z</time>
      </trkpt>
      <trkpt lat="49.09976" lon="1.77671">
        <ele>166</ele>
        <time>2020-09-13T08:28:41Z</time>
      </trkpt>
      <trkpt lat="49.09979" lon="1.77656">
        <ele>168</ele>
        <time>2020-09-13T08:28:48Z</time>
      </trkpt>
      <trkpt lat="49.09981" lon="1.77642">
        <ele>168</ele>
        <time>2020-09-13T08:28:56Z</time>
      </trkpt>
      <trkpt lat="49.09982" lon="1.77626">
        <ele>168</ele>
        <time>2020-09-13T08:29:05Z</time>
      </trkpt>
      <trkpt lat="49.09986" lon="1.77606">
        <ele>168</ele>
        <time>2020-09-13T08:29:18Z</time>
      </trkpt>
      <trkpt lat="49.09985" lon="1.77591">
        <ele>168</ele>
        <time>2020-09-13T08:29:26Z</time>
      </trkpt>
      <trkpt lat="49.09979" lon="1.77578">
        <ele>168</ele>
        <time>2020-09-13T08:29:35Z</time>
      </trkpt>
      <trkpt lat="49.09973" lon="1.77566">
        <ele>168</ele>
        <time>2020-09-13T08:29:44Z</time>
      </trkpt>
      <trkpt lat="49.09968" lon="1.77551">
        <ele>168</ele>
        <time>2020-09-13T08:29:55Z</time>
      </trkpt>
      <trkpt lat="49.09961" lon="1.77541">
        <ele>168</ele>
        <time>2020-09-13T08:30:01Z</time>
      </trkpt>
      <trkpt lat="49.09957" lon="1.77528">
        <ele>168</ele>
        <time>2020-09-13T08:30:09Z</time>
      </trkpt>
      <trkpt lat="49.09966" lon="1.77513">
        <ele>168</ele>
        <time>2020-09-13T08:31:03Z</time>
      </trkpt>
      <trkpt lat="49.09975" lon="1.77505">
        <ele>167</ele>
        <time>2020-09-13T08:31:11Z</time>
      </trkpt>
      <trkpt lat="49.09985" lon="1.77498">
        <ele>166</ele>
        <time>2020-09-13T08:31:18Z</time>
      </trkpt>
      <trkpt lat="49.09992" lon="1.77487">
        <ele>166</ele>
        <time>2020-09-13T08:31:25Z</time>
      </trkpt>
      <trkpt lat="49.09991" lon="1.77469">
        <ele>166</ele>
        <time>2020-09-13T08:31:33Z</time>
      </trkpt>
      <trkpt lat="49.09989" lon="1.77453">
        <ele>166</ele>
        <time>2020-09-13T08:31:41Z</time>
      </trkpt>
      <trkpt lat="49.0999" lon="1.77437">
        <ele>165</ele>
        <time>2020-09-13T08:31:47Z</time>
      </trkpt>
      <trkpt lat="49.0999" lon="1.77421">
        <ele>165</ele>
        <time>2020-09-13T08:31:54Z</time>
      </trkpt>
      <trkpt lat="49.09993" lon="1.77406">
        <ele>164</ele>
        <time>2020-09-13T08:32:04Z</time>
      </trkpt>
      <trkpt lat="49.09992" lon="1.77392">
        <ele>164</ele>
        <time>2020-09-13T08:32:11Z</time>
      </trkpt>
      <trkpt lat="49.09991" lon="1.77377">
        <ele>163</ele>
        <time>2020-09-13T08:32:18Z</time>
      </trkpt>
      <trkpt lat="49.09989" lon="1.77363">
        <ele>163</ele>
        <time>2020-09-13T08:32:26Z</time>
      </trkpt>
      <trkpt lat="49.09986" lon="1.77347">
        <ele>162</ele>
        <time>2020-09-13T08:32:34Z</time>
      </trkpt>
      <trkpt lat="49.09983" lon="1.77332">
        <ele>160</ele>
        <time>2020-09-13T08:32:41Z</time>
      </trkpt>
      <trkpt lat="49.09977" lon="1.77319">
        <ele>160</ele>
        <time>2020-09-13T08:32:49Z</time>
      </trkpt>
      <trkpt lat="49.09971" lon="1.77307">
        <ele>160</ele>
        <time>2020-09-13T08:32:55Z</time>
      </trkpt>
      <trkpt lat="49.09964" lon="1.77297">
        <ele>160</ele>
        <time>2020-09-13T08:33:02Z</time>
      </trkpt>
      <trkpt lat="49.09961" lon="1.77282">
        <ele>159</ele>
        <time>2020-09-13T08:33:12Z</time>
      </trkpt>
      <trkpt lat="49.09954" lon="1.77268">
        <ele>159</ele>
        <time>2020-09-13T08:33:20Z</time>
      </trkpt>
      <trkpt lat="49.09948" lon="1.77253">
        <ele>159</ele>
        <time>2020-09-13T08:33:28Z</time>
      </trkpt>
      <trkpt lat="49.09942" lon="1.77239">
        <ele>157</ele>
        <time>2020-09-13T08:33:35Z</time>
      </trkpt>
      <trkpt lat="49.09936" lon="1.77226">
        <ele>157</ele>
        <time>2020-09-13T08:33:41Z</time>
      </trkpt>
      <trkpt lat="49.0993" lon="1.77213">
        <ele>157</ele>
        <time>2020-09-13T08:33:50Z</time>
      </trkpt>
      <trkpt lat="49.09925" lon="1.77199">
        <ele>157</ele>
        <time>2020-09-13T08:33:59Z</time>
      </trkpt>
      <trkpt lat="49.09918" lon="1.77187">
        <ele>157</ele>
        <time>2020-09-13T08:34:05Z</time>
      </trkpt>
      <trkpt lat="49.09913" lon="1.77173">
        <ele>158</ele>
        <time>2020-09-13T08:34:12Z</time>
      </trkpt>
      <trkpt lat="49.09906" lon="1.77159">
        <ele>159</ele>
        <time>2020-09-13T08:34:20Z</time>
      </trkpt>
      <trkpt lat="49.09901" lon="1.77147">
        <ele>159</ele>
        <time>2020-09-13T08:34:29Z</time>
      </trkpt>
      <trkpt lat="49.09895" lon="1.77134">
        <ele>160</ele>
        <time>2020-09-13T08:34:36Z</time>
      </trkpt>
      <trkpt lat="49.09892" lon="1.77121">
        <ele>160</ele>
        <time>2020-09-13T08:34:43Z</time>
      </trkpt>
      <trkpt lat="49.09885" lon="1.77108">
        <ele>160</ele>
        <time>2020-09-13T08:34:50Z</time>
      </trkpt>
      <trkpt lat="49.09878" lon="1.77096">
        <ele>160</ele>
        <time>2020-09-13T08:34:58Z</time>
      </trkpt>
      <trkpt lat="49.09872" lon="1.77082">
        <ele>160</ele>
        <time>2020-09-13T08:35:06Z</time>
      </trkpt>
      <trkpt lat="49.09865" lon="1.77071">
        <ele>160</ele>
        <time>2020-09-13T08:35:12Z</time>
      </trkpt>
      <trkpt lat="49.09857" lon="1.77058">
        <ele>160</ele>
        <time>2020-09-13T08:35:20Z</time>
      </trkpt>
      <trkpt lat="49.09855" lon="1.77044">
        <ele>160</ele>
        <time>2020-09-13T08:35:26Z</time>
      </trkpt>
      <trkpt lat="49.09849" lon="1.77031">
        <ele>160</ele>
        <time>2020-09-13T08:35:32Z</time>
      </trkpt>
      <trkpt lat="49.09845" lon="1.77017">
        <ele>160</ele>
        <time>2020-09-13T08:35:40Z</time>
      </trkpt>
      <trkpt lat="49.09839" lon="1.77003">
        <ele>160</ele>
        <time>2020-09-13T08:35:46Z</time>
      </trkpt>
      <trkpt lat="49.09833" lon="1.76993">
        <ele>160</ele>
        <time>2020-09-13T08:35:52Z</time>
      </trkpt>
      <trkpt lat="49.09825" lon="1.76981">
        <ele>160</ele>
        <time>2020-09-13T08:36:00Z</time>
      </trkpt>
      <trkpt lat="49.09819" lon="1.76968">
        <ele>160</ele>
        <time>2020-09-13T08:36:08Z</time>
      </trkpt>
      <trkpt lat="49.09811" lon="1.76956">
        <ele>160</ele>
        <time>2020-09-13T08:36:14Z</time>
      </trkpt>
      <trkpt lat="49.09803" lon="1.76946">
        <ele>160</ele>
        <time>2020-09-13T08:36:21Z</time>
      </trkpt>
      <trkpt lat="49.09796" lon="1.76936">
        <ele>160</ele>
        <time>2020-09-13T08:36:28Z</time>
      </trkpt>
      <trkpt lat="49.09786" lon="1.76928">
        <ele>160</ele>
        <time>2020-09-13T08:36:34Z</time>
      </trkpt>
      <trkpt lat="49.09776" lon="1.7692">
        <ele>160</ele>
        <time>2020-09-13T08:36:39Z</time>
      </trkpt>
      <trkpt lat="49.09768" lon="1.7691">
        <ele>158</ele>
        <time>2020-09-13T08:36:45Z</time>
      </trkpt>
      <trkpt lat="49.09761" lon="1.76899">
        <ele>158</ele>
        <time>2020-09-13T08:36:53Z</time>
      </trkpt>
      <trkpt lat="49.09753" lon="1.7689">
        <ele>158</ele>
        <time>2020-09-13T08:37:01Z</time>
      </trkpt>
      <trkpt lat="49.09744" lon="1.76883">
        <ele>161</ele>
        <time>2020-09-13T08:37:07Z</time>
      </trkpt>
      <trkpt lat="49.09738" lon="1.7687">
        <ele>161</ele>
        <time>2020-09-13T08:37:15Z</time>
      </trkpt>
      <trkpt lat="49.09732" lon="1.76856">
        <ele>161</ele>
        <time>2020-09-13T08:37:21Z</time>
      </trkpt>
      <trkpt lat="49.09727" lon="1.76841">
        <ele>161</ele>
        <time>2020-09-13T08:37:29Z</time>
      </trkpt>
      <trkpt lat="49.09725" lon="1.76826">
        <ele>161</ele>
        <time>2020-09-13T08:37:37Z</time>
      </trkpt>
      <trkpt lat="49.09724" lon="1.76809">
        <ele>162</ele>
        <time>2020-09-13T08:37:44Z</time>
      </trkpt>
      <trkpt lat="49.09722" lon="1.76795">
        <ele>162</ele>
        <time>2020-09-13T08:37:51Z</time>
      </trkpt>
      <trkpt lat="49.09717" lon="1.7678">
        <ele>163</ele>
        <time>2020-09-13T08:37:58Z</time>
      </trkpt>
      <trkpt lat="49.09712" lon="1.76768">
        <ele>163</ele>
        <time>2020-09-13T08:38:05Z</time>
      </trkpt>
      <trkpt lat="49.09709" lon="1.76752">
        <ele>164</ele>
        <time>2020-09-13T08:38:12Z</time>
      </trkpt>
      <trkpt lat="49.09705" lon="1.76737">
        <ele>164</ele>
        <time>2020-09-13T08:38:20Z</time>
      </trkpt>
      <trkpt lat="49.09702" lon="1.76722">
        <ele>164</ele>
        <time>2020-09-13T08:38:27Z</time>
      </trkpt>
      <trkpt lat="49.09698" lon="1.76707">
        <ele>164</ele>
        <time>2020-09-13T08:38:33Z</time>
      </trkpt>
      <trkpt lat="49.09696" lon="1.76691">
        <ele>164</ele>
        <time>2020-09-13T08:38:41Z</time>
      </trkpt>
      <trkpt lat="49.09695" lon="1.76676">
        <ele>165</ele>
        <time>2020-09-13T08:38:48Z</time>
      </trkpt>
      <trkpt lat="49.0969" lon="1.76662">
        <ele>163</ele>
        <time>2020-09-13T08:38:55Z</time>
      </trkpt>
      <trkpt lat="49.09685" lon="1.76645">
        <ele>163</ele>
        <time>2020-09-13T08:39:03Z</time>
      </trkpt>
      <trkpt lat="49.09683" lon="1.7663">
        <ele>162</ele>
        <time>2020-09-13T08:39:09Z</time>
      </trkpt>
      <trkpt lat="49.09679" lon="1.76615">
        <ele>162</ele>
        <time>2020-09-13T08:39:15Z</time>
      </trkpt>
      <trkpt lat="49.09675" lon="1.76601">
        <ele>162</ele>
        <time>2020-09-13T08:39:23Z</time>
      </trkpt>
      <trkpt lat="49.09672" lon="1.76587">
        <ele>162</ele>
        <time>2020-09-13T08:39:29Z</time>
      </trkpt>
      <trkpt lat="49.09668" lon="1.76572">
        <ele>161</ele>
        <time>2020-09-13T08:39:36Z</time>
      </trkpt>
      <trkpt lat="49.09662" lon="1.76559">
        <ele>165</ele>
        <time>2020-09-13T08:39:42Z</time>
      </trkpt>
      <trkpt lat="49.09663" lon="1.76542">
        <ele>165</ele>
        <time>2020-09-13T08:39:49Z</time>
      </trkpt>
      <trkpt lat="49.09664" lon="1.76527">
        <ele>165</ele>
        <time>2020-09-13T08:39:55Z</time>
      </trkpt>
      <trkpt lat="49.0966" lon="1.76512">
        <ele>164</ele>
        <time>2020-09-13T08:40:02Z</time>
      </trkpt>
      <trkpt lat="49.09653" lon="1.765">
        <ele>164</ele>
        <time>2020-09-13T08:40:09Z</time>
      </trkpt>
      <trkpt lat="49.0965" lon="1.76485">
        <ele>165</ele>
        <time>2020-09-13T08:40:16Z</time>
      </trkpt>
      <trkpt lat="49.09648" lon="1.76471">
        <ele>165</ele>
        <time>2020-09-13T08:40:23Z</time>
      </trkpt>
      <trkpt lat="49.09649" lon="1.76457">
        <ele>165</ele>
        <time>2020-09-13T08:41:15Z</time>
      </trkpt>
      <trkpt lat="49.09641" lon="1.76444">
        <ele>165</ele>
        <time>2020-09-13T08:43:26Z</time>
      </trkpt>
      <trkpt lat="49.09638" lon="1.76428">
        <ele>165</ele>
        <time>2020-09-13T08:43:33Z</time>
      </trkpt>
      <trkpt lat="49.09636" lon="1.76413">
        <ele>164</ele>
        <time>2020-09-13T08:43:44Z</time>
      </trkpt>
      <trkpt lat="49.09634" lon="1.76398">
        <ele>165</ele>
        <time>2020-09-13T08:43:53Z</time>
      </trkpt>
      <trkpt lat="49.0963" lon="1.76384">
        <ele>165</ele>
        <time>2020-09-13T08:44:03Z</time>
      </trkpt>
      <trkpt lat="49.09623" lon="1.76372">
        <ele>165</ele>
        <time>2020-09-13T08:44:11Z</time>
      </trkpt>
      <trkpt lat="49.09617" lon="1.7636">
        <ele>165</ele>
        <time>2020-09-13T08:44:19Z</time>
      </trkpt>
      <trkpt lat="49.09611" lon="1.76349">
        <ele>166</ele>
        <time>2020-09-13T08:44:27Z</time>
      </trkpt>
      <trkpt lat="49.09605" lon="1.76336">
        <ele>166</ele>
        <time>2020-09-13T08:44:36Z</time>
      </trkpt>
      <trkpt lat="49.09599" lon="1.76325">
        <ele>165</ele>
        <time>2020-09-13T08:44:44Z</time>
      </trkpt>
      <trkpt lat="49.09592" lon="1.76313">
        <ele>165</ele>
        <time>2020-09-13T08:44:52Z</time>
      </trkpt>
      <trkpt lat="49.09585" lon="1.763">
        <ele>164</ele>
        <time>2020-09-13T08:44:59Z</time>
      </trkpt>
      <trkpt lat="49.09581" lon="1.76287">
        <ele>168</ele>
        <time>2020-09-13T08:45:05Z</time>
      </trkpt>
      <trkpt lat="49.09576" lon="1.76273">
        <ele>167</ele>
        <time>2020-09-13T08:45:12Z</time>
      </trkpt>
      <trkpt lat="49.09574" lon="1.76256">
        <ele>166</ele>
        <time>2020-09-13T08:45:20Z</time>
      </trkpt>
      <trkpt lat="49.09572" lon="1.7624">
        <ele>166</ele>
        <time>2020-09-13T08:45:28Z</time>
      </trkpt>
      <trkpt lat="49.09571" lon="1.76226">
        <ele>166</ele>
        <time>2020-09-13T08:45:36Z</time>
      </trkpt>
      <trkpt lat="49.09571" lon="1.76211">
        <ele>166</ele>
        <time>2020-09-13T08:45:49Z</time>
      </trkpt>
      <trkpt lat="49.09566" lon="1.76197">
        <ele>166</ele>
        <time>2020-09-13T08:45:59Z</time>
      </trkpt>
      <trkpt lat="49.09563" lon="1.76182">
        <ele>166</ele>
        <time>2020-09-13T08:46:06Z</time>
      </trkpt>
      <trkpt lat="49.0956" lon="1.76169">
        <ele>166</ele>
        <time>2020-09-13T08:46:13Z</time>
      </trkpt>
      <trkpt lat="49.09555" lon="1.76153">
        <ele>166</ele>
        <time>2020-09-13T08:46:21Z</time>
      </trkpt>
      <trkpt lat="49.09553" lon="1.76139">
        <ele>166</ele>
        <time>2020-09-13T08:46:30Z</time>
      </trkpt>
      <trkpt lat="49.09555" lon="1.76125">
        <ele>166</ele>
        <time>2020-09-13T08:46:39Z</time>
      </trkpt>
      <trkpt lat="49.09554" lon="1.76108">
        <ele>166</ele>
        <time>2020-09-13T08:46:47Z</time>
      </trkpt>
      <trkpt lat="49.09551" lon="1.76093">
        <ele>167</ele>
        <time>2020-09-13T08:46:54Z</time>
      </trkpt>
      <trkpt lat="49.09549" lon="1.76079">
        <ele>168</ele>
        <time>2020-09-13T08:47:01Z</time>
      </trkpt>
      <trkpt lat="49.09549" lon="1.76063">
        <ele>168</ele>
        <time>2020-09-13T08:47:08Z</time>
      </trkpt>
      <trkpt lat="49.09549" lon="1.76048">
        <ele>169</ele>
        <time>2020-09-13T08:47:16Z</time>
      </trkpt>
      <trkpt lat="49.09547" lon="1.76032">
        <ele>169</ele>
        <time>2020-09-13T08:47:24Z</time>
      </trkpt>
      <trkpt lat="49.09547" lon="1.76016">
        <ele>170</ele>
        <time>2020-09-13T08:47:34Z</time>
      </trkpt>
      <trkpt lat="49.09553" lon="1.76">
        <ele>170</ele>
        <time>2020-09-13T08:47:42Z</time>
      </trkpt>
      <trkpt lat="49.09553" lon="1.75985">
        <ele>174</ele>
        <time>2020-09-13T08:47:50Z</time>
      </trkpt>
      <trkpt lat="49.09552" lon="1.75971">
        <ele>174</ele>
        <time>2020-09-13T08:47:59Z</time>
      </trkpt>
      <trkpt lat="49.09553" lon="1.75955">
        <ele>175</ele>
        <time>2020-09-13T08:48:14Z</time>
      </trkpt>
      <trkpt lat="49.09559" lon="1.75942">
        <ele>176</ele>
        <time>2020-09-13T08:48:23Z</time>
      </trkpt>
      <trkpt lat="49.09566" lon="1.75929">
        <ele>176</ele>
        <time>2020-09-13T08:48:31Z</time>
      </trkpt>
      <trkpt lat="49.09571" lon="1.75918">
        <ele>177</ele>
        <time>2020-09-13T08:48:43Z</time>
      </trkpt>
      <trkpt lat="49.09578" lon="1.75906">
        <ele>179</ele>
        <time>2020-09-13T08:48:51Z</time>
      </trkpt>
      <trkpt lat="49.09584" lon="1.75894">
        <ele>178</ele>
        <time>2020-09-13T08:48:59Z</time>
      </trkpt>
      <trkpt lat="49.09582" lon="1.75878">
        <ele>180</ele>
        <time>2020-09-13T08:49:08Z</time>
      </trkpt>
      <trkpt lat="49.0958" lon="1.75862">
        <ele>181</ele>
        <time>2020-09-13T08:49:18Z</time>
      </trkpt>
      <trkpt lat="49.09579" lon="1.75848">
        <ele>181</ele>
        <time>2020-09-13T08:49:27Z</time>
      </trkpt>
      <trkpt lat="49.09579" lon="1.75832">
        <ele>183</ele>
        <time>2020-09-13T08:49:37Z</time>
      </trkpt>
      <trkpt lat="49.09574" lon="1.75816">
        <ele>184</ele>
        <time>2020-09-13T08:49:43Z</time>
      </trkpt>
      <trkpt lat="49.0957" lon="1.75801">
        <ele>185</ele>
        <time>2020-09-13T08:49:50Z</time>
      </trkpt>
      <trkpt lat="49.09571" lon="1.75787">
        <ele>186</ele>
        <time>2020-09-13T08:49:58Z</time>
      </trkpt>
      <trkpt lat="49.09578" lon="1.75774">
        <ele>186</ele>
        <time>2020-09-13T08:50:07Z</time>
      </trkpt>
      <trkpt lat="49.09575" lon="1.75761">
        <ele>186</ele>
        <time>2020-09-13T08:50:12Z</time>
      </trkpt>
      <trkpt lat="49.09569" lon="1.75746">
        <ele>189</ele>
        <time>2020-09-13T08:50:18Z</time>
      </trkpt>
      <trkpt lat="49.09564" lon="1.75734">
        <ele>190</ele>
        <time>2020-09-13T08:50:24Z</time>
      </trkpt>
      <trkpt lat="49.09558" lon="1.75723">
        <ele>191</ele>
        <time>2020-09-13T08:50:30Z</time>
      </trkpt>
      <trkpt lat="49.09553" lon="1.75711">
        <ele>192</ele>
        <time>2020-09-13T08:50:36Z</time>
      </trkpt>
      <trkpt lat="49.0955" lon="1.75694">
        <ele>192</ele>
        <time>2020-09-13T08:50:44Z</time>
      </trkpt>
      <trkpt lat="49.09549" lon="1.7568">
        <ele>193</ele>
        <time>2020-09-13T08:50:52Z</time>
      </trkpt>
      <trkpt lat="49.09546" lon="1.75665">
        <ele>197</ele>
        <time>2020-09-13T08:51:00Z</time>
      </trkpt>
      <trkpt lat="49.09541" lon="1.75651">
        <ele>197</ele>
        <time>2020-09-13T08:51:05Z</time>
      </trkpt>
      <trkpt lat="49.09534" lon="1.75638">
        <ele>198</ele>
        <time>2020-09-13T08:51:09Z</time>
      </trkpt>
      <trkpt lat="49.09527" lon="1.75624">
        <ele>199</ele>
        <time>2020-09-13T08:51:13Z</time>
      </trkpt>
      <trkpt lat="49.09522" lon="1.75612">
        <ele>199</ele>
        <time>2020-09-13T08:51:17Z</time>
      </trkpt>
      <trkpt lat="49.09516" lon="1.75597">
        <ele>200</ele>
        <time>2020-09-13T08:51:22Z</time>
      </trkpt>
      <trkpt lat="49.0951" lon="1.75582">
        <ele>203</ele>
        <time>2020-09-13T08:51:28Z</time>
      </trkpt>
      <trkpt lat="49.09503" lon="1.75568">
        <ele>203</ele>
        <time>2020-09-13T08:51:34Z</time>
      </trkpt>
      <trkpt lat="49.09499" lon="1.75556">
        <ele>204</ele>
        <time>2020-09-13T08:51:43Z</time>
      </trkpt>
      <trkpt lat="49.09495" lon="1.75541">
        <ele>204</ele>
        <time>2020-09-13T08:51:52Z</time>
      </trkpt>
      <trkpt lat="49.09492" lon="1.75528">
        <ele>205</ele>
        <time>2020-09-13T08:52:00Z</time>
      </trkpt>
      <trkpt lat="49.09486" lon="1.75514">
        <ele>205</ele>
        <time>2020-09-13T08:52:07Z</time>
      </trkpt>
      <trkpt lat="49.0948" lon="1.755">
        <ele>205</ele>
        <time>2020-09-13T08:52:13Z</time>
      </trkpt>
      <trkpt lat="49.09475" lon="1.75486">
        <ele>206</ele>
        <time>2020-09-13T08:52:19Z</time>
      </trkpt>
      <trkpt lat="49.0947" lon="1.75473">
        <ele>206</ele>
        <time>2020-09-13T08:52:25Z</time>
      </trkpt>
      <trkpt lat="49.09465" lon="1.75461">
        <ele>206</ele>
        <time>2020-09-13T08:52:31Z</time>
      </trkpt>
      <trkpt lat="49.09461" lon="1.75448">
        <ele>206</ele>
        <time>2020-09-13T08:52:38Z</time>
      </trkpt>
      <trkpt lat="49.09457" lon="1.75432">
        <ele>206</ele>
        <time>2020-09-13T08:52:46Z</time>
      </trkpt>
      <trkpt lat="49.09452" lon="1.7542">
        <ele>207</ele>
        <time>2020-09-13T08:52:52Z</time>
      </trkpt>
      <trkpt lat="49.09446" lon="1.75407">
        <ele>207</ele>
        <time>2020-09-13T08:52:58Z</time>
      </trkpt>
      <trkpt lat="49.0944" lon="1.75391">
        <ele>207</ele>
        <time>2020-09-13T08:53:06Z</time>
      </trkpt>
      <trkpt lat="49.09435" lon="1.75376">
        <ele>207</ele>
        <time>2020-09-13T08:53:14Z</time>
      </trkpt>
      <trkpt lat="49.09428" lon="1.75361">
        <ele>207</ele>
        <time>2020-09-13T08:53:22Z</time>
      </trkpt>
      <trkpt lat="49.09423" lon="1.75348">
        <ele>207</ele>
        <time>2020-09-13T08:53:31Z</time>
      </trkpt>
      <trkpt lat="49.09417" lon="1.75337">
        <ele>208</ele>
        <time>2020-09-13T08:54:00Z</time>
      </trkpt>
      <trkpt lat="49.09412" lon="1.75322">
        <ele>208</ele>
        <time>2020-09-13T08:54:08Z</time>
      </trkpt>
      <trkpt lat="49.09407" lon="1.75309">
        <ele>209</ele>
        <time>2020-09-13T08:54:15Z</time>
      </trkpt>
      <trkpt lat="49.094" lon="1.75298">
        <ele>209</ele>
        <time>2020-09-13T08:54:23Z</time>
      </trkpt>
      <trkpt lat="49.09393" lon="1.75288">
        <ele>209</ele>
        <time>2020-09-13T08:54:31Z</time>
      </trkpt>
      <trkpt lat="49.09385" lon="1.75276">
        <ele>209</ele>
        <time>2020-09-13T08:54:41Z</time>
      </trkpt>
      <trkpt lat="49.09378" lon="1.75265">
        <ele>209</ele>
        <time>2020-09-13T08:54:52Z</time>
      </trkpt>
      <trkpt lat="49.09372" lon="1.75254">
        <ele>209</ele>
        <time>2020-09-13T08:54:59Z</time>
      </trkpt>
      <trkpt lat="49.09364" lon="1.75242">
        <ele>208</ele>
        <time>2020-09-13T08:55:05Z</time>
      </trkpt>
      <trkpt lat="49.09357" lon="1.75233">
        <ele>208</ele>
        <time>2020-09-13T08:55:11Z</time>
      </trkpt>
      <trkpt lat="49.09349" lon="1.75221">
        <ele>208</ele>
        <time>2020-09-13T08:55:19Z</time>
      </trkpt>
      <trkpt lat="49.09341" lon="1.75208">
        <ele>208</ele>
        <time>2020-09-13T08:55:27Z</time>
      </trkpt>
      <trkpt lat="49.09334" lon="1.75198">
        <ele>208</ele>
        <time>2020-09-13T08:55:35Z</time>
      </trkpt>
      <trkpt lat="49.09327" lon="1.75188">
        <ele>209</ele>
        <time>2020-09-13T08:55:42Z</time>
      </trkpt>
      <trkpt lat="49.0932" lon="1.75176">
        <ele>209</ele>
        <time>2020-09-13T08:55:49Z</time>
      </trkpt>
      <trkpt lat="49.09314" lon="1.75165">
        <ele>208</ele>
        <time>2020-09-13T08:55:57Z</time>
      </trkpt>
      <trkpt lat="49.09307" lon="1.75152">
        <ele>208</ele>
        <time>2020-09-13T08:56:05Z</time>
      </trkpt>
      <trkpt lat="49.09301" lon="1.75141">
        <ele>208</ele>
        <time>2020-09-13T08:56:11Z</time>
      </trkpt>
      <trkpt lat="49.09294" lon="1.75129">
        <ele>208</ele>
        <time>2020-09-13T08:56:17Z</time>
      </trkpt>
      <trkpt lat="49.09287" lon="1.75116">
        <ele>208</ele>
        <time>2020-09-13T08:56:25Z</time>
      </trkpt>
      <trkpt lat="49.0928" lon="1.75104">
        <ele>208</ele>
        <time>2020-09-13T08:56:32Z</time>
      </trkpt>
      <trkpt lat="49.09272" lon="1.75091">
        <ele>208</ele>
        <time>2020-09-13T08:56:40Z</time>
      </trkpt>
      <trkpt lat="49.09265" lon="1.75078">
        <ele>207</ele>
        <time>2020-09-13T08:56:47Z</time>
      </trkpt>
      <trkpt lat="49.0926" lon="1.75066">
        <ele>207</ele>
        <time>2020-09-13T08:56:54Z</time>
      </trkpt>
      <trkpt lat="49.09253" lon="1.75051">
        <ele>207</ele>
        <time>2020-09-13T08:57:02Z</time>
      </trkpt>
      <trkpt lat="49.09247" lon="1.75038">
        <ele>209</ele>
        <time>2020-09-13T08:57:10Z</time>
      </trkpt>
      <trkpt lat="49.0924" lon="1.75026">
        <ele>209</ele>
        <time>2020-09-13T08:57:18Z</time>
      </trkpt>
      <trkpt lat="49.09234" lon="1.75012">
        <ele>209</ele>
        <time>2020-09-13T08:57:27Z</time>
      </trkpt>
      <trkpt lat="49.09229" lon="1.74999">
        <ele>208</ele>
        <time>2020-09-13T08:57:36Z</time>
      </trkpt>
      <trkpt lat="49.09224" lon="1.74986">
        <ele>208</ele>
        <time>2020-09-13T08:57:43Z</time>
      </trkpt>
      <trkpt lat="49.09217" lon="1.74973">
        <ele>208</ele>
        <time>2020-09-13T08:57:49Z</time>
      </trkpt>
      <trkpt lat="49.0921" lon="1.74961">
        <ele>208</ele>
        <time>2020-09-13T08:57:55Z</time>
      </trkpt>
      <trkpt lat="49.09204" lon="1.74948">
        <ele>208</ele>
        <time>2020-09-13T08:58:01Z</time>
      </trkpt>
      <trkpt lat="49.092" lon="1.74933">
        <ele>208</ele>
        <time>2020-09-13T08:58:09Z</time>
      </trkpt>
      <trkpt lat="49.09196" lon="1.74918">
        <ele>208</ele>
        <time>2020-09-13T08:58:16Z</time>
      </trkpt>
      <trkpt lat="49.09192" lon="1.74905">
        <ele>208</ele>
        <time>2020-09-13T08:58:25Z</time>
      </trkpt>
      <trkpt lat="49.09187" lon="1.74892">
        <ele>208</ele>
        <time>2020-09-13T08:58:33Z</time>
      </trkpt>
      <trkpt lat="49.09181" lon="1.74877">
        <ele>207</ele>
        <time>2020-09-13T08:58:41Z</time>
      </trkpt>
      <trkpt lat="49.09175" lon="1.74863">
        <ele>207</ele>
        <time>2020-09-13T08:58:49Z</time>
      </trkpt>
      <trkpt lat="49.0917" lon="1.74849">
        <ele>208</ele>
        <time>2020-09-13T08:58:59Z</time>
      </trkpt>
      <trkpt lat="49.09167" lon="1.74836">
        <ele>208</ele>
        <time>2020-09-13T08:59:08Z</time>
      </trkpt>
      <trkpt lat="49.09161" lon="1.74824">
        <ele>208</ele>
        <time>2020-09-13T08:59:15Z</time>
      </trkpt>
      <trkpt lat="49.09157" lon="1.7481">
        <ele>208</ele>
        <time>2020-09-13T08:59:23Z</time>
      </trkpt>
      <trkpt lat="49.09151" lon="1.74795">
        <ele>208</ele>
        <time>2020-09-13T08:59:31Z</time>
      </trkpt>
      <trkpt lat="49.09146" lon="1.74782">
        <ele>208</ele>
        <time>2020-09-13T08:59:37Z</time>
      </trkpt>
      <trkpt lat="49.0914" lon="1.74768">
        <ele>208</ele>
        <time>2020-09-13T08:59:44Z</time>
      </trkpt>
      <trkpt lat="49.09135" lon="1.74755">
        <ele>208</ele>
        <time>2020-09-13T08:59:52Z</time>
      </trkpt>
      <trkpt lat="49.09129" lon="1.74739">
        <ele>207</ele>
        <time>2020-09-13T09:00:00Z</time>
      </trkpt>
      <trkpt lat="49.09122" lon="1.74726">
        <ele>207</ele>
        <time>2020-09-13T09:00:06Z</time>
      </trkpt>
      <trkpt lat="49.09114" lon="1.74715">
        <ele>207</ele>
        <time>2020-09-13T09:00:12Z</time>
      </trkpt>
      <trkpt lat="49.09105" lon="1.74705">
        <ele>206</ele>
        <time>2020-09-13T09:00:18Z</time>
      </trkpt>
      <trkpt lat="49.09097" lon="1.74698">
        <ele>206</ele>
        <time>2020-09-13T09:00:24Z</time>
      </trkpt>
      <trkpt lat="49.09087" lon="1.74689">
        <ele>206</ele>
        <time>2020-09-13T09:00:32Z</time>
      </trkpt>
      <trkpt lat="49.09078" lon="1.7468">
        <ele>207</ele>
        <time>2020-09-13T09:00:40Z</time>
      </trkpt>
      <trkpt lat="49.0907" lon="1.74672">
        <ele>207</ele>
        <time>2020-09-13T09:00:48Z</time>
      </trkpt>
      <trkpt lat="49.09063" lon="1.7466">
        <ele>206</ele>
        <time>2020-09-13T09:00:57Z</time>
      </trkpt>
      <trkpt lat="49.09055" lon="1.74649">
        <ele>206</ele>
        <time>2020-09-13T09:01:04Z</time>
      </trkpt>
      <trkpt lat="49.09048" lon="1.74639">
        <ele>205</ele>
        <time>2020-09-13T09:01:10Z</time>
      </trkpt>
      <trkpt lat="49.0904" lon="1.74628">
        <ele>205</ele>
        <time>2020-09-13T09:01:18Z</time>
      </trkpt>
      <trkpt lat="49.09034" lon="1.74616">
        <ele>205</ele>
        <time>2020-09-13T09:01:26Z</time>
      </trkpt>
      <trkpt lat="49.09026" lon="1.74603">
        <ele>205</ele>
        <time>2020-09-13T09:01:35Z</time>
      </trkpt>
      <trkpt lat="49.09019" lon="1.74594">
        <ele>205</ele>
        <time>2020-09-13T09:01:43Z</time>
      </trkpt>
      <trkpt lat="49.09012" lon="1.74583">
        <ele>205</ele>
        <time>2020-09-13T09:01:49Z</time>
      </trkpt>
      <trkpt lat="49.09003" lon="1.7457">
        <ele>205</ele>
        <time>2020-09-13T09:01:57Z</time>
      </trkpt>
      <trkpt lat="49.08996" lon="1.74558">
        <ele>205</ele>
        <time>2020-09-13T09:02:05Z</time>
      </trkpt>
      <trkpt lat="49.0899" lon="1.74547">
        <ele>205</ele>
        <time>2020-09-13T09:02:13Z</time>
      </trkpt>
      <trkpt lat="49.08985" lon="1.74533">
        <ele>205</ele>
        <time>2020-09-13T09:02:21Z</time>
      </trkpt>
      <trkpt lat="49.08979" lon="1.74521">
        <ele>205</ele>
        <time>2020-09-13T09:02:29Z</time>
      </trkpt>
      <trkpt lat="49.08974" lon="1.74508">
        <ele>205</ele>
        <time>2020-09-13T09:02:35Z</time>
      </trkpt>
      <trkpt lat="49.08969" lon="1.74496">
        <ele>206</ele>
        <time>2020-09-13T09:02:41Z</time>
      </trkpt>
      <trkpt lat="49.08965" lon="1.74482">
        <ele>206</ele>
        <time>2020-09-13T09:02:47Z</time>
      </trkpt>
      <trkpt lat="49.08961" lon="1.74469">
        <ele>206</ele>
        <time>2020-09-13T09:02:53Z</time>
      </trkpt>
      <trkpt lat="49.08957" lon="1.74453">
        <ele>206</ele>
        <time>2020-09-13T09:03:01Z</time>
      </trkpt>
      <trkpt lat="49.08954" lon="1.74438">
        <ele>206</ele>
        <time>2020-09-13T09:03:08Z</time>
      </trkpt>
      <trkpt lat="49.08951" lon="1.74423">
        <ele>207</ele>
        <time>2020-09-13T09:03:15Z</time>
      </trkpt>
      <trkpt lat="49.08948" lon="1.74409">
        <ele>208</ele>
        <time>2020-09-13T09:03:23Z</time>
      </trkpt>
      <trkpt lat="49.08945" lon="1.74393">
        <ele>208</ele>
        <time>2020-09-13T09:03:32Z</time>
      </trkpt>
      <trkpt lat="49.08941" lon="1.74379">
        <ele>208</ele>
        <time>2020-09-13T09:03:40Z</time>
      </trkpt>
      <trkpt lat="49.08935" lon="1.74366">
        <ele>208</ele>
        <time>2020-09-13T09:03:47Z</time>
      </trkpt>
      <trkpt lat="49.08928" lon="1.74354">
        <ele>208</ele>
        <time>2020-09-13T09:03:54Z</time>
      </trkpt>
      <trkpt lat="49.08923" lon="1.7434">
        <ele>208</ele>
        <time>2020-09-13T09:04:01Z</time>
      </trkpt>
      <trkpt lat="49.08918" lon="1.74327">
        <ele>208</ele>
        <time>2020-09-13T09:04:07Z</time>
      </trkpt>
      <trkpt lat="49.08911" lon="1.74314">
        <ele>207</ele>
        <time>2020-09-13T09:04:13Z</time>
      </trkpt>
      <trkpt lat="49.08906" lon="1.74302">
        <ele>207</ele>
        <time>2020-09-13T09:04:19Z</time>
      </trkpt>
      <trkpt lat="49.089" lon="1.74291">
        <ele>206</ele>
        <time>2020-09-13T09:04:25Z</time>
      </trkpt>
      <trkpt lat="49.08895" lon="1.74278">
        <ele>206</ele>
        <time>2020-09-13T09:04:31Z</time>
      </trkpt>
      <trkpt lat="49.0889" lon="1.74262">
        <ele>206</ele>
        <time>2020-09-13T09:04:39Z</time>
      </trkpt>
      <trkpt lat="49.08886" lon="1.74249">
        <ele>204</ele>
        <time>2020-09-13T09:04:45Z</time>
      </trkpt>
      <trkpt lat="49.08881" lon="1.74237">
        <ele>204</ele>
        <time>2020-09-13T09:04:51Z</time>
      </trkpt>
      <trkpt lat="49.08875" lon="1.74224">
        <ele>203</ele>
        <time>2020-09-13T09:04:59Z</time>
      </trkpt>
      <trkpt lat="49.08869" lon="1.74212">
        <ele>203</ele>
        <time>2020-09-13T09:05:07Z</time>
      </trkpt>
      <trkpt lat="49.08863" lon="1.742">
        <ele>203</ele>
        <time>2020-09-13T09:05:14Z</time>
      </trkpt>
      <trkpt lat="49.08856" lon="1.74187">
        <ele>203</ele>
        <time>2020-09-13T09:05:20Z</time>
      </trkpt>
      <trkpt lat="49.0885" lon="1.74174">
        <ele>203</ele>
        <time>2020-09-13T09:05:26Z</time>
      </trkpt>
      <trkpt lat="49.08844" lon="1.74161">
        <ele>201</ele>
        <time>2020-09-13T09:05:33Z</time>
      </trkpt>
      <trkpt lat="49.08838" lon="1.74148">
        <ele>200</ele>
        <time>2020-09-13T09:05:42Z</time>
      </trkpt>
      <trkpt lat="49.0883" lon="1.74138">
        <ele>203</ele>
        <time>2020-09-13T09:05:48Z</time>
      </trkpt>
      <trkpt lat="49.08821" lon="1.74127">
        <ele>202</ele>
        <time>2020-09-13T09:05:54Z</time>
      </trkpt>
      <trkpt lat="49.08812" lon="1.74119">
        <ele>202</ele>
        <time>2020-09-13T09:06:00Z</time>
      </trkpt>
      <trkpt lat="49.08805" lon="1.74111">
        <ele>203</ele>
        <time>2020-09-13T09:06:06Z</time>
      </trkpt>
      <trkpt lat="49.08797" lon="1.74104">
        <ele>203</ele>
        <time>2020-09-13T09:06:25Z</time>
      </trkpt>
      <trkpt lat="49.0879" lon="1.74088">
        <ele>203</ele>
        <time>2020-09-13T09:09:35Z</time>
      </trkpt>
      <trkpt lat="49.08787" lon="1.74075">
        <ele>202</ele>
        <time>2020-09-13T09:09:44Z</time>
      </trkpt>
      <trkpt lat="49.08784" lon="1.7406">
        <ele>202</ele>
        <time>2020-09-13T09:09:58Z</time>
      </trkpt>
      <trkpt lat="49.08782" lon="1.74046">
        <ele>202</ele>
        <time>2020-09-13T09:10:07Z</time>
      </trkpt>
      <trkpt lat="49.0878" lon="1.7403">
        <ele>202</ele>
        <time>2020-09-13T09:10:14Z</time>
      </trkpt>
      <trkpt lat="49.08777" lon="1.74015">
        <ele>202</ele>
        <time>2020-09-13T09:10:21Z</time>
      </trkpt>
      <trkpt lat="49.08774" lon="1.74">
        <ele>201</ele>
        <time>2020-09-13T09:10:29Z</time>
      </trkpt>
      <trkpt lat="49.08771" lon="1.73984">
        <ele>201</ele>
        <time>2020-09-13T09:10:37Z</time>
      </trkpt>
      <trkpt lat="49.08768" lon="1.73969">
        <ele>201</ele>
        <time>2020-09-13T09:10:45Z</time>
      </trkpt>
      <trkpt lat="49.08764" lon="1.73954">
        <ele>201</ele>
        <time>2020-09-13T09:10:53Z</time>
      </trkpt>
      <trkpt lat="49.0876" lon="1.7394">
        <ele>201</ele>
        <time>2020-09-13T09:10:59Z</time>
      </trkpt>
      <trkpt lat="49.08761" lon="1.73924">
        <ele>202</ele>
        <time>2020-09-13T09:11:07Z</time>
      </trkpt>
      <trkpt lat="49.0876" lon="1.7391">
        <ele>202</ele>
        <time>2020-09-13T09:11:18Z</time>
      </trkpt>
      <trkpt lat="49.08756" lon="1.73895">
        <ele>201</ele>
        <time>2020-09-13T09:11:26Z</time>
      </trkpt>
      <trkpt lat="49.0875" lon="1.73881">
        <ele>201</ele>
        <time>2020-09-13T09:11:32Z</time>
      </trkpt>
      <trkpt lat="49.08742" lon="1.7387">
        <ele>203</ele>
        <time>2020-09-13T09:11:37Z</time>
      </trkpt>
      <trkpt lat="49.08735" lon="1.73858">
        <ele>203</ele>
        <time>2020-09-13T09:11:44Z</time>
      </trkpt>
      <trkpt lat="49.08731" lon="1.73843">
        <ele>203</ele>
        <time>2020-09-13T09:11:53Z</time>
      </trkpt>
      <trkpt lat="49.08727" lon="1.73829">
        <ele>202</ele>
        <time>2020-09-13T09:12:00Z</time>
      </trkpt>
      <trkpt lat="49.08719" lon="1.73816">
        <ele>201</ele>
        <time>2020-09-13T09:12:08Z</time>
      </trkpt>
      <trkpt lat="49.08716" lon="1.73801">
        <ele>200</ele>
        <time>2020-09-13T09:12:15Z</time>
      </trkpt>
      <trkpt lat="49.08708" lon="1.73789">
        <ele>199</ele>
        <time>2020-09-13T09:12:23Z</time>
      </trkpt>
      <trkpt lat="49.08702" lon="1.73777">
        <ele>199</ele>
        <time>2020-09-13T09:12:29Z</time>
      </trkpt>
      <trkpt lat="49.08695" lon="1.73765">
        <ele>198</ele>
        <time>2020-09-13T09:12:35Z</time>
      </trkpt>
      <trkpt lat="49.08693" lon="1.73749">
        <ele>194</ele>
        <time>2020-09-13T09:12:44Z</time>
      </trkpt>
      <trkpt lat="49.08694" lon="1.73734">
        <ele>193</ele>
        <time>2020-09-13T09:12:52Z</time>
      </trkpt>
      <trkpt lat="49.08691" lon="1.7372">
        <ele>193</ele>
        <time>2020-09-13T09:12:59Z</time>
      </trkpt>
      <trkpt lat="49.08691" lon="1.73705">
        <ele>192</ele>
        <time>2020-09-13T09:13:05Z</time>
      </trkpt>
      <trkpt lat="49.08689" lon="1.73691">
        <ele>191</ele>
        <time>2020-09-13T09:13:14Z</time>
      </trkpt>
      <trkpt lat="49.08688" lon="1.73675">
        <ele>190</ele>
        <time>2020-09-13T09:13:21Z</time>
      </trkpt>
      <trkpt lat="49.08689" lon="1.73658">
        <ele>184</ele>
        <time>2020-09-13T09:13:29Z</time>
      </trkpt>
      <trkpt lat="49.08687" lon="1.7364">
        <ele>183</ele>
        <time>2020-09-13T09:13:38Z</time>
      </trkpt>
      <trkpt lat="49.08683" lon="1.73625">
        <ele>182</ele>
        <time>2020-09-13T09:13:45Z</time>
      </trkpt>
      <trkpt lat="49.08684" lon="1.7361">
        <ele>181</ele>
        <time>2020-09-13T09:13:52Z</time>
      </trkpt>
      <trkpt lat="49.08682" lon="1.73596">
        <ele>179</ele>
        <time>2020-09-13T09:14:01Z</time>
      </trkpt>
      <trkpt lat="49.08677" lon="1.73582">
        <ele>176</ele>
        <time>2020-09-13T09:14:07Z</time>
      </trkpt>
      <trkpt lat="49.08672" lon="1.73569">
        <ele>175</ele>
        <time>2020-09-13T09:14:15Z</time>
      </trkpt>
      <trkpt lat="49.08668" lon="1.73555">
        <ele>175</ele>
        <time>2020-09-13T09:14:26Z</time>
      </trkpt>
      <trkpt lat="49.08666" lon="1.73541">
        <ele>174</ele>
        <time>2020-09-13T09:14:33Z</time>
      </trkpt>
      <trkpt lat="49.08662" lon="1.73525">
        <ele>174</ele>
        <time>2020-09-13T09:14:41Z</time>
      </trkpt>
      <trkpt lat="49.08661" lon="1.73511">
        <ele>173</ele>
        <time>2020-09-13T09:14:49Z</time>
      </trkpt>
      <trkpt lat="49.08659" lon="1.73494">
        <ele>171</ele>
        <time>2020-09-13T09:14:57Z</time>
      </trkpt>
      <trkpt lat="49.0866" lon="1.7348">
        <ele>170</ele>
        <time>2020-09-13T09:15:03Z</time>
      </trkpt>
      <trkpt lat="49.08661" lon="1.73463">
        <ele>170</ele>
        <time>2020-09-13T09:15:11Z</time>
      </trkpt>
      <trkpt lat="49.08661" lon="1.73448">
        <ele>169</ele>
        <time>2020-09-13T09:15:19Z</time>
      </trkpt>
      <trkpt lat="49.0866" lon="1.73433">
        <ele>168</ele>
        <time>2020-09-13T09:15:25Z</time>
      </trkpt>
      <trkpt lat="49.08659" lon="1.73431">
        <ele>168</ele>
        <time>2020-09-13T09:17:27Z</time>
      </trkpt>
      <trkpt lat="49.08671" lon="1.73439">
        <ele>168</ele>
        <time>2020-09-13T09:17:49Z</time>
      </trkpt>
      <trkpt lat="49.08681" lon="1.73441">
        <ele>168</ele>
        <time>2020-09-13T09:17:58Z</time>
      </trkpt>
      <trkpt lat="49.08691" lon="1.73446">
        <ele>168</ele>
        <time>2020-09-13T09:18:06Z</time>
      </trkpt>
      <trkpt lat="49.08701" lon="1.73449">
        <ele>169</ele>
        <time>2020-09-13T09:18:13Z</time>
      </trkpt>
      <trkpt lat="49.08713" lon="1.73451">
        <ele>169</ele>
        <time>2020-09-13T09:18:20Z</time>
      </trkpt>
      <trkpt lat="49.08723" lon="1.73451">
        <ele>169</ele>
        <time>2020-09-13T09:18:27Z</time>
      </trkpt>
      <trkpt lat="49.08734" lon="1.73453">
        <ele>169</ele>
        <time>2020-09-13T09:18:37Z</time>
      </trkpt>
      <trkpt lat="49.08743" lon="1.73451">
        <ele>169</ele>
        <time>2020-09-13T09:18:48Z</time>
      </trkpt>
      <trkpt lat="49.08751" lon="1.73441">
        <ele>169</ele>
        <time>2020-09-13T09:18:58Z</time>
      </trkpt>
      <trkpt lat="49.08758" lon="1.7343">
        <ele>168</ele>
        <time>2020-09-13T09:19:06Z</time>
      </trkpt>
      <trkpt lat="49.08763" lon="1.73417">
        <ele>168</ele>
        <time>2020-09-13T09:19:13Z</time>
      </trkpt>
      <trkpt lat="49.08769" lon="1.73406">
        <ele>165</ele>
        <time>2020-09-13T09:19:20Z</time>
      </trkpt>
      <trkpt lat="49.08775" lon="1.73396">
        <ele>165</ele>
        <time>2020-09-13T09:19:27Z</time>
      </trkpt>
      <trkpt lat="49.08784" lon="1.73389">
        <ele>164</ele>
        <time>2020-09-13T09:19:34Z</time>
      </trkpt>
      <trkpt lat="49.08789" lon="1.73375">
        <ele>164</ele>
        <time>2020-09-13T09:19:42Z</time>
      </trkpt>
      <trkpt lat="49.08797" lon="1.73365">
        <ele>164</ele>
        <time>2020-09-13T09:19:50Z</time>
      </trkpt>
      <trkpt lat="49.08806" lon="1.73358">
        <ele>163</ele>
        <time>2020-09-13T09:19:57Z</time>
      </trkpt>
      <trkpt lat="49.08813" lon="1.73347">
        <ele>163</ele>
        <time>2020-09-13T09:20:06Z</time>
      </trkpt>
      <trkpt lat="49.08821" lon="1.73338">
        <ele>162</ele>
        <time>2020-09-13T09:20:14Z</time>
      </trkpt>
      <trkpt lat="49.0883" lon="1.73329">
        <ele>160</ele>
        <time>2020-09-13T09:20:22Z</time>
      </trkpt>
      <trkpt lat="49.08841" lon="1.73318">
        <ele>158</ele>
        <time>2020-09-13T09:21:14Z</time>
      </trkpt>
      <trkpt lat="49.08851" lon="1.73313">
        <ele>157</ele>
        <time>2020-09-13T09:21:22Z</time>
      </trkpt>
      <trkpt lat="49.0886" lon="1.73307">
        <ele>156</ele>
        <time>2020-09-13T09:21:33Z</time>
      </trkpt>
      <trkpt lat="49.08866" lon="1.73296">
        <ele>155</ele>
        <time>2020-09-13T09:21:43Z</time>
      </trkpt>
      <trkpt lat="49.08875" lon="1.73282">
        <ele>154</ele>
        <time>2020-09-13T09:21:49Z</time>
      </trkpt>
      <trkpt lat="49.08883" lon="1.73271">
        <ele>154</ele>
        <time>2020-09-13T09:21:54Z</time>
      </trkpt>
      <trkpt lat="49.08891" lon="1.73258">
        <ele>153</ele>
        <time>2020-09-13T09:22:00Z</time>
      </trkpt>
      <trkpt lat="49.08898" lon="1.73247">
        <ele>150</ele>
        <time>2020-09-13T09:22:06Z</time>
      </trkpt>
      <trkpt lat="49.08905" lon="1.73236">
        <ele>150</ele>
        <time>2020-09-13T09:22:12Z</time>
      </trkpt>
      <trkpt lat="49.08912" lon="1.73227">
        <ele>150</ele>
        <time>2020-09-13T09:22:18Z</time>
      </trkpt>
      <trkpt lat="49.0892" lon="1.73217">
        <ele>149</ele>
        <time>2020-09-13T09:22:24Z</time>
      </trkpt>
      <trkpt lat="49.08925" lon="1.73203">
        <ele>148</ele>
        <time>2020-09-13T09:22:30Z</time>
      </trkpt>
      <trkpt lat="49.08928" lon="1.73189">
        <ele>148</ele>
        <time>2020-09-13T09:22:36Z</time>
      </trkpt>
      <trkpt lat="49.08933" lon="1.73176">
        <ele>148</ele>
        <time>2020-09-13T09:22:43Z</time>
      </trkpt>
      <trkpt lat="49.08935" lon="1.73159">
        <ele>146</ele>
        <time>2020-09-13T09:22:49Z</time>
      </trkpt>
      <trkpt lat="49.08933" lon="1.73142">
        <ele>146</ele>
        <time>2020-09-13T09:22:54Z</time>
      </trkpt>
      <trkpt lat="49.08932" lon="1.73128">
        <ele>146</ele>
        <time>2020-09-13T09:23:01Z</time>
      </trkpt>
      <trkpt lat="49.0893" lon="1.73113">
        <ele>146</ele>
        <time>2020-09-13T09:23:09Z</time>
      </trkpt>
      <trkpt lat="49.0893" lon="1.73099">
        <ele>146</ele>
        <time>2020-09-13T09:23:15Z</time>
      </trkpt>
      <trkpt lat="49.08932" lon="1.73085">
        <ele>145</ele>
        <time>2020-09-13T09:23:22Z</time>
      </trkpt>
      <trkpt lat="49.08937" lon="1.73071">
        <ele>145</ele>
        <time>2020-09-13T09:23:29Z</time>
      </trkpt>
      <trkpt lat="49.08942" lon="1.73056">
        <ele>146</ele>
        <time>2020-09-13T09:23:37Z</time>
      </trkpt>
      <trkpt lat="49.08947" lon="1.7304">
        <ele>146</ele>
        <time>2020-09-13T09:23:43Z</time>
      </trkpt>
      <trkpt lat="49.08952" lon="1.73026">
        <ele>146</ele>
        <time>2020-09-13T09:23:50Z</time>
      </trkpt>
      <trkpt lat="49.08956" lon="1.7301">
        <ele>146</ele>
        <time>2020-09-13T09:23:58Z</time>
      </trkpt>
      <trkpt lat="49.08959" lon="1.72993">
        <ele>148</ele>
        <time>2020-09-13T09:24:06Z</time>
      </trkpt>
      <trkpt lat="49.08964" lon="1.72978">
        <ele>148</ele>
        <time>2020-09-13T09:24:14Z</time>
      </trkpt>
      <trkpt lat="49.0897" lon="1.72966">
        <ele>148</ele>
        <time>2020-09-13T09:24:21Z</time>
      </trkpt>
      <trkpt lat="49.08976" lon="1.72952">
        <ele>149</ele>
        <time>2020-09-13T09:24:29Z</time>
      </trkpt>
      <trkpt lat="49.08982" lon="1.72939">
        <ele>149</ele>
        <time>2020-09-13T09:24:36Z</time>
      </trkpt>
      <trkpt lat="49.08985" lon="1.72924">
        <ele>150</ele>
        <time>2020-09-13T09:24:43Z</time>
      </trkpt>
      <trkpt lat="49.08992" lon="1.72911">
        <ele>151</ele>
        <time>2020-09-13T09:24:49Z</time>
      </trkpt>
      <trkpt lat="49.08998" lon="1.729">
        <ele>151</ele>
        <time>2020-09-13T09:24:57Z</time>
      </trkpt>
      <trkpt lat="49.09003" lon="1.72887">
        <ele>152</ele>
        <time>2020-09-13T09:25:05Z</time>
      </trkpt>
      <trkpt lat="49.0901" lon="1.72874">
        <ele>153</ele>
        <time>2020-09-13T09:25:13Z</time>
      </trkpt>
      <trkpt lat="49.09016" lon="1.72861">
        <ele>153</ele>
        <time>2020-09-13T09:25:21Z</time>
      </trkpt>
      <trkpt lat="49.09023" lon="1.7285">
        <ele>153</ele>
        <time>2020-09-13T09:25:27Z</time>
      </trkpt>
      <trkpt lat="49.0903" lon="1.72838">
        <ele>153</ele>
        <time>2020-09-13T09:25:34Z</time>
      </trkpt>
      <trkpt lat="49.09037" lon="1.72829">
        <ele>155</ele>
        <time>2020-09-13T09:25:42Z</time>
      </trkpt>
      <trkpt lat="49.09045" lon="1.72818">
        <ele>155</ele>
        <time>2020-09-13T09:25:48Z</time>
      </trkpt>
      <trkpt lat="49.09051" lon="1.72806">
        <ele>155</ele>
        <time>2020-09-13T09:25:55Z</time>
      </trkpt>
      <trkpt lat="49.09056" lon="1.72795">
        <ele>156</ele>
        <time>2020-09-13T09:26:01Z</time>
      </trkpt>
      <trkpt lat="49.09063" lon="1.72783">
        <ele>156</ele>
        <time>2020-09-13T09:26:07Z</time>
      </trkpt>
      <trkpt lat="49.0907" lon="1.72772">
        <ele>157</ele>
        <time>2020-09-13T09:26:15Z</time>
      </trkpt>
      <trkpt lat="49.09077" lon="1.7276">
        <ele>158</ele>
        <time>2020-09-13T09:26:23Z</time>
      </trkpt>
      <trkpt lat="49.09082" lon="1.72747">
        <ele>159</ele>
        <time>2020-09-13T09:26:30Z</time>
      </trkpt>
      <trkpt lat="49.09089" lon="1.72736">
        <ele>161</ele>
        <time>2020-09-13T09:26:36Z</time>
      </trkpt>
      <trkpt lat="49.09094" lon="1.72723">
        <ele>162</ele>
        <time>2020-09-13T09:26:44Z</time>
      </trkpt>
      <trkpt lat="49.09096" lon="1.72707">
        <ele>163</ele>
        <time>2020-09-13T09:26:50Z</time>
      </trkpt>
      <trkpt lat="49.09103" lon="1.7269">
        <ele>163</ele>
        <time>2020-09-13T09:26:59Z</time>
      </trkpt>
      <trkpt lat="49.09108" lon="1.72678">
        <ele>164</ele>
        <time>2020-09-13T09:27:06Z</time>
      </trkpt>
      <trkpt lat="49.0911" lon="1.72661">
        <ele>166</ele>
        <time>2020-09-13T09:27:15Z</time>
      </trkpt>
      <trkpt lat="49.09113" lon="1.72647">
        <ele>166</ele>
        <time>2020-09-13T09:27:22Z</time>
      </trkpt>
      <trkpt lat="49.09114" lon="1.72631">
        <ele>166</ele>
        <time>2020-09-13T09:27:30Z</time>
      </trkpt>
      <trkpt lat="49.09116" lon="1.72617">
        <ele>167</ele>
        <time>2020-09-13T09:27:37Z</time>
      </trkpt>
      <trkpt lat="49.09118" lon="1.72599">
        <ele>167</ele>
        <time>2020-09-13T09:27:45Z</time>
      </trkpt>
      <trkpt lat="49.0912" lon="1.72582">
        <ele>168</ele>
        <time>2020-09-13T09:27:53Z</time>
      </trkpt>
      <trkpt lat="49.09125" lon="1.72568">
        <ele>169</ele>
        <time>2020-09-13T09:28:03Z</time>
      </trkpt>
      <trkpt lat="49.09129" lon="1.72553">
        <ele>169</ele>
        <time>2020-09-13T09:28:11Z</time>
      </trkpt>
      <trkpt lat="49.09128" lon="1.72538">
        <ele>169</ele>
        <time>2020-09-13T09:28:17Z</time>
      </trkpt>
      <trkpt lat="49.09123" lon="1.7252">
        <ele>169</ele>
        <time>2020-09-13T09:29:18Z</time>
      </trkpt>
      <trkpt lat="49.09133" lon="1.72515">
        <ele>170</ele>
        <time>2020-09-13T09:29:37Z</time>
      </trkpt>
      <trkpt lat="49.09143" lon="1.72511">
        <ele>170</ele>
        <time>2020-09-13T09:29:45Z</time>
      </trkpt>
      <trkpt lat="49.09154" lon="1.72511">
        <ele>171</ele>
        <time>2020-09-13T09:29:53Z</time>
      </trkpt>
      <trkpt lat="49.09163" lon="1.72511">
        <ele>171</ele>
        <time>2020-09-13T09:30:02Z</time>
      </trkpt>
      <trkpt lat="49.09173" lon="1.72505">
        <ele>173</ele>
        <time>2020-09-13T09:30:13Z</time>
      </trkpt>
      <trkpt lat="49.09183" lon="1.72499">
        <ele>176</ele>
        <time>2020-09-13T09:30:24Z</time>
      </trkpt>
      <trkpt lat="49.09191" lon="1.7249">
        <ele>177</ele>
        <time>2020-09-13T09:30:33Z</time>
      </trkpt>
      <trkpt lat="49.09197" lon="1.72477">
        <ele>177</ele>
        <time>2020-09-13T09:30:42Z</time>
      </trkpt>
      <trkpt lat="49.092" lon="1.72463">
        <ele>178</ele>
        <time>2020-09-13T09:30:53Z</time>
      </trkpt>
      <trkpt lat="49.09205" lon="1.72449">
        <ele>179</ele>
        <time>2020-09-13T09:31:02Z</time>
      </trkpt>
      <trkpt lat="49.09214" lon="1.72432">
        <ele>180</ele>
        <time>2020-09-13T09:31:33Z</time>
      </trkpt>
      <trkpt lat="49.09217" lon="1.72419">
        <ele>181</ele>
        <time>2020-09-13T09:31:40Z</time>
      </trkpt>
      <trkpt lat="49.09219" lon="1.72405">
        <ele>186</ele>
        <time>2020-09-13T09:31:50Z</time>
      </trkpt>
      <trkpt lat="49.09218" lon="1.7239">
        <ele>186</ele>
        <time>2020-09-13T09:32:03Z</time>
      </trkpt>
      <trkpt lat="49.09223" lon="1.72379">
        <ele>187</ele>
        <time>2020-09-13T09:32:16Z</time>
      </trkpt>
      <trkpt lat="49.09236" lon="1.72371">
        <ele>188</ele>
        <time>2020-09-13T09:32:56Z</time>
      </trkpt>
      <trkpt lat="49.09237" lon="1.72357">
        <ele>189</ele>
        <time>2020-09-13T09:34:24Z</time>
      </trkpt>
      <trkpt lat="49.09245" lon="1.7235">
        <ele>191</ele>
        <time>2020-09-13T09:34:41Z</time>
      </trkpt>
      <trkpt lat="49.09246" lon="1.72335">
        <ele>194</ele>
        <time>2020-09-13T09:34:56Z</time>
      </trkpt>
      <trkpt lat="49.09234" lon="1.72334">
        <ele>191</ele>
        <time>2020-09-13T09:36:58Z</time>
      </trkpt>
      <trkpt lat="49.09224" lon="1.72338">
        <ele>190</ele>
        <time>2020-09-13T09:37:05Z</time>
      </trkpt>
      <trkpt lat="49.09214" lon="1.72344">
        <ele>188</ele>
        <time>2020-09-13T09:37:12Z</time>
      </trkpt>
      <trkpt lat="49.09204" lon="1.72351">
        <ele>187</ele>
        <time>2020-09-13T09:37:19Z</time>
      </trkpt>
      <trkpt lat="49.09194" lon="1.72356">
        <ele>187</ele>
        <time>2020-09-13T09:37:27Z</time>
      </trkpt>
      <trkpt lat="49.09183" lon="1.72362">
        <ele>186</ele>
        <time>2020-09-13T09:37:35Z</time>
      </trkpt>
      <trkpt lat="49.09174" lon="1.72368">
        <ele>186</ele>
        <time>2020-09-13T09:37:43Z</time>
      </trkpt>
      <trkpt lat="49.09168" lon="1.72381">
        <ele>185</ele>
        <time>2020-09-13T09:37:52Z</time>
      </trkpt>
      <trkpt lat="49.09158" lon="1.72382">
        <ele>180</ele>
        <time>2020-09-13T09:38:53Z</time>
      </trkpt>
      <trkpt lat="49.09148" lon="1.7238">
        <ele>180</ele>
        <time>2020-09-13T09:39:07Z</time>
      </trkpt>
      <trkpt lat="49.09139" lon="1.72384">
        <ele>179</ele>
        <time>2020-09-13T09:39:19Z</time>
      </trkpt>
      <trkpt lat="49.09129" lon="1.72389">
        <ele>178</ele>
        <time>2020-09-13T09:39:30Z</time>
      </trkpt>
      <trkpt lat="49.09119" lon="1.72396">
        <ele>178</ele>
        <time>2020-09-13T09:39:38Z</time>
      </trkpt>
      <trkpt lat="49.0911" lon="1.72403">
        <ele>177</ele>
        <time>2020-09-13T09:39:44Z</time>
      </trkpt>
      <trkpt lat="49.09101" lon="1.7241">
        <ele>175</ele>
        <time>2020-09-13T09:39:51Z</time>
      </trkpt>
      <trkpt lat="49.09092" lon="1.72415">
        <ele>174</ele>
        <time>2020-09-13T09:39:59Z</time>
      </trkpt>
      <trkpt lat="49.09082" lon="1.7242">
        <ele>171</ele>
        <time>2020-09-13T09:40:08Z</time>
      </trkpt>
      <trkpt lat="49.09073" lon="1.72425">
        <ele>169</ele>
        <time>2020-09-13T09:40:14Z</time>
      </trkpt>
      <trkpt lat="49.09064" lon="1.72432">
        <ele>168</ele>
        <time>2020-09-13T09:40:24Z</time>
      </trkpt>
      <trkpt lat="49.09054" lon="1.72438">
        <ele>167</ele>
        <time>2020-09-13T09:40:33Z</time>
      </trkpt>
      <trkpt lat="49.09043" lon="1.72443">
        <ele>166</ele>
        <time>2020-09-13T09:40:40Z</time>
      </trkpt>
      <trkpt lat="49.09034" lon="1.72446">
        <ele>166</ele>
        <time>2020-09-13T09:40:47Z</time>
      </trkpt>
      <trkpt lat="49.09023" lon="1.72451">
        <ele>165</ele>
        <time>2020-09-13T09:40:53Z</time>
      </trkpt>
      <trkpt lat="49.09014" lon="1.72459">
        <ele>165</ele>
        <time>2020-09-13T09:41:01Z</time>
      </trkpt>
      <trkpt lat="49.09005" lon="1.72465">
        <ele>165</ele>
        <time>2020-09-13T09:41:08Z</time>
      </trkpt>
      <trkpt lat="49.08996" lon="1.7247">
        <ele>160</ele>
        <time>2020-09-13T09:41:14Z</time>
      </trkpt>
      <trkpt lat="49.08986" lon="1.72473">
        <ele>160</ele>
        <time>2020-09-13T09:41:22Z</time>
      </trkpt>
      <trkpt lat="49.08976" lon="1.72479">
        <ele>160</ele>
        <time>2020-09-13T09:41:29Z</time>
      </trkpt>
      <trkpt lat="49.08968" lon="1.72488">
        <ele>160</ele>
        <time>2020-09-13T09:41:36Z</time>
      </trkpt>
      <trkpt lat="49.08957" lon="1.72492">
        <ele>159</ele>
        <time>2020-09-13T09:41:44Z</time>
      </trkpt>
      <trkpt lat="49.08948" lon="1.72496">
        <ele>159</ele>
        <time>2020-09-13T09:41:52Z</time>
      </trkpt>
      <trkpt lat="49.08939" lon="1.72497">
        <ele>158</ele>
        <time>2020-09-13T09:41:59Z</time>
      </trkpt>
      <trkpt lat="49.08929" lon="1.72504">
        <ele>158</ele>
        <time>2020-09-13T09:42:06Z</time>
      </trkpt>
      <trkpt lat="49.08919" lon="1.72508">
        <ele>158</ele>
        <time>2020-09-13T09:42:12Z</time>
      </trkpt>
      <trkpt lat="49.08908" lon="1.72516">
        <ele>155</ele>
        <time>2020-09-13T09:42:20Z</time>
      </trkpt>
      <trkpt lat="49.08899" lon="1.72523">
        <ele>155</ele>
        <time>2020-09-13T09:42:29Z</time>
      </trkpt>
      <trkpt lat="49.08888" lon="1.72528">
        <ele>154</ele>
        <time>2020-09-13T09:42:36Z</time>
      </trkpt>
      <trkpt lat="49.08878" lon="1.72532">
        <ele>154</ele>
        <time>2020-09-13T09:42:45Z</time>
      </trkpt>
      <trkpt lat="49.08869" lon="1.72537">
        <ele>153</ele>
        <time>2020-09-13T09:42:51Z</time>
      </trkpt>
      <trkpt lat="49.08858" lon="1.72543">
        <ele>153</ele>
        <time>2020-09-13T09:42:59Z</time>
      </trkpt>
      <trkpt lat="49.08849" lon="1.72548">
        <ele>153</ele>
        <time>2020-09-13T09:43:05Z</time>
      </trkpt>
      <trkpt lat="49.0884" lon="1.72555">
        <ele>153</ele>
        <time>2020-09-13T09:43:13Z</time>
      </trkpt>
      <trkpt lat="49.08829" lon="1.72556">
        <ele>149</ele>
        <time>2020-09-13T09:43:20Z</time>
      </trkpt>
      <trkpt lat="49.08819" lon="1.72562">
        <ele>149</ele>
        <time>2020-09-13T09:43:28Z</time>
      </trkpt>
      <trkpt lat="49.08808" lon="1.72559">
        <ele>149</ele>
        <time>2020-09-13T09:43:36Z</time>
      </trkpt>
      <trkpt lat="49.08801" lon="1.72549">
        <ele>149</ele>
        <time>2020-09-13T09:43:42Z</time>
      </trkpt>
      <trkpt lat="49.08795" lon="1.72536">
        <ele>148</ele>
        <time>2020-09-13T09:43:49Z</time>
      </trkpt>
      <trkpt lat="49.08789" lon="1.72524">
        <ele>148</ele>
        <time>2020-09-13T09:43:57Z</time>
      </trkpt>
      <trkpt lat="49.08782" lon="1.72512">
        <ele>148</ele>
        <time>2020-09-13T09:44:04Z</time>
      </trkpt>
      <trkpt lat="49.08774" lon="1.72501">
        <ele>147</ele>
        <time>2020-09-13T09:44:10Z</time>
      </trkpt>
      <trkpt lat="49.08767" lon="1.72491">
        <ele>147</ele>
        <time>2020-09-13T09:44:17Z</time>
      </trkpt>
      <trkpt lat="49.08759" lon="1.72479">
        <ele>147</ele>
        <time>2020-09-13T09:44:25Z</time>
      </trkpt>
      <trkpt lat="49.08752" lon="1.72469">
        <ele>147</ele>
        <time>2020-09-13T09:44:31Z</time>
      </trkpt>
      <trkpt lat="49.08744" lon="1.7246">
        <ele>146</ele>
        <time>2020-09-13T09:44:39Z</time>
      </trkpt>
      <trkpt lat="49.08737" lon="1.72449">
        <ele>146</ele>
        <time>2020-09-13T09:44:45Z</time>
      </trkpt>
      <trkpt lat="49.0873" lon="1.72438">
        <ele>146</ele>
        <time>2020-09-13T09:44:53Z</time>
      </trkpt>
      <trkpt lat="49.08722" lon="1.72426">
        <ele>146</ele>
        <time>2020-09-13T09:45:01Z</time>
      </trkpt>
      <trkpt lat="49.08714" lon="1.72417">
        <ele>145</ele>
        <time>2020-09-13T09:45:07Z</time>
      </trkpt>
      <trkpt lat="49.08706" lon="1.72407">
        <ele>145</ele>
        <time>2020-09-13T09:45:13Z</time>
      </trkpt>
      <trkpt lat="49.08699" lon="1.72398">
        <ele>145</ele>
        <time>2020-09-13T09:45:19Z</time>
      </trkpt>
      <trkpt lat="49.08692" lon="1.72387">
        <ele>145</ele>
        <time>2020-09-13T09:45:26Z</time>
      </trkpt>
      <trkpt lat="49.08684" lon="1.72377">
        <ele>145</ele>
        <time>2020-09-13T09:45:33Z</time>
      </trkpt>
      <trkpt lat="49.08676" lon="1.72367">
        <ele>145</ele>
        <time>2020-09-13T09:45:40Z</time>
      </trkpt>
      <trkpt lat="49.08668" lon="1.72357">
        <ele>145</ele>
        <time>2020-09-13T09:45:48Z</time>
      </trkpt>
      <trkpt lat="49.08658" lon="1.72353">
        <ele>144</ele>
        <time>2020-09-13T09:45:54Z</time>
      </trkpt>
      <trkpt lat="49.08648" lon="1.72348">
        <ele>144</ele>
        <time>2020-09-13T09:46:00Z</time>
      </trkpt>
      <trkpt lat="49.08639" lon="1.72341">
        <ele>144</ele>
        <time>2020-09-13T09:46:07Z</time>
      </trkpt>
      <trkpt lat="49.08631" lon="1.72334">
        <ele>144</ele>
        <time>2020-09-13T09:46:13Z</time>
      </trkpt>
      <trkpt lat="49.08622" lon="1.72327">
        <ele>144</ele>
        <time>2020-09-13T09:46:20Z</time>
      </trkpt>
      <trkpt lat="49.08612" lon="1.72323">
        <ele>143</ele>
        <time>2020-09-13T09:46:29Z</time>
      </trkpt>
      <trkpt lat="49.08614" lon="1.72308">
        <ele>143</ele>
        <time>2020-09-13T09:47:53Z</time>
      </trkpt>
      <trkpt lat="49.08616" lon="1.72293">
        <ele>143</ele>
        <time>2020-09-13T09:47:59Z</time>
      </trkpt>
      <trkpt lat="49.08617" lon="1.72278">
        <ele>143</ele>
        <time>2020-09-13T09:48:06Z</time>
      </trkpt>
      <trkpt lat="49.08619" lon="1.72262">
        <ele>143</ele>
        <time>2020-09-13T09:48:14Z</time>
      </trkpt>
      <trkpt lat="49.08621" lon="1.72247">
        <ele>143</ele>
        <time>2020-09-13T09:48:21Z</time>
      </trkpt>
      <trkpt lat="49.08624" lon="1.72232">
        <ele>143</ele>
        <time>2020-09-13T09:48:30Z</time>
      </trkpt>
      <trkpt lat="49.08625" lon="1.72215">
        <ele>143</ele>
        <time>2020-09-13T09:48:38Z</time>
      </trkpt>
      <trkpt lat="49.08626" lon="1.72198">
        <ele>144</ele>
        <time>2020-09-13T09:48:46Z</time>
      </trkpt>
      <trkpt lat="49.08628" lon="1.72183">
        <ele>144</ele>
        <time>2020-09-13T09:48:54Z</time>
      </trkpt>
      <trkpt lat="49.0863" lon="1.72168">
        <ele>144</ele>
        <time>2020-09-13T09:49:02Z</time>
      </trkpt>
      <trkpt lat="49.08631" lon="1.72152">
        <ele>146</ele>
        <time>2020-09-13T09:49:10Z</time>
      </trkpt>
      <trkpt lat="49.08631" lon="1.72137">
        <ele>146</ele>
        <time>2020-09-13T09:49:17Z</time>
      </trkpt>
      <trkpt lat="49.0863" lon="1.7212">
        <ele>146</ele>
        <time>2020-09-13T09:49:25Z</time>
      </trkpt>
      <trkpt lat="49.08631" lon="1.72103">
        <ele>147</ele>
        <time>2020-09-13T09:49:33Z</time>
      </trkpt>
      <trkpt lat="49.08629" lon="1.72087">
        <ele>147</ele>
        <time>2020-09-13T09:49:41Z</time>
      </trkpt>
      <trkpt lat="49.0862" lon="1.7208">
        <ele>148</ele>
        <time>2020-09-13T09:49:49Z</time>
      </trkpt>
      <trkpt lat="49.0861" lon="1.72074">
        <ele>148</ele>
        <time>2020-09-13T09:49:56Z</time>
      </trkpt>
      <trkpt lat="49.08601" lon="1.72071">
        <ele>148</ele>
        <time>2020-09-13T09:50:03Z</time>
      </trkpt>
      <trkpt lat="49.0859" lon="1.72069">
        <ele>147</ele>
        <time>2020-09-13T09:50:10Z</time>
      </trkpt>
      <trkpt lat="49.0858" lon="1.72066">
        <ele>146</ele>
        <time>2020-09-13T09:50:19Z</time>
      </trkpt>
      <trkpt lat="49.0857" lon="1.72064">
        <ele>146</ele>
        <time>2020-09-13T09:50:25Z</time>
      </trkpt>
      <trkpt lat="49.08561" lon="1.7206">
        <ele>146</ele>
        <time>2020-09-13T09:50:31Z</time>
      </trkpt>
      <trkpt lat="49.0855" lon="1.72058">
        <ele>146</ele>
        <time>2020-09-13T09:50:39Z</time>
      </trkpt>
      <trkpt lat="49.08541" lon="1.72054">
        <ele>146</ele>
        <time>2020-09-13T09:50:45Z</time>
      </trkpt>
      <trkpt lat="49.0853" lon="1.72049">
        <ele>146</ele>
        <time>2020-09-13T09:50:51Z</time>
      </trkpt>
      <trkpt lat="49.08521" lon="1.72045">
        <ele>146</ele>
        <time>2020-09-13T09:50:58Z</time>
      </trkpt>
      <trkpt lat="49.08512" lon="1.72039">
        <ele>146</ele>
        <time>2020-09-13T09:51:06Z</time>
      </trkpt>
      <trkpt lat="49.08503" lon="1.72031">
        <ele>147</ele>
        <time>2020-09-13T09:51:13Z</time>
      </trkpt>
      <trkpt lat="49.08493" lon="1.72022">
        <ele>146</ele>
        <time>2020-09-13T09:51:21Z</time>
      </trkpt>
      <trkpt lat="49.08484" lon="1.72015">
        <ele>146</ele>
        <time>2020-09-13T09:51:29Z</time>
      </trkpt>
      <trkpt lat="49.08475" lon="1.72005">
        <ele>146</ele>
        <time>2020-09-13T09:51:37Z</time>
      </trkpt>
      <trkpt lat="49.08465" lon="1.71998">
        <ele>147</ele>
        <time>2020-09-13T09:51:45Z</time>
      </trkpt>
      <trkpt lat="49.08457" lon="1.71988">
        <ele>147</ele>
        <time>2020-09-13T09:51:52Z</time>
      </trkpt>
      <trkpt lat="49.08449" lon="1.7198">
        <ele>147</ele>
        <time>2020-09-13T09:51:58Z</time>
      </trkpt>
      <trkpt lat="49.08441" lon="1.71968">
        <ele>147</ele>
        <time>2020-09-13T09:52:05Z</time>
      </trkpt>
      <trkpt lat="49.08433" lon="1.7196">
        <ele>147</ele>
        <time>2020-09-13T09:52:12Z</time>
      </trkpt>
      <trkpt lat="49.08426" lon="1.71948">
        <ele>147</ele>
        <time>2020-09-13T09:52:20Z</time>
      </trkpt>
      <trkpt lat="49.08418" lon="1.71938">
        <ele>147</ele>
        <time>2020-09-13T09:52:28Z</time>
      </trkpt>
      <trkpt lat="49.0841" lon="1.71927">
        <ele>146</ele>
        <time>2020-09-13T09:52:36Z</time>
      </trkpt>
      <trkpt lat="49.084" lon="1.71919">
        <ele>146</ele>
        <time>2020-09-13T09:52:43Z</time>
      </trkpt>
      <trkpt lat="49.08391" lon="1.7191">
        <ele>146</ele>
        <time>2020-09-13T09:52:51Z</time>
      </trkpt>
      <trkpt lat="49.08382" lon="1.719">
        <ele>146</ele>
        <time>2020-09-13T09:52:59Z</time>
      </trkpt>
      <trkpt lat="49.08372" lon="1.71893">
        <ele>146</ele>
        <time>2020-09-13T09:53:07Z</time>
      </trkpt>
      <trkpt lat="49.08364" lon="1.71883">
        <ele>146</ele>
        <time>2020-09-13T09:53:15Z</time>
      </trkpt>
      <trkpt lat="49.08356" lon="1.71876">
        <ele>146</ele>
        <time>2020-09-13T09:53:22Z</time>
      </trkpt>
      <trkpt lat="49.08347" lon="1.7187">
        <ele>146</ele>
        <time>2020-09-13T09:53:29Z</time>
      </trkpt>
      <trkpt lat="49.08336" lon="1.71862">
        <ele>146</ele>
        <time>2020-09-13T09:53:37Z</time>
      </trkpt>
      <trkpt lat="49.08326" lon="1.71855">
        <ele>144</ele>
        <time>2020-09-13T09:53:45Z</time>
      </trkpt>
      <trkpt lat="49.08318" lon="1.71846">
        <ele>144</ele>
        <time>2020-09-13T09:53:52Z</time>
      </trkpt>
      <trkpt lat="49.08308" lon="1.71839">
        <ele>144</ele>
        <time>2020-09-13T09:54:00Z</time>
      </trkpt>
      <trkpt lat="49.08298" lon="1.71832">
        <ele>145</ele>
        <time>2020-09-13T09:54:07Z</time>
      </trkpt>
      <trkpt lat="49.08289" lon="1.71827">
        <ele>144</ele>
        <time>2020-09-13T09:54:14Z</time>
      </trkpt>
      <trkpt lat="49.0828" lon="1.71817">
        <ele>144</ele>
        <time>2020-09-13T09:54:22Z</time>
      </trkpt>
      <trkpt lat="49.08269" lon="1.7181">
        <ele>144</ele>
        <time>2020-09-13T09:54:30Z</time>
      </trkpt>
      <trkpt lat="49.0826" lon="1.71804">
        <ele>144</ele>
        <time>2020-09-13T09:54:37Z</time>
      </trkpt>
      <trkpt lat="49.08252" lon="1.71796">
        <ele>144</ele>
        <time>2020-09-13T09:54:43Z</time>
      </trkpt>
      <trkpt lat="49.08244" lon="1.71786">
        <ele>141</ele>
        <time>2020-09-13T09:54:50Z</time>
      </trkpt>
      <trkpt lat="49.08236" lon="1.71776">
        <ele>141</ele>
        <time>2020-09-13T09:54:59Z</time>
      </trkpt>
      <trkpt lat="49.08228" lon="1.71767">
        <ele>141</ele>
        <time>2020-09-13T09:55:05Z</time>
      </trkpt>
      <trkpt lat="49.08221" lon="1.71757">
        <ele>141</ele>
        <time>2020-09-13T09:55:11Z</time>
      </trkpt>
      <trkpt lat="49.08212" lon="1.71748">
        <ele>142</ele>
        <time>2020-09-13T09:55:18Z</time>
      </trkpt>
      <trkpt lat="49.08205" lon="1.7174">
        <ele>142</ele>
        <time>2020-09-13T09:55:24Z</time>
      </trkpt>
      <trkpt lat="49.08197" lon="1.71727">
        <ele>142</ele>
        <time>2020-09-13T09:55:32Z</time>
      </trkpt>
      <trkpt lat="49.0819" lon="1.71715">
        <ele>142</ele>
        <time>2020-09-13T09:55:39Z</time>
      </trkpt>
      <trkpt lat="49.08182" lon="1.71705">
        <ele>142</ele>
        <time>2020-09-13T09:55:46Z</time>
      </trkpt>
      <trkpt lat="49.08175" lon="1.71694">
        <ele>142</ele>
        <time>2020-09-13T09:55:53Z</time>
      </trkpt>
      <trkpt lat="49.08168" lon="1.71683">
        <ele>142</ele>
        <time>2020-09-13T09:56:00Z</time>
      </trkpt>
      <trkpt lat="49.0816" lon="1.71672">
        <ele>141</ele>
        <time>2020-09-13T09:56:06Z</time>
      </trkpt>
      <trkpt lat="49.08152" lon="1.71662">
        <ele>142</ele>
        <time>2020-09-13T09:56:13Z</time>
      </trkpt>
      <trkpt lat="49.08144" lon="1.71652">
        <ele>142</ele>
        <time>2020-09-13T09:56:21Z</time>
      </trkpt>
      <trkpt lat="49.08138" lon="1.71641">
        <ele>142</ele>
        <time>2020-09-13T09:56:27Z</time>
      </trkpt>
      <trkpt lat="49.08129" lon="1.71629">
        <ele>142</ele>
        <time>2020-09-13T09:56:35Z</time>
      </trkpt>
      <trkpt lat="49.08121" lon="1.71619">
        <ele>141</ele>
        <time>2020-09-13T09:56:42Z</time>
      </trkpt>
      <trkpt lat="49.08113" lon="1.71612">
        <ele>141</ele>
        <time>2020-09-13T09:56:49Z</time>
      </trkpt>
      <trkpt lat="49.08105" lon="1.71603">
        <ele>141</ele>
        <time>2020-09-13T09:56:55Z</time>
      </trkpt>
      <trkpt lat="49.08097" lon="1.71595">
        <ele>141</ele>
        <time>2020-09-13T09:57:01Z</time>
      </trkpt>
      <trkpt lat="49.08086" lon="1.71587">
        <ele>140</ele>
        <time>2020-09-13T09:57:09Z</time>
      </trkpt>
      <trkpt lat="49.08079" lon="1.71578">
        <ele>140</ele>
        <time>2020-09-13T09:57:15Z</time>
      </trkpt>
      <trkpt lat="49.08071" lon="1.71567">
        <ele>140</ele>
        <time>2020-09-13T09:57:23Z</time>
      </trkpt>
      <trkpt lat="49.08064" lon="1.71559">
        <ele>140</ele>
        <time>2020-09-13T09:57:29Z</time>
      </trkpt>
      <trkpt lat="49.08055" lon="1.71549">
        <ele>140</ele>
        <time>2020-09-13T09:57:36Z</time>
      </trkpt>
      <trkpt lat="49.08047" lon="1.7154">
        <ele>140</ele>
        <time>2020-09-13T09:57:43Z</time>
      </trkpt>
      <trkpt lat="49.08038" lon="1.71532">
        <ele>140</ele>
        <time>2020-09-13T09:57:50Z</time>
      </trkpt>
      <trkpt lat="49.08031" lon="1.71523">
        <ele>140</ele>
        <time>2020-09-13T09:57:56Z</time>
      </trkpt>
      <trkpt lat="49.08022" lon="1.71513">
        <ele>140</ele>
        <time>2020-09-13T09:58:03Z</time>
      </trkpt>
      <trkpt lat="49.08014" lon="1.71505">
        <ele>140</ele>
        <time>2020-09-13T09:58:09Z</time>
      </trkpt>
      <trkpt lat="49.08007" lon="1.71496">
        <ele>141</ele>
        <time>2020-09-13T09:58:15Z</time>
      </trkpt>
      <trkpt lat="49.07997" lon="1.7149">
        <ele>140</ele>
        <time>2020-09-13T09:58:22Z</time>
      </trkpt>
      <trkpt lat="49.07988" lon="1.71483">
        <ele>140</ele>
        <time>2020-09-13T09:58:28Z</time>
      </trkpt>
      <trkpt lat="49.07978" lon="1.71477">
        <ele>140</ele>
        <time>2020-09-13T09:58:36Z</time>
      </trkpt>
      <trkpt lat="49.07969" lon="1.71476">
        <ele>140</ele>
        <time>2020-09-13T09:58:44Z</time>
      </trkpt>
      <trkpt lat="49.07959" lon="1.71474">
        <ele>140</ele>
        <time>2020-09-13T09:58:51Z</time>
      </trkpt>
      <trkpt lat="49.07949" lon="1.71474">
        <ele>140</ele>
        <time>2020-09-13T09:58:57Z</time>
      </trkpt>
      <trkpt lat="49.0794" lon="1.71472">
        <ele>140</ele>
        <time>2020-09-13T09:59:03Z</time>
      </trkpt>
      <trkpt lat="49.0793" lon="1.71471">
        <ele>140</ele>
        <time>2020-09-13T09:59:09Z</time>
      </trkpt>
      <trkpt lat="49.0792" lon="1.71468">
        <ele>140</ele>
        <time>2020-09-13T09:59:17Z</time>
      </trkpt>
      <trkpt lat="49.0791" lon="1.71467">
        <ele>139</ele>
        <time>2020-09-13T09:59:24Z</time>
      </trkpt>
      <trkpt lat="49.07899" lon="1.71461">
        <ele>139</ele>
        <time>2020-09-13T09:59:32Z</time>
      </trkpt>
      <trkpt lat="49.07891" lon="1.71457">
        <ele>138</ele>
        <time>2020-09-13T09:59:38Z</time>
      </trkpt>
      <trkpt lat="49.07881" lon="1.71454">
        <ele>138</ele>
        <time>2020-09-13T09:59:44Z</time>
      </trkpt>
      <trkpt lat="49.07871" lon="1.71448">
        <ele>138</ele>
        <time>2020-09-13T09:59:51Z</time>
      </trkpt>
      <trkpt lat="49.07861" lon="1.71444">
        <ele>138</ele>
        <time>2020-09-13T09:59:59Z</time>
      </trkpt>
      <trkpt lat="49.07851" lon="1.7144">
        <ele>138</ele>
        <time>2020-09-13T10:00:06Z</time>
      </trkpt>
      <trkpt lat="49.07839" lon="1.71437">
        <ele>138</ele>
        <time>2020-09-13T10:00:13Z</time>
      </trkpt>
      <trkpt lat="49.0783" lon="1.71431">
        <ele>137</ele>
        <time>2020-09-13T10:00:21Z</time>
      </trkpt>
      <trkpt lat="49.07819" lon="1.71425">
        <ele>137</ele>
        <time>2020-09-13T10:00:29Z</time>
      </trkpt>
      <trkpt lat="49.07809" lon="1.71421">
        <ele>137</ele>
        <time>2020-09-13T10:00:36Z</time>
      </trkpt>
      <trkpt lat="49.07799" lon="1.71416">
        <ele>138</ele>
        <time>2020-09-13T10:00:42Z</time>
      </trkpt>
      <trkpt lat="49.07789" lon="1.71411">
        <ele>138</ele>
        <time>2020-09-13T10:00:48Z</time>
      </trkpt>
      <trkpt lat="49.07779" lon="1.71406">
        <ele>137</ele>
        <time>2020-09-13T10:00:56Z</time>
      </trkpt>
      <trkpt lat="49.07769" lon="1.714">
        <ele>137</ele>
        <time>2020-09-13T10:01:04Z</time>
      </trkpt>
      <trkpt lat="49.07759" lon="1.71396">
        <ele>137</ele>
        <time>2020-09-13T10:01:12Z</time>
      </trkpt>
      <trkpt lat="49.07749" lon="1.7139">
        <ele>136</ele>
        <time>2020-09-13T10:01:20Z</time>
      </trkpt>
      <trkpt lat="49.07739" lon="1.71384">
        <ele>136</ele>
        <time>2020-09-13T10:01:27Z</time>
      </trkpt>
      <trkpt lat="49.07729" lon="1.7138">
        <ele>135</ele>
        <time>2020-09-13T10:01:33Z</time>
      </trkpt>
      <trkpt lat="49.0772" lon="1.71375">
        <ele>135</ele>
        <time>2020-09-13T10:01:40Z</time>
      </trkpt>
      <trkpt lat="49.07709" lon="1.71369">
        <ele>135</ele>
        <time>2020-09-13T10:01:49Z</time>
      </trkpt>
      <trkpt lat="49.07699" lon="1.71368">
        <ele>135</ele>
        <time>2020-09-13T10:01:57Z</time>
      </trkpt>
      <trkpt lat="49.07688" lon="1.71365">
        <ele>135</ele>
        <time>2020-09-13T10:02:04Z</time>
      </trkpt>
      <trkpt lat="49.07678" lon="1.71362">
        <ele>135</ele>
        <time>2020-09-13T10:02:10Z</time>
      </trkpt>
      <trkpt lat="49.07669" lon="1.71358">
        <ele>135</ele>
        <time>2020-09-13T10:02:16Z</time>
      </trkpt>
      <trkpt lat="49.07659" lon="1.71353">
        <ele>132</ele>
        <time>2020-09-13T10:02:24Z</time>
      </trkpt>
      <trkpt lat="49.0765" lon="1.71344">
        <ele>132</ele>
        <time>2020-09-13T10:02:31Z</time>
      </trkpt>
      <trkpt lat="49.0764" lon="1.71341">
        <ele>132</ele>
        <time>2020-09-13T10:02:39Z</time>
      </trkpt>
      <trkpt lat="49.0763" lon="1.71336">
        <ele>132</ele>
        <time>2020-09-13T10:02:47Z</time>
      </trkpt>
      <trkpt lat="49.0762" lon="1.71329">
        <ele>135</ele>
        <time>2020-09-13T10:02:55Z</time>
      </trkpt>
      <trkpt lat="49.07611" lon="1.71323">
        <ele>135</ele>
        <time>2020-09-13T10:03:03Z</time>
      </trkpt>
      <trkpt lat="49.07601" lon="1.71321">
        <ele>135</ele>
        <time>2020-09-13T10:03:10Z</time>
      </trkpt>
      <trkpt lat="49.0759" lon="1.71318">
        <ele>134</ele>
        <time>2020-09-13T10:03:18Z</time>
      </trkpt>
      <trkpt lat="49.0758" lon="1.71316">
        <ele>133</ele>
        <time>2020-09-13T10:03:24Z</time>
      </trkpt>
      <trkpt lat="49.0757" lon="1.71312">
        <ele>133</ele>
        <time>2020-09-13T10:03:30Z</time>
      </trkpt>
      <trkpt lat="49.07559" lon="1.71309">
        <ele>132</ele>
        <time>2020-09-13T10:03:37Z</time>
      </trkpt>
      <trkpt lat="49.07551" lon="1.71301">
        <ele>132</ele>
        <time>2020-09-13T10:03:52Z</time>
      </trkpt>
      <trkpt lat="49.07542" lon="1.71292">
        <ele>132</ele>
        <time>2020-09-13T10:04:00Z</time>
      </trkpt>
      <trkpt lat="49.07533" lon="1.71288">
        <ele>132</ele>
        <time>2020-09-13T10:04:08Z</time>
      </trkpt>
      <trkpt lat="49.07523" lon="1.71283">
        <ele>132</ele>
        <time>2020-09-13T10:04:15Z</time>
      </trkpt>
      <trkpt lat="49.07513" lon="1.7128">
        <ele>132</ele>
        <time>2020-09-13T10:04:22Z</time>
      </trkpt>
      <trkpt lat="49.07504" lon="1.71276">
        <ele>132</ele>
        <time>2020-09-13T10:04:29Z</time>
      </trkpt>
      <trkpt lat="49.07495" lon="1.71275">
        <ele>130</ele>
        <time>2020-09-13T10:04:44Z</time>
      </trkpt>
      <trkpt lat="49.07486" lon="1.71266">
        <ele>130</ele>
        <time>2020-09-13T10:04:55Z</time>
      </trkpt>
      <trkpt lat="49.07476" lon="1.7126">
        <ele>130</ele>
        <time>2020-09-13T10:05:05Z</time>
      </trkpt>
      <trkpt lat="49.07467" lon="1.71255">
        <ele>129</ele>
        <time>2020-09-13T10:05:11Z</time>
      </trkpt>
      <trkpt lat="49.07456" lon="1.7125">
        <ele>133</ele>
        <time>2020-09-13T10:05:18Z</time>
      </trkpt>
      <trkpt lat="49.07445" lon="1.71246">
        <ele>132</ele>
        <time>2020-09-13T10:05:24Z</time>
      </trkpt>
      <trkpt lat="49.07434" lon="1.71241">
        <ele>132</ele>
        <time>2020-09-13T10:05:31Z</time>
      </trkpt>
      <trkpt lat="49.07424" lon="1.71236">
        <ele>131</ele>
        <time>2020-09-13T10:05:38Z</time>
      </trkpt>
      <trkpt lat="49.07415" lon="1.71233">
        <ele>130</ele>
        <time>2020-09-13T10:05:43Z</time>
      </trkpt>
      <trkpt lat="49.07405" lon="1.71228">
        <ele>130</ele>
        <time>2020-09-13T10:05:52Z</time>
      </trkpt>
      <trkpt lat="49.07397" lon="1.7122">
        <ele>130</ele>
        <time>2020-09-13T10:06:00Z</time>
      </trkpt>
      <trkpt lat="49.07389" lon="1.71211">
        <ele>131</ele>
        <time>2020-09-13T10:06:08Z</time>
      </trkpt>
      <trkpt lat="49.07377" lon="1.71207">
        <ele>131</ele>
        <time>2020-09-13T10:06:16Z</time>
      </trkpt>
      <trkpt lat="49.07367" lon="1.712">
        <ele>131</ele>
        <time>2020-09-13T10:06:23Z</time>
      </trkpt>
      <trkpt lat="49.07357" lon="1.71195">
        <ele>131</ele>
        <time>2020-09-13T10:06:29Z</time>
      </trkpt>
      <trkpt lat="49.07348" lon="1.7119">
        <ele>131</ele>
        <time>2020-09-13T10:06:35Z</time>
      </trkpt>
      <trkpt lat="49.07337" lon="1.71187">
        <ele>131</ele>
        <time>2020-09-13T10:06:42Z</time>
      </trkpt>
      <trkpt lat="49.07327" lon="1.71183">
        <ele>129</ele>
        <time>2020-09-13T10:06:48Z</time>
      </trkpt>
      <trkpt lat="49.07316" lon="1.7118">
        <ele>128</ele>
        <time>2020-09-13T10:06:56Z</time>
      </trkpt>
      <trkpt lat="49.07306" lon="1.71179">
        <ele>128</ele>
        <time>2020-09-13T10:07:03Z</time>
      </trkpt>
      <trkpt lat="49.07297" lon="1.71174">
        <ele>127</ele>
        <time>2020-09-13T10:07:10Z</time>
      </trkpt>
      <trkpt lat="49.07286" lon="1.71168">
        <ele>127</ele>
        <time>2020-09-13T10:07:18Z</time>
      </trkpt>
      <trkpt lat="49.07276" lon="1.71162">
        <ele>128</ele>
        <time>2020-09-13T10:07:24Z</time>
      </trkpt>
      <trkpt lat="49.07267" lon="1.71157">
        <ele>127</ele>
        <time>2020-09-13T10:07:30Z</time>
      </trkpt>
      <trkpt lat="49.07257" lon="1.71152">
        <ele>127</ele>
        <time>2020-09-13T10:07:36Z</time>
      </trkpt>
      <trkpt lat="49.07249" lon="1.71148">
        <ele>125</ele>
        <time>2020-09-13T10:07:42Z</time>
      </trkpt>
      <trkpt lat="49.07239" lon="1.71142">
        <ele>125</ele>
        <time>2020-09-13T10:07:49Z</time>
      </trkpt>
      <trkpt lat="49.07231" lon="1.71137">
        <ele>126</ele>
        <time>2020-09-13T10:07:55Z</time>
      </trkpt>
      <trkpt lat="49.07221" lon="1.71132">
        <ele>126</ele>
        <time>2020-09-13T10:08:02Z</time>
      </trkpt>
      <trkpt lat="49.07212" lon="1.71126">
        <ele>126</ele>
        <time>2020-09-13T10:08:10Z</time>
      </trkpt>
      <trkpt lat="49.07203" lon="1.71118">
        <ele>126</ele>
        <time>2020-09-13T10:08:18Z</time>
      </trkpt>
      <trkpt lat="49.07193" lon="1.7111">
        <ele>126</ele>
        <time>2020-09-13T10:08:25Z</time>
      </trkpt>
      <trkpt lat="49.07183" lon="1.71107">
        <ele>126</ele>
        <time>2020-09-13T10:08:31Z</time>
      </trkpt>
      <trkpt lat="49.07174" lon="1.71104">
        <ele>125</ele>
        <time>2020-09-13T10:08:38Z</time>
      </trkpt>
      <trkpt lat="49.07163" lon="1.711">
        <ele>124</ele>
        <time>2020-09-13T10:08:46Z</time>
      </trkpt>
      <trkpt lat="49.07153" lon="1.71092">
        <ele>124</ele>
        <time>2020-09-13T10:08:54Z</time>
      </trkpt>
      <trkpt lat="49.07145" lon="1.71081">
        <ele>124</ele>
        <time>2020-09-13T10:09:02Z</time>
      </trkpt>
      <trkpt lat="49.07134" lon="1.7108">
        <ele>124</ele>
        <time>2020-09-13T10:09:10Z</time>
      </trkpt>
      <trkpt lat="49.07125" lon="1.71076">
        <ele>123</ele>
        <time>2020-09-13T10:09:17Z</time>
      </trkpt>
      <trkpt lat="49.07114" lon="1.71073">
        <ele>123</ele>
        <time>2020-09-13T10:09:24Z</time>
      </trkpt>
      <trkpt lat="49.07105" lon="1.71068">
        <ele>123</ele>
        <time>2020-09-13T10:09:30Z</time>
      </trkpt>
      <trkpt lat="49.07097" lon="1.7106">
        <ele>123</ele>
        <time>2020-09-13T10:09:36Z</time>
      </trkpt>
      <trkpt lat="49.07087" lon="1.71052">
        <ele>123</ele>
        <time>2020-09-13T10:09:44Z</time>
      </trkpt>
      <trkpt lat="49.07078" lon="1.71043">
        <ele>122</ele>
        <time>2020-09-13T10:09:52Z</time>
      </trkpt>
      <trkpt lat="49.0707" lon="1.71033">
        <ele>122</ele>
        <time>2020-09-13T10:10:00Z</time>
      </trkpt>
      <trkpt lat="49.07064" lon="1.7102">
        <ele>122</ele>
        <time>2020-09-13T10:10:09Z</time>
      </trkpt>
      <trkpt lat="49.07059" lon="1.71009">
        <ele>122</ele>
        <time>2020-09-13T10:10:20Z</time>
      </trkpt>
      <trkpt lat="49.07052" lon="1.70997">
        <ele>119</ele>
        <time>2020-09-13T10:10:27Z</time>
      </trkpt>
      <trkpt lat="49.07045" lon="1.70986">
        <ele>118</ele>
        <time>2020-09-13T10:10:34Z</time>
      </trkpt>
      <trkpt lat="49.07034" lon="1.70984">
        <ele>118</ele>
        <time>2020-09-13T10:10:42Z</time>
      </trkpt>
      <trkpt lat="49.07023" lon="1.70981">
        <ele>117</ele>
        <time>2020-09-13T10:10:51Z</time>
      </trkpt>
      <trkpt lat="49.07015" lon="1.70972">
        <ele>117</ele>
        <time>2020-09-13T10:10:57Z</time>
      </trkpt>
      <trkpt lat="49.07007" lon="1.70966">
        <ele>117</ele>
        <time>2020-09-13T10:11:05Z</time>
      </trkpt>
      <trkpt lat="49.06997" lon="1.70965">
        <ele>115</ele>
        <time>2020-09-13T10:11:14Z</time>
      </trkpt>
      <trkpt lat="49.06987" lon="1.70959">
        <ele>115</ele>
        <time>2020-09-13T10:11:41Z</time>
      </trkpt>
      <trkpt lat="49.0698" lon="1.70949">
        <ele>114</ele>
        <time>2020-09-13T10:11:52Z</time>
      </trkpt>
      <trkpt lat="49.06973" lon="1.70937">
        <ele>113</ele>
        <time>2020-09-13T10:12:31Z</time>
      </trkpt>
      <trkpt lat="49.06962" lon="1.70926">
        <ele>113</ele>
        <time>2020-09-13T10:13:11Z</time>
      </trkpt>
      <trkpt lat="49.06961" lon="1.70913">
        <ele>106</ele>
        <time>2020-09-13T10:15:27Z</time>
      </trkpt>
      <trkpt lat="49.06954" lon="1.70902">
        <ele>106</ele>
        <time>2020-09-13T10:15:54Z</time>
      </trkpt>
      <trkpt lat="49.06946" lon="1.70892">
        <ele>105</ele>
        <time>2020-09-13T10:16:04Z</time>
      </trkpt>
      <trkpt lat="49.06937" lon="1.70883">
        <ele>104</ele>
        <time>2020-09-13T10:16:13Z</time>
      </trkpt>
      <trkpt lat="49.06929" lon="1.70873">
        <ele>103</ele>
        <time>2020-09-13T10:16:21Z</time>
      </trkpt>
      <trkpt lat="49.06921" lon="1.70863">
        <ele>102</ele>
        <time>2020-09-13T10:16:28Z</time>
      </trkpt>
      <trkpt lat="49.06911" lon="1.70855">
        <ele>99</ele>
        <time>2020-09-13T10:16:36Z</time>
      </trkpt>
      <trkpt lat="49.06904" lon="1.70846">
        <ele>99</ele>
        <time>2020-09-13T10:16:44Z</time>
      </trkpt>
      <trkpt lat="49.06896" lon="1.70835">
        <ele>98</ele>
        <time>2020-09-13T10:16:52Z</time>
      </trkpt>
      <trkpt lat="49.06888" lon="1.70826">
        <ele>92</ele>
        <time>2020-09-13T10:17:01Z</time>
      </trkpt>
      <trkpt lat="49.06878" lon="1.70819">
        <ele>91</ele>
        <time>2020-09-13T10:17:09Z</time>
      </trkpt>
      <trkpt lat="49.06869" lon="1.70812">
        <ele>91</ele>
        <time>2020-09-13T10:17:16Z</time>
      </trkpt>
      <trkpt lat="49.06859" lon="1.70805">
        <ele>90</ele>
        <time>2020-09-13T10:17:23Z</time>
      </trkpt>
      <trkpt lat="49.06852" lon="1.70794">
        <ele>89</ele>
        <time>2020-09-13T10:17:31Z</time>
      </trkpt>
      <trkpt lat="49.06844" lon="1.70786">
        <ele>89</ele>
        <time>2020-09-13T10:17:38Z</time>
      </trkpt>
      <trkpt lat="49.06835" lon="1.70778">
        <ele>88</ele>
        <time>2020-09-13T10:17:46Z</time>
      </trkpt>
      <trkpt lat="49.06828" lon="1.70767">
        <ele>84</ele>
        <time>2020-09-13T10:17:54Z</time>
      </trkpt>
      <trkpt lat="49.06819" lon="1.70759">
        <ele>84</ele>
        <time>2020-09-13T10:18:02Z</time>
      </trkpt>
      <trkpt lat="49.06811" lon="1.70748">
        <ele>80</ele>
        <time>2020-09-13T10:18:10Z</time>
      </trkpt>
      <trkpt lat="49.06803" lon="1.70739">
        <ele>79</ele>
        <time>2020-09-13T10:18:18Z</time>
      </trkpt>
      <trkpt lat="49.06794" lon="1.70731">
        <ele>78</ele>
        <time>2020-09-13T10:18:27Z</time>
      </trkpt>
      <trkpt lat="49.06784" lon="1.70725">
        <ele>78</ele>
        <time>2020-09-13T10:18:35Z</time>
      </trkpt>
      <trkpt lat="49.06775" lon="1.70719">
        <ele>78</ele>
        <time>2020-09-13T10:18:42Z</time>
      </trkpt>
      <trkpt lat="49.06767" lon="1.70709">
        <ele>77</ele>
        <time>2020-09-13T10:18:54Z</time>
      </trkpt>
      <trkpt lat="49.06759" lon="1.70702">
        <ele>76</ele>
        <time>2020-09-13T10:19:02Z</time>
      </trkpt>
      <trkpt lat="49.06751" lon="1.70695">
        <ele>76</ele>
        <time>2020-09-13T10:19:09Z</time>
      </trkpt>
      <trkpt lat="49.06743" lon="1.70685">
        <ele>72</ele>
        <time>2020-09-13T10:19:18Z</time>
      </trkpt>
      <trkpt lat="49.06734" lon="1.70677">
        <ele>72</ele>
        <time>2020-09-13T10:19:24Z</time>
      </trkpt>
      <trkpt lat="49.06726" lon="1.70668">
        <ele>72</ele>
        <time>2020-09-13T10:19:30Z</time>
      </trkpt>
      <trkpt lat="49.06717" lon="1.70659">
        <ele>66</ele>
        <time>2020-09-13T10:19:38Z</time>
      </trkpt>
      <trkpt lat="49.06708" lon="1.70656">
        <ele>66</ele>
        <time>2020-09-13T10:19:46Z</time>
      </trkpt>
      <trkpt lat="49.06699" lon="1.70649">
        <ele>65</ele>
        <time>2020-09-13T10:19:57Z</time>
      </trkpt>
      <trkpt lat="49.06691" lon="1.70641">
        <ele>64</ele>
        <time>2020-09-13T10:20:05Z</time>
      </trkpt>
      <trkpt lat="49.06681" lon="1.70631">
        <ele>64</ele>
        <time>2020-09-13T10:20:12Z</time>
      </trkpt>
      <trkpt lat="49.0667" lon="1.70625">
        <ele>63</ele>
        <time>2020-09-13T10:20:18Z</time>
      </trkpt>
      <trkpt lat="49.0666" lon="1.70622">
        <ele>58</ele>
        <time>2020-09-13T10:20:25Z</time>
      </trkpt>
      <trkpt lat="49.06649" lon="1.70622">
        <ele>58</ele>
        <time>2020-09-13T10:20:33Z</time>
      </trkpt>
      <trkpt lat="49.06636" lon="1.70625">
        <ele>57</ele>
        <time>2020-09-13T10:20:51Z</time>
      </trkpt>
      <trkpt lat="49.06627" lon="1.70628">
        <ele>56</ele>
        <time>2020-09-13T10:21:00Z</time>
      </trkpt>
      <trkpt lat="49.06616" lon="1.70628">
        <ele>56</ele>
        <time>2020-09-13T10:21:11Z</time>
      </trkpt>
      <trkpt lat="49.06608" lon="1.70634">
        <ele>55</ele>
        <time>2020-09-13T10:21:23Z</time>
      </trkpt>
      <trkpt lat="49.06599" lon="1.7064">
        <ele>55</ele>
        <time>2020-09-13T10:21:37Z</time>
      </trkpt>
      <trkpt lat="49.06588" lon="1.70644">
        <ele>54</ele>
        <time>2020-09-13T10:21:44Z</time>
      </trkpt>
      <trkpt lat="49.06579" lon="1.70649">
        <ele>48</ele>
        <time>2020-09-13T10:21:50Z</time>
      </trkpt>
      <trkpt lat="49.06573" lon="1.70659">
        <ele>48</ele>
        <time>2020-09-13T10:21:57Z</time>
      </trkpt>
      <trkpt lat="49.0657" lon="1.70675">
        <ele>48</ele>
        <time>2020-09-13T10:22:07Z</time>
      </trkpt>
      <trkpt lat="49.06573" lon="1.7069">
        <ele>47</ele>
        <time>2020-09-13T10:22:15Z</time>
      </trkpt>
      <trkpt lat="49.06576" lon="1.70705">
        <ele>47</ele>
        <time>2020-09-13T10:22:23Z</time>
      </trkpt>
      <trkpt lat="49.06578" lon="1.70719">
        <ele>48</ele>
        <time>2020-09-13T10:22:31Z</time>
      </trkpt>
      <trkpt lat="49.06579" lon="1.70734">
        <ele>49</ele>
        <time>2020-09-13T10:22:39Z</time>
      </trkpt>
      <trkpt lat="49.06582" lon="1.70749">
        <ele>53</ele>
        <time>2020-09-13T10:22:47Z</time>
      </trkpt>
      <trkpt lat="49.06585" lon="1.70766">
        <ele>58</ele>
        <time>2020-09-13T10:22:55Z</time>
      </trkpt>
      <trkpt lat="49.06587" lon="1.70782">
        <ele>60</ele>
        <time>2020-09-13T10:23:03Z</time>
      </trkpt>
      <trkpt lat="49.06588" lon="1.70796">
        <ele>60</ele>
        <time>2020-09-13T10:23:11Z</time>
      </trkpt>
      <trkpt lat="49.06589" lon="1.70813">
        <ele>59</ele>
        <time>2020-09-13T10:23:19Z</time>
      </trkpt>
      <trkpt lat="49.06591" lon="1.70828">
        <ele>57</ele>
        <time>2020-09-13T10:23:27Z</time>
      </trkpt>
      <trkpt lat="49.06593" lon="1.70842">
        <ele>59</ele>
        <time>2020-09-13T10:23:34Z</time>
      </trkpt>
      <trkpt lat="49.06595" lon="1.70857">
        <ele>61</ele>
        <time>2020-09-13T10:23:42Z</time>
      </trkpt>
      <trkpt lat="49.06598" lon="1.70873">
        <ele>62</ele>
        <time>2020-09-13T10:23:50Z</time>
      </trkpt>
      <trkpt lat="49.06602" lon="1.70888">
        <ele>62</ele>
        <time>2020-09-13T10:23:58Z</time>
      </trkpt>
      <trkpt lat="49.06601" lon="1.70904">
        <ele>61</ele>
        <time>2020-09-13T10:24:06Z</time>
      </trkpt>
      <trkpt lat="49.06601" lon="1.70919">
        <ele>61</ele>
        <time>2020-09-13T10:24:15Z</time>
      </trkpt>
      <trkpt lat="49.06606" lon="1.70931">
        <ele>63</ele>
        <time>2020-09-13T10:24:21Z</time>
      </trkpt>
      <trkpt lat="49.06609" lon="1.70945">
        <ele>64</ele>
        <time>2020-09-13T10:24:29Z</time>
      </trkpt>
      <trkpt lat="49.06614" lon="1.7096">
        <ele>65</ele>
        <time>2020-09-13T10:24:37Z</time>
      </trkpt>
      <trkpt lat="49.06619" lon="1.70971">
        <ele>65</ele>
        <time>2020-09-13T10:24:44Z</time>
      </trkpt>
      <trkpt lat="49.06625" lon="1.70984">
        <ele>66</ele>
        <time>2020-09-13T10:24:53Z</time>
      </trkpt>
      <trkpt lat="49.06632" lon="1.70993">
        <ele>67</ele>
        <time>2020-09-13T10:25:00Z</time>
      </trkpt>
      <trkpt lat="49.06635" lon="1.71007">
        <ele>67</ele>
        <time>2020-09-13T10:25:07Z</time>
      </trkpt>
      <trkpt lat="49.06637" lon="1.7102">
        <ele>67</ele>
        <time>2020-09-13T10:25:13Z</time>
      </trkpt>
      <trkpt lat="49.06641" lon="1.71036">
        <ele>67</ele>
        <time>2020-09-13T10:25:21Z</time>
      </trkpt>
      <trkpt lat="49.06644" lon="1.71051">
        <ele>68</ele>
        <time>2020-09-13T10:25:28Z</time>
      </trkpt>
      <trkpt lat="49.06645" lon="1.71068">
        <ele>68</ele>
        <time>2020-09-13T10:25:35Z</time>
      </trkpt>
      <trkpt lat="49.06649" lon="1.71087">
        <ele>69</ele>
        <time>2020-09-13T10:25:46Z</time>
      </trkpt>
      <trkpt lat="49.06651" lon="1.71102">
        <ele>68</ele>
        <time>2020-09-13T10:25:52Z</time>
      </trkpt>
      <trkpt lat="49.06653" lon="1.71118">
        <ele>67</ele>
        <time>2020-09-13T10:26:00Z</time>
      </trkpt>
      <trkpt lat="49.06654" lon="1.71134">
        <ele>67</ele>
        <time>2020-09-13T10:26:08Z</time>
      </trkpt>
      <trkpt lat="49.06654" lon="1.7115">
        <ele>68</ele>
        <time>2020-09-13T10:26:16Z</time>
      </trkpt>
      <trkpt lat="49.06659" lon="1.71163">
        <ele>70</ele>
        <time>2020-09-13T10:26:22Z</time>
      </trkpt>
      <trkpt lat="49.06661" lon="1.71178">
        <ele>68</ele>
        <time>2020-09-13T10:26:29Z</time>
      </trkpt>
      <trkpt lat="49.06665" lon="1.71194">
        <ele>66</ele>
        <time>2020-09-13T10:26:37Z</time>
      </trkpt>
      <trkpt lat="49.0667" lon="1.71207">
        <ele>78</ele>
        <time>2020-09-13T10:26:43Z</time>
      </trkpt>
      <trkpt lat="49.06674" lon="1.71223">
        <ele>77</ele>
        <time>2020-09-13T10:26:51Z</time>
      </trkpt>
      <trkpt lat="49.06676" lon="1.71238">
        <ele>75</ele>
        <time>2020-09-13T10:26:58Z</time>
      </trkpt>
      <trkpt lat="49.06678" lon="1.71255">
        <ele>74</ele>
        <time>2020-09-13T10:27:18Z</time>
      </trkpt>
      <trkpt lat="49.0668" lon="1.7127">
        <ele>75</ele>
        <time>2020-09-13T10:27:25Z</time>
      </trkpt>
      <trkpt lat="49.06687" lon="1.71284">
        <ele>76</ele>
        <time>2020-09-13T10:27:31Z</time>
      </trkpt>
      <trkpt lat="49.06691" lon="1.71299">
        <ele>75</ele>
        <time>2020-09-13T10:27:38Z</time>
      </trkpt>
      <trkpt lat="49.06697" lon="1.71313">
        <ele>75</ele>
        <time>2020-09-13T10:27:45Z</time>
      </trkpt>
      <trkpt lat="49.06702" lon="1.71326">
        <ele>76</ele>
        <time>2020-09-13T10:27:53Z</time>
      </trkpt>
      <trkpt lat="49.06708" lon="1.71339">
        <ele>72</ele>
        <time>2020-09-13T10:28:00Z</time>
      </trkpt>
      <trkpt lat="49.06712" lon="1.71353">
        <ele>72</ele>
        <time>2020-09-13T10:28:07Z</time>
      </trkpt>
      <trkpt lat="49.06718" lon="1.71365">
        <ele>72</ele>
        <time>2020-09-13T10:28:14Z</time>
      </trkpt>
      <trkpt lat="49.06723" lon="1.71378">
        <ele>72</ele>
        <time>2020-09-13T10:28:22Z</time>
      </trkpt>
      <trkpt lat="49.06729" lon="1.7139">
        <ele>72</ele>
        <time>2020-09-13T10:28:28Z</time>
      </trkpt>
      <trkpt lat="49.06733" lon="1.71405">
        <ele>72</ele>
        <time>2020-09-13T10:28:36Z</time>
      </trkpt>
      <trkpt lat="49.0674" lon="1.71418">
        <ele>71</ele>
        <time>2020-09-13T10:28:45Z</time>
      </trkpt>
      <trkpt lat="49.06748" lon="1.71429">
        <ele>71</ele>
        <time>2020-09-13T10:28:51Z</time>
      </trkpt>
      <trkpt lat="49.06755" lon="1.71439">
        <ele>75</ele>
        <time>2020-09-13T10:28:58Z</time>
      </trkpt>
      <trkpt lat="49.06763" lon="1.71449">
        <ele>75</ele>
        <time>2020-09-13T10:29:05Z</time>
      </trkpt>
      <trkpt lat="49.06771" lon="1.71458">
        <ele>75</ele>
        <time>2020-09-13T10:29:14Z</time>
      </trkpt>
      <trkpt lat="49.06779" lon="1.71467">
        <ele>75</ele>
        <time>2020-09-13T10:29:59Z</time>
      </trkpt>
      <trkpt lat="49.06782" lon="1.71482">
        <ele>74</ele>
        <time>2020-09-13T10:30:08Z</time>
      </trkpt>
      <trkpt lat="49.06778" lon="1.71496">
        <ele>73</ele>
        <time>2020-09-13T10:30:18Z</time>
      </trkpt>
      <trkpt lat="49.06772" lon="1.71511">
        <ele>69</ele>
        <time>2020-09-13T10:30:26Z</time>
      </trkpt>
      <trkpt lat="49.06765" lon="1.71521">
        <ele>69</ele>
        <time>2020-09-13T10:30:34Z</time>
      </trkpt>
      <trkpt lat="49.06756" lon="1.7153">
        <ele>68</ele>
        <time>2020-09-13T10:30:41Z</time>
      </trkpt>
      <trkpt lat="49.06749" lon="1.71541">
        <ele>63</ele>
        <time>2020-09-13T10:30:49Z</time>
      </trkpt>
      <trkpt lat="49.06741" lon="1.71553">
        <ele>62</ele>
        <time>2020-09-13T10:30:57Z</time>
      </trkpt>
      <trkpt lat="49.06733" lon="1.71567">
        <ele>62</ele>
        <time>2020-09-13T10:31:03Z</time>
      </trkpt>
      <trkpt lat="49.06727" lon="1.71577">
        <ele>62</ele>
        <time>2020-09-13T10:31:10Z</time>
      </trkpt>
      <trkpt lat="49.06719" lon="1.71588">
        <ele>58</ele>
        <time>2020-09-13T10:31:18Z</time>
      </trkpt>
      <trkpt lat="49.0671" lon="1.71594">
        <ele>58</ele>
        <time>2020-09-13T10:31:24Z</time>
      </trkpt>
      <trkpt lat="49.067" lon="1.71599">
        <ele>57</ele>
        <time>2020-09-13T10:31:32Z</time>
      </trkpt>
      <trkpt lat="49.06691" lon="1.71605">
        <ele>57</ele>
        <time>2020-09-13T10:31:39Z</time>
      </trkpt>
      <trkpt lat="49.06682" lon="1.71613">
        <ele>56</ele>
        <time>2020-09-13T10:31:46Z</time>
      </trkpt>
      <trkpt lat="49.06674" lon="1.71622">
        <ele>56</ele>
        <time>2020-09-13T10:31:54Z</time>
      </trkpt>
      <trkpt lat="49.06666" lon="1.71632">
        <ele>52</ele>
        <time>2020-09-13T10:32:03Z</time>
      </trkpt>
      <trkpt lat="49.06662" lon="1.71645">
        <ele>52</ele>
        <time>2020-09-13T10:32:09Z</time>
      </trkpt>
      <trkpt lat="49.06663" lon="1.7166">
        <ele>51</ele>
        <time>2020-09-13T10:32:15Z</time>
      </trkpt>
      <trkpt lat="49.06666" lon="1.71676">
        <ele>51</ele>
        <time>2020-09-13T10:32:22Z</time>
      </trkpt>
      <trkpt lat="49.06668" lon="1.71691">
        <ele>52</ele>
        <time>2020-09-13T10:32:29Z</time>
      </trkpt>
      <trkpt lat="49.06665" lon="1.71706">
        <ele>50</ele>
        <time>2020-09-13T10:32:37Z</time>
      </trkpt>
      <trkpt lat="49.06666" lon="1.71722">
        <ele>50</ele>
        <time>2020-09-13T10:32:44Z</time>
      </trkpt>
      <trkpt lat="49.06662" lon="1.71736">
        <ele>50</ele>
        <time>2020-09-13T10:32:51Z</time>
      </trkpt>
      <trkpt lat="49.06662" lon="1.7175">
        <ele>50</ele>
        <time>2020-09-13T10:32:58Z</time>
      </trkpt>
      <trkpt lat="49.0666" lon="1.71765">
        <ele>50</ele>
        <time>2020-09-13T10:33:06Z</time>
      </trkpt>
      <trkpt lat="49.06653" lon="1.71774">
        <ele>50</ele>
        <time>2020-09-13T10:34:16Z</time>
      </trkpt>
      <trkpt lat="49.06644" lon="1.71773">
        <ele>50</ele>
        <time>2020-09-13T10:36:01Z</time>
      </trkpt>
      <trkpt lat="49.06635" lon="1.71766">
        <ele>50</ele>
        <time>2020-09-13T10:36:15Z</time>
      </trkpt>
      <trkpt lat="49.06628" lon="1.71758">
        <ele>50</ele>
        <time>2020-09-13T10:36:21Z</time>
      </trkpt>
      <trkpt lat="49.06621" lon="1.71747">
        <ele>49</ele>
        <time>2020-09-13T10:36:29Z</time>
      </trkpt>
      <trkpt lat="49.06612" lon="1.7174">
        <ele>49</ele>
        <time>2020-09-13T10:36:39Z</time>
      </trkpt>
      <trkpt lat="49.06603" lon="1.71731">
        <ele>49</ele>
        <time>2020-09-13T10:36:47Z</time>
      </trkpt>
      <trkpt lat="49.06594" lon="1.71724">
        <ele>49</ele>
        <time>2020-09-13T10:36:54Z</time>
      </trkpt>
      <trkpt lat="49.06585" lon="1.71714">
        <ele>49</ele>
        <time>2020-09-13T10:37:00Z</time>
      </trkpt>
      <trkpt lat="49.06577" lon="1.71704">
        <ele>51</ele>
        <time>2020-09-13T10:37:08Z</time>
      </trkpt>
      <trkpt lat="49.06569" lon="1.71694">
        <ele>51</ele>
        <time>2020-09-13T10:37:17Z</time>
      </trkpt>
      <trkpt lat="49.06562" lon="1.71685">
        <ele>51</ele>
        <time>2020-09-13T10:37:25Z</time>
      </trkpt>
      <trkpt lat="49.06554" lon="1.71676">
        <ele>51</ele>
        <time>2020-09-13T10:37:34Z</time>
      </trkpt>
      <trkpt lat="49.06547" lon="1.71666">
        <ele>51</ele>
        <time>2020-09-13T10:37:42Z</time>
      </trkpt>
      <trkpt lat="49.06538" lon="1.71655">
        <ele>51</ele>
        <time>2020-09-13T10:37:50Z</time>
      </trkpt>
      <trkpt lat="49.06529" lon="1.71648">
        <ele>52</ele>
        <time>2020-09-13T10:37:59Z</time>
      </trkpt>
      <trkpt lat="49.06522" lon="1.71638">
        <ele>52</ele>
        <time>2020-09-13T10:38:31Z</time>
      </trkpt>
      <trkpt lat="49.06515" lon="1.7163">
        <ele>52</ele>
        <time>2020-09-13T10:38:39Z</time>
      </trkpt>
      <trkpt lat="49.06506" lon="1.71623">
        <ele>51</ele>
        <time>2020-09-13T10:38:47Z</time>
      </trkpt>
      <trkpt lat="49.06498" lon="1.71611">
        <ele>53</ele>
        <time>2020-09-13T10:38:56Z</time>
      </trkpt>
      <trkpt lat="49.06489" lon="1.71607">
        <ele>53</ele>
        <time>2020-09-13T10:39:02Z</time>
      </trkpt>
      <trkpt lat="49.0648" lon="1.71601">
        <ele>53</ele>
        <time>2020-09-13T10:39:10Z</time>
      </trkpt>
      <trkpt lat="49.0647" lon="1.71597">
        <ele>53</ele>
        <time>2020-09-13T10:39:20Z</time>
      </trkpt>
      <trkpt lat="49.0646" lon="1.71599">
        <ele>53</ele>
        <time>2020-09-13T10:39:28Z</time>
      </trkpt>
      <trkpt lat="49.0645" lon="1.71601">
        <ele>53</ele>
        <time>2020-09-13T10:39:36Z</time>
      </trkpt>
      <trkpt lat="49.06443" lon="1.7161">
        <ele>54</ele>
        <time>2020-09-13T10:40:04Z</time>
      </trkpt>
      <trkpt lat="49.06436" lon="1.71597">
        <ele>53</ele>
        <time>2020-09-13T10:40:17Z</time>
      </trkpt>
      <trkpt lat="49.06433" lon="1.71584">
        <ele>53</ele>
        <time>2020-09-13T10:40:25Z</time>
      </trkpt>
      <trkpt lat="49.0643" lon="1.71567">
        <ele>50</ele>
        <time>2020-09-13T10:40:33Z</time>
      </trkpt>
      <trkpt lat="49.06425" lon="1.71554">
        <ele>50</ele>
        <time>2020-09-13T10:40:41Z</time>
      </trkpt>
      <trkpt lat="49.06423" lon="1.71539">
        <ele>49</ele>
        <time>2020-09-13T10:40:49Z</time>
      </trkpt>
      <trkpt lat="49.0643" lon="1.71548">
        <ele>50</ele>
        <time>2020-09-13T10:41:57Z</time>
      </trkpt>
      <trkpt lat="49.06434" lon="1.71561">
        <ele>50</ele>
        <time>2020-09-13T10:42:14Z</time>
      </trkpt>
      <trkpt lat="49.06444" lon="1.71554">
        <ele>50</ele>
        <time>2020-09-13T10:46:22Z</time>
      </trkpt>
      <trkpt lat="49.06453" lon="1.71554">
        <ele>49</ele>
        <time>2020-09-13T10:46:37Z</time>
      </trkpt>
      <trkpt lat="49.06464" lon="1.71542">
        <ele>49</ele>
        <time>2020-09-13T11:39:47Z</time>
      </trkpt>
      <trkpt lat="49.0646" lon="1.71555">
        <ele>49</ele>
        <time>2020-09-13T11:55:54Z</time>
      </trkpt>
      <trkpt lat="49.06452" lon="1.71562">
        <ele>50</ele>
        <time>2020-09-13T11:56:35Z</time>
      </trkpt>
      <trkpt lat="49.06442" lon="1.71563">
        <ele>50</ele>
        <time>2020-09-13T11:56:51Z</time>
      </trkpt>
      <trkpt lat="49.0643" lon="1.71558">
        <ele>50</ele>
        <time>2020-09-13T12:02:09Z</time>
      </trkpt>
      <trkpt lat="49.0643" lon="1.71572">
        <ele>51</ele>
        <time>2020-09-13T12:02:26Z</time>
      </trkpt>
      <trkpt lat="49.06438" lon="1.71563">
        <ele>50</ele>
        <time>2020-09-13T12:04:03Z</time>
      </trkpt>
      <trkpt lat="49.06429" lon="1.7155">
        <ele>50</ele>
        <time>2020-09-13T12:04:41Z</time>
      </trkpt>
      <trkpt lat="49.0642" lon="1.71546">
        <ele>50</ele>
        <time>2020-09-13T12:04:50Z</time>
      </trkpt>
      <trkpt lat="49.06428" lon="1.71574">
        <ele>51</ele>
        <time>2020-09-13T12:08:57Z</time>
      </trkpt>
      <trkpt lat="49.0643" lon="1.71594">
        <ele>53</ele>
        <time>2020-09-13T12:09:31Z</time>
      </trkpt>
      <trkpt lat="49.06434" lon="1.71608">
        <ele>54</ele>
        <time>2020-09-13T12:09:57Z</time>
      </trkpt>
      <trkpt lat="49.06429" lon="1.71626">
        <ele>55</ele>
        <time>2020-09-13T12:10:15Z</time>
      </trkpt>
      <trkpt lat="49.06426" lon="1.71641">
        <ele>56</ele>
        <time>2020-09-13T12:10:29Z</time>
      </trkpt>
      <trkpt lat="49.06425" lon="1.71657">
        <ele>57</ele>
        <time>2020-09-13T12:10:39Z</time>
      </trkpt>
      <trkpt lat="49.06425" lon="1.71673">
        <ele>59</ele>
        <time>2020-09-13T12:10:49Z</time>
      </trkpt>
      <trkpt lat="49.06429" lon="1.71677">
        <ele>59</ele>
        <time>2020-09-13T12:13:20Z</time>
      </trkpt>
      <trkpt lat="49.0644" lon="1.71686">
        <ele>60</ele>
        <time>2020-09-13T12:13:35Z</time>
      </trkpt>
      <trkpt lat="49.06446" lon="1.71697">
        <ele>60</ele>
        <time>2020-09-13T12:13:45Z</time>
      </trkpt>
      <trkpt lat="49.06447" lon="1.71713">
        <ele>60</ele>
        <time>2020-09-13T12:13:53Z</time>
      </trkpt>
      <trkpt lat="49.06452" lon="1.71727">
        <ele>61</ele>
        <time>2020-09-13T12:14:02Z</time>
      </trkpt>
      <trkpt lat="49.06454" lon="1.71741">
        <ele>61</ele>
        <time>2020-09-13T12:14:11Z</time>
      </trkpt>
      <trkpt lat="49.06455" lon="1.71756">
        <ele>64</ele>
        <time>2020-09-13T12:14:19Z</time>
      </trkpt>
      <trkpt lat="49.06459" lon="1.71769">
        <ele>64</ele>
        <time>2020-09-13T12:14:28Z</time>
      </trkpt>
      <trkpt lat="49.06467" lon="1.71783">
        <ele>64</ele>
        <time>2020-09-13T12:14:34Z</time>
      </trkpt>
      <trkpt lat="49.06478" lon="1.71793">
        <ele>63</ele>
        <time>2020-09-13T12:14:40Z</time>
      </trkpt>
      <trkpt lat="49.06485" lon="1.71803">
        <ele>63</ele>
        <time>2020-09-13T12:14:45Z</time>
      </trkpt>
      <trkpt lat="49.06491" lon="1.71816">
        <ele>63</ele>
        <time>2020-09-13T12:14:52Z</time>
      </trkpt>
      <trkpt lat="49.06494" lon="1.7183">
        <ele>62</ele>
        <time>2020-09-13T12:15:01Z</time>
      </trkpt>
      <trkpt lat="49.065" lon="1.71843">
        <ele>63</ele>
        <time>2020-09-13T12:15:08Z</time>
      </trkpt>
      <trkpt lat="49.06502" lon="1.71857">
        <ele>58</ele>
        <time>2020-09-13T12:15:15Z</time>
      </trkpt>
      <trkpt lat="49.06503" lon="1.71872">
        <ele>58</ele>
        <time>2020-09-13T12:15:22Z</time>
      </trkpt>
      <trkpt lat="49.06507" lon="1.71893">
        <ele>59</ele>
        <time>2020-09-13T12:15:35Z</time>
      </trkpt>
      <trkpt lat="49.06511" lon="1.7191">
        <ele>60</ele>
        <time>2020-09-13T12:15:43Z</time>
      </trkpt>
      <trkpt lat="49.06513" lon="1.71927">
        <ele>60</ele>
        <time>2020-09-13T12:15:52Z</time>
      </trkpt>
      <trkpt lat="49.06515" lon="1.71944">
        <ele>59</ele>
        <time>2020-09-13T12:15:57Z</time>
      </trkpt>
      <trkpt lat="49.06516" lon="1.71959">
        <ele>59</ele>
        <time>2020-09-13T12:16:07Z</time>
      </trkpt>
      <trkpt lat="49.06513" lon="1.71973">
        <ele>59</ele>
        <time>2020-09-13T12:16:15Z</time>
      </trkpt>
      <trkpt lat="49.0651" lon="1.71986">
        <ele>60</ele>
        <time>2020-09-13T12:16:29Z</time>
      </trkpt>
      <trkpt lat="49.06513" lon="1.72">
        <ele>61</ele>
        <time>2020-09-13T12:16:43Z</time>
      </trkpt>
      <trkpt lat="49.06511" lon="1.72015">
        <ele>60</ele>
        <time>2020-09-13T12:16:50Z</time>
      </trkpt>
      <trkpt lat="49.06511" lon="1.7203">
        <ele>60</ele>
        <time>2020-09-13T12:16:56Z</time>
      </trkpt>
      <trkpt lat="49.06508" lon="1.72045">
        <ele>60</ele>
        <time>2020-09-13T12:17:04Z</time>
      </trkpt>
      <trkpt lat="49.06506" lon="1.7206">
        <ele>60</ele>
        <time>2020-09-13T12:17:12Z</time>
      </trkpt>
      <trkpt lat="49.06504" lon="1.72075">
        <ele>61</ele>
        <time>2020-09-13T12:17:19Z</time>
      </trkpt>
      <trkpt lat="49.065" lon="1.72088">
        <ele>64</ele>
        <time>2020-09-13T12:17:28Z</time>
      </trkpt>
      <trkpt lat="49.06497" lon="1.72103">
        <ele>67</ele>
        <time>2020-09-13T12:17:36Z</time>
      </trkpt>
      <trkpt lat="49.06497" lon="1.72119">
        <ele>68</ele>
        <time>2020-09-13T12:17:45Z</time>
      </trkpt>
      <trkpt lat="49.06497" lon="1.72134">
        <ele>68</ele>
        <time>2020-09-13T12:17:55Z</time>
      </trkpt>
      <trkpt lat="49.06498" lon="1.7215">
        <ele>66</ele>
        <time>2020-09-13T12:18:04Z</time>
      </trkpt>
      <trkpt lat="49.065" lon="1.72164">
        <ele>62</ele>
        <time>2020-09-13T12:18:11Z</time>
      </trkpt>
      <trkpt lat="49.06498" lon="1.72178">
        <ele>65</ele>
        <time>2020-09-13T12:18:21Z</time>
      </trkpt>
      <trkpt lat="49.06495" lon="1.72193">
        <ele>68</ele>
        <time>2020-09-13T12:18:30Z</time>
      </trkpt>
      <trkpt lat="49.06497" lon="1.72208">
        <ele>69</ele>
        <time>2020-09-13T12:18:39Z</time>
      </trkpt>
      <trkpt lat="49.06498" lon="1.72222">
        <ele>69</ele>
        <time>2020-09-13T12:18:49Z</time>
      </trkpt>
      <trkpt lat="49.06498" lon="1.72239">
        <ele>67</ele>
        <time>2020-09-13T12:18:57Z</time>
      </trkpt>
      <trkpt lat="49.06497" lon="1.72255">
        <ele>67</ele>
        <time>2020-09-13T12:19:05Z</time>
      </trkpt>
      <trkpt lat="49.06498" lon="1.72273">
        <ele>70</ele>
        <time>2020-09-13T12:19:13Z</time>
      </trkpt>
      <trkpt lat="49.06501" lon="1.7229">
        <ele>63</ele>
        <time>2020-09-13T12:19:21Z</time>
      </trkpt>
      <trkpt lat="49.06505" lon="1.72307">
        <ele>63</ele>
        <time>2020-09-13T12:19:29Z</time>
      </trkpt>
      <trkpt lat="49.06507" lon="1.72322">
        <ele>64</ele>
        <time>2020-09-13T12:19:37Z</time>
      </trkpt>
      <trkpt lat="49.0651" lon="1.72337">
        <ele>66</ele>
        <time>2020-09-13T12:19:44Z</time>
      </trkpt>
      <trkpt lat="49.06512" lon="1.72353">
        <ele>66</ele>
        <time>2020-09-13T12:19:50Z</time>
      </trkpt>
      <trkpt lat="49.06512" lon="1.72369">
        <ele>66</ele>
        <time>2020-09-13T12:19:59Z</time>
      </trkpt>
      <trkpt lat="49.06513" lon="1.72385">
        <ele>66</ele>
        <time>2020-09-13T12:20:06Z</time>
      </trkpt>
      <trkpt lat="49.06512" lon="1.724">
        <ele>67</ele>
        <time>2020-09-13T12:20:13Z</time>
      </trkpt>
      <trkpt lat="49.06509" lon="1.72414">
        <ele>67</ele>
        <time>2020-09-13T12:20:21Z</time>
      </trkpt>
      <trkpt lat="49.06506" lon="1.72429">
        <ele>68</ele>
        <time>2020-09-13T12:20:29Z</time>
      </trkpt>
      <trkpt lat="49.06504" lon="1.72444">
        <ele>69</ele>
        <time>2020-09-13T12:20:37Z</time>
      </trkpt>
      <trkpt lat="49.06506" lon="1.72458">
        <ele>69</ele>
        <time>2020-09-13T12:20:45Z</time>
      </trkpt>
      <trkpt lat="49.06505" lon="1.72474">
        <ele>69</ele>
        <time>2020-09-13T12:20:53Z</time>
      </trkpt>
      <trkpt lat="49.06503" lon="1.72489">
        <ele>70</ele>
        <time>2020-09-13T12:21:01Z</time>
      </trkpt>
      <trkpt lat="49.06503" lon="1.72504">
        <ele>71</ele>
        <time>2020-09-13T12:21:09Z</time>
      </trkpt>
      <trkpt lat="49.06502" lon="1.7252">
        <ele>70</ele>
        <time>2020-09-13T12:21:17Z</time>
      </trkpt>
      <trkpt lat="49.06498" lon="1.72533">
        <ele>78</ele>
        <time>2020-09-13T12:21:27Z</time>
      </trkpt>
      <trkpt lat="49.06497" lon="1.72549">
        <ele>78</ele>
        <time>2020-09-13T12:21:37Z</time>
      </trkpt>
      <trkpt lat="49.06498" lon="1.72565">
        <ele>76</ele>
        <time>2020-09-13T12:21:44Z</time>
      </trkpt>
      <trkpt lat="49.06495" lon="1.72579">
        <ele>73</ele>
        <time>2020-09-13T12:21:53Z</time>
      </trkpt>
      <trkpt lat="49.06494" lon="1.72593">
        <ele>73</ele>
        <time>2020-09-13T12:22:06Z</time>
      </trkpt>
      <trkpt lat="49.06494" lon="1.72608">
        <ele>75</ele>
        <time>2020-09-13T12:22:13Z</time>
      </trkpt>
      <trkpt lat="49.06495" lon="1.72622">
        <ele>76</ele>
        <time>2020-09-13T12:22:19Z</time>
      </trkpt>
      <trkpt lat="49.06498" lon="1.72637">
        <ele>76</ele>
        <time>2020-09-13T12:22:27Z</time>
      </trkpt>
      <trkpt lat="49.06502" lon="1.72651">
        <ele>71</ele>
        <time>2020-09-13T12:22:35Z</time>
      </trkpt>
      <trkpt lat="49.06503" lon="1.72666">
        <ele>71</ele>
        <time>2020-09-13T12:22:44Z</time>
      </trkpt>
      <trkpt lat="49.065" lon="1.72684">
        <ele>71</ele>
        <time>2020-09-13T12:22:52Z</time>
      </trkpt>
      <trkpt lat="49.065" lon="1.72699">
        <ele>75</ele>
        <time>2020-09-13T12:23:02Z</time>
      </trkpt>
      <trkpt lat="49.06497" lon="1.72713">
        <ele>75</ele>
        <time>2020-09-13T12:23:14Z</time>
      </trkpt>
      <trkpt lat="49.06494" lon="1.72728">
        <ele>75</ele>
        <time>2020-09-13T12:23:27Z</time>
      </trkpt>
      <trkpt lat="49.06491" lon="1.72745">
        <ele>73</ele>
        <time>2020-09-13T12:23:35Z</time>
      </trkpt>
      <trkpt lat="49.06489" lon="1.72762">
        <ele>74</ele>
        <time>2020-09-13T12:23:41Z</time>
      </trkpt>
      <trkpt lat="49.06486" lon="1.72778">
        <ele>75</ele>
        <time>2020-09-13T12:23:47Z</time>
      </trkpt>
      <trkpt lat="49.06482" lon="1.72792">
        <ele>75</ele>
        <time>2020-09-13T12:23:53Z</time>
      </trkpt>
      <trkpt lat="49.06479" lon="1.72807">
        <ele>75</ele>
        <time>2020-09-13T12:24:00Z</time>
      </trkpt>
      <trkpt lat="49.06481" lon="1.72823">
        <ele>74</ele>
        <time>2020-09-13T12:24:09Z</time>
      </trkpt>
      <trkpt lat="49.06483" lon="1.72838">
        <ele>73</ele>
        <time>2020-09-13T12:24:16Z</time>
      </trkpt>
      <trkpt lat="49.06484" lon="1.72853">
        <ele>74</ele>
        <time>2020-09-13T12:24:23Z</time>
      </trkpt>
      <trkpt lat="49.06485" lon="1.72868">
        <ele>74</ele>
        <time>2020-09-13T12:24:29Z</time>
      </trkpt>
      <trkpt lat="49.06485" lon="1.72884">
        <ele>74</ele>
        <time>2020-09-13T12:24:35Z</time>
      </trkpt>
      <trkpt lat="49.06486" lon="1.729">
        <ele>73</ele>
        <time>2020-09-13T12:24:43Z</time>
      </trkpt>
      <trkpt lat="49.06488" lon="1.72917">
        <ele>72</ele>
        <time>2020-09-13T12:24:51Z</time>
      </trkpt>
      <trkpt lat="49.06491" lon="1.72933">
        <ele>72</ele>
        <time>2020-09-13T12:24:59Z</time>
      </trkpt>
      <trkpt lat="49.06496" lon="1.72948">
        <ele>73</ele>
        <time>2020-09-13T12:25:07Z</time>
      </trkpt>
      <trkpt lat="49.06501" lon="1.72961">
        <ele>72</ele>
        <time>2020-09-13T12:25:15Z</time>
      </trkpt>
      <trkpt lat="49.06507" lon="1.72972">
        <ele>72</ele>
        <time>2020-09-13T12:25:36Z</time>
      </trkpt>
      <trkpt lat="49.06506" lon="1.72989">
        <ele>72</ele>
        <time>2020-09-13T12:26:04Z</time>
      </trkpt>
      <trkpt lat="49.06501" lon="1.73005">
        <ele>72</ele>
        <time>2020-09-13T12:26:13Z</time>
      </trkpt>
      <trkpt lat="49.06497" lon="1.7302">
        <ele>73</ele>
        <time>2020-09-13T12:26:21Z</time>
      </trkpt>
      <trkpt lat="49.06497" lon="1.73036">
        <ele>74</ele>
        <time>2020-09-13T12:26:29Z</time>
      </trkpt>
      <trkpt lat="49.06498" lon="1.73051">
        <ele>74</ele>
        <time>2020-09-13T12:26:37Z</time>
      </trkpt>
      <trkpt lat="49.065" lon="1.73066">
        <ele>73</ele>
        <time>2020-09-13T12:26:49Z</time>
      </trkpt>
      <trkpt lat="49.065" lon="1.73081">
        <ele>72</ele>
        <time>2020-09-13T12:26:56Z</time>
      </trkpt>
      <trkpt lat="49.06502" lon="1.73096">
        <ele>73</ele>
        <time>2020-09-13T12:27:02Z</time>
      </trkpt>
      <trkpt lat="49.06503" lon="1.73111">
        <ele>73</ele>
        <time>2020-09-13T12:27:09Z</time>
      </trkpt>
      <trkpt lat="49.06503" lon="1.73126">
        <ele>73</ele>
        <time>2020-09-13T12:27:17Z</time>
      </trkpt>
      <trkpt lat="49.06505" lon="1.73141">
        <ele>73</ele>
        <time>2020-09-13T12:27:24Z</time>
      </trkpt>
      <trkpt lat="49.06504" lon="1.73156">
        <ele>73</ele>
        <time>2020-09-13T12:27:31Z</time>
      </trkpt>
      <trkpt lat="49.06493" lon="1.73157">
        <ele>73</ele>
        <time>2020-09-13T12:27:38Z</time>
      </trkpt>
      <trkpt lat="49.06482" lon="1.73161">
        <ele>73</ele>
        <time>2020-09-13T12:27:44Z</time>
      </trkpt>
      <trkpt lat="49.06472" lon="1.73157">
        <ele>74</ele>
        <time>2020-09-13T12:27:51Z</time>
      </trkpt>
      <trkpt lat="49.06463" lon="1.73152">
        <ele>74</ele>
        <time>2020-09-13T12:27:59Z</time>
      </trkpt>
      <trkpt lat="49.06454" lon="1.7314">
        <ele>74</ele>
        <time>2020-09-13T12:28:07Z</time>
      </trkpt>
      <trkpt lat="49.06448" lon="1.73128">
        <ele>74</ele>
        <time>2020-09-13T12:28:14Z</time>
      </trkpt>
      <trkpt lat="49.0644" lon="1.73118">
        <ele>74</ele>
        <time>2020-09-13T12:28:22Z</time>
      </trkpt>
      <trkpt lat="49.06434" lon="1.73104">
        <ele>75</ele>
        <time>2020-09-13T12:28:30Z</time>
      </trkpt>
      <trkpt lat="49.06426" lon="1.73092">
        <ele>76</ele>
        <time>2020-09-13T12:28:40Z</time>
      </trkpt>
      <trkpt lat="49.06418" lon="1.73086">
        <ele>77</ele>
        <time>2020-09-13T12:28:51Z</time>
      </trkpt>
      <trkpt lat="49.0641" lon="1.73077">
        <ele>79</ele>
        <time>2020-09-13T12:28:57Z</time>
      </trkpt>
      <trkpt lat="49.06399" lon="1.73072">
        <ele>81</ele>
        <time>2020-09-13T12:29:06Z</time>
      </trkpt>
      <trkpt lat="49.06391" lon="1.73066">
        <ele>82</ele>
        <time>2020-09-13T12:29:18Z</time>
      </trkpt>
      <trkpt lat="49.06382" lon="1.73059">
        <ele>83</ele>
        <time>2020-09-13T12:29:28Z</time>
      </trkpt>
      <trkpt lat="49.06372" lon="1.73056">
        <ele>84</ele>
        <time>2020-09-13T12:29:37Z</time>
      </trkpt>
      <trkpt lat="49.06363" lon="1.73056">
        <ele>85</ele>
        <time>2020-09-13T12:29:44Z</time>
      </trkpt>
      <trkpt lat="49.06352" lon="1.73052">
        <ele>86</ele>
        <time>2020-09-13T12:29:52Z</time>
      </trkpt>
      <trkpt lat="49.06342" lon="1.73051">
        <ele>86</ele>
        <time>2020-09-13T12:30:02Z</time>
      </trkpt>
      <trkpt lat="49.06331" lon="1.73054">
        <ele>95</ele>
        <time>2020-09-13T12:30:10Z</time>
      </trkpt>
      <trkpt lat="49.06322" lon="1.73053">
        <ele>95</ele>
        <time>2020-09-13T12:30:17Z</time>
      </trkpt>
      <trkpt lat="49.06313" lon="1.73046">
        <ele>96</ele>
        <time>2020-09-13T12:30:27Z</time>
      </trkpt>
      <trkpt lat="49.06305" lon="1.73037">
        <ele>97</ele>
        <time>2020-09-13T12:30:42Z</time>
      </trkpt>
      <trkpt lat="49.06296" lon="1.73032">
        <ele>98</ele>
        <time>2020-09-13T12:30:50Z</time>
      </trkpt>
      <trkpt lat="49.06288" lon="1.73025">
        <ele>99</ele>
        <time>2020-09-13T12:30:58Z</time>
      </trkpt>
      <trkpt lat="49.06278" lon="1.73022">
        <ele>100</ele>
        <time>2020-09-13T12:31:06Z</time>
      </trkpt>
      <trkpt lat="49.06269" lon="1.73017">
        <ele>101</ele>
        <time>2020-09-13T12:31:18Z</time>
      </trkpt>
      <trkpt lat="49.06259" lon="1.73015">
        <ele>102</ele>
        <time>2020-09-13T12:31:28Z</time>
      </trkpt>
      <trkpt lat="49.0625" lon="1.73011">
        <ele>105</ele>
        <time>2020-09-13T12:31:42Z</time>
      </trkpt>
      <trkpt lat="49.06241" lon="1.73009">
        <ele>108</ele>
        <time>2020-09-13T12:31:57Z</time>
      </trkpt>
      <trkpt lat="49.06231" lon="1.73007">
        <ele>109</ele>
        <time>2020-09-13T12:32:06Z</time>
      </trkpt>
      <trkpt lat="49.06221" lon="1.73007">
        <ele>111</ele>
        <time>2020-09-13T12:32:17Z</time>
      </trkpt>
      <trkpt lat="49.06211" lon="1.73008">
        <ele>112</ele>
        <time>2020-09-13T12:32:42Z</time>
      </trkpt>
      <trkpt lat="49.06202" lon="1.73013">
        <ele>113</ele>
        <time>2020-09-13T12:32:56Z</time>
      </trkpt>
      <trkpt lat="49.06191" lon="1.73014">
        <ele>114</ele>
        <time>2020-09-13T12:33:05Z</time>
      </trkpt>
      <trkpt lat="49.06181" lon="1.73009">
        <ele>116</ele>
        <time>2020-09-13T12:33:11Z</time>
      </trkpt>
      <trkpt lat="49.06171" lon="1.73005">
        <ele>117</ele>
        <time>2020-09-13T12:33:19Z</time>
      </trkpt>
      <trkpt lat="49.06161" lon="1.73002">
        <ele>120</ele>
        <time>2020-09-13T12:33:26Z</time>
      </trkpt>
      <trkpt lat="49.06152" lon="1.72997">
        <ele>121</ele>
        <time>2020-09-13T12:33:32Z</time>
      </trkpt>
      <trkpt lat="49.06143" lon="1.72991">
        <ele>122</ele>
        <time>2020-09-13T12:33:39Z</time>
      </trkpt>
      <trkpt lat="49.06133" lon="1.72985">
        <ele>123</ele>
        <time>2020-09-13T12:33:48Z</time>
      </trkpt>
      <trkpt lat="49.06122" lon="1.72981">
        <ele>124</ele>
        <time>2020-09-13T12:33:56Z</time>
      </trkpt>
      <trkpt lat="49.06111" lon="1.72979">
        <ele>125</ele>
        <time>2020-09-13T12:34:03Z</time>
      </trkpt>
      <trkpt lat="49.06101" lon="1.72978">
        <ele>125</ele>
        <time>2020-09-13T12:34:11Z</time>
      </trkpt>
      <trkpt lat="49.06092" lon="1.72977">
        <ele>126</ele>
        <time>2020-09-13T12:34:19Z</time>
      </trkpt>
      <trkpt lat="49.06082" lon="1.72976">
        <ele>132</ele>
        <time>2020-09-13T12:34:27Z</time>
      </trkpt>
      <trkpt lat="49.06072" lon="1.72975">
        <ele>132</ele>
        <time>2020-09-13T12:34:40Z</time>
      </trkpt>
      <trkpt lat="49.06062" lon="1.72972">
        <ele>132</ele>
        <time>2020-09-13T12:35:21Z</time>
      </trkpt>
      <trkpt lat="49.06052" lon="1.7297">
        <ele>133</ele>
        <time>2020-09-13T12:35:29Z</time>
      </trkpt>
      <trkpt lat="49.06043" lon="1.72963">
        <ele>133</ele>
        <time>2020-09-13T12:35:37Z</time>
      </trkpt>
      <trkpt lat="49.06034" lon="1.72961">
        <ele>133</ele>
        <time>2020-09-13T12:35:47Z</time>
      </trkpt>
      <trkpt lat="49.06024" lon="1.72958">
        <ele>134</ele>
        <time>2020-09-13T12:35:56Z</time>
      </trkpt>
      <trkpt lat="49.06014" lon="1.72955">
        <ele>134</ele>
        <time>2020-09-13T12:36:06Z</time>
      </trkpt>
      <trkpt lat="49.06004" lon="1.72952">
        <ele>134</ele>
        <time>2020-09-13T12:36:16Z</time>
      </trkpt>
      <trkpt lat="49.05994" lon="1.72949">
        <ele>137</ele>
        <time>2020-09-13T12:36:26Z</time>
      </trkpt>
      <trkpt lat="49.05986" lon="1.72945">
        <ele>136</ele>
        <time>2020-09-13T12:40:50Z</time>
      </trkpt>
      <trkpt lat="49.05976" lon="1.72949">
        <ele>137</ele>
        <time>2020-09-13T12:41:54Z</time>
      </trkpt>
      <trkpt lat="49.05967" lon="1.72942">
        <ele>137</ele>
        <time>2020-09-13T12:42:02Z</time>
      </trkpt>
      <trkpt lat="49.05957" lon="1.72939">
        <ele>137</ele>
        <time>2020-09-13T12:42:17Z</time>
      </trkpt>
      <trkpt lat="49.0595" lon="1.72958">
        <ele>137</ele>
        <time>2020-09-13T12:43:39Z</time>
      </trkpt>
      <trkpt lat="49.05946" lon="1.72973">
        <ele>137</ele>
        <time>2020-09-13T12:43:48Z</time>
      </trkpt>
      <trkpt lat="49.0594" lon="1.72985">
        <ele>137</ele>
        <time>2020-09-13T12:43:56Z</time>
      </trkpt>
      <trkpt lat="49.05935" lon="1.72999">
        <ele>138</ele>
        <time>2020-09-13T12:44:03Z</time>
      </trkpt>
      <trkpt lat="49.0593" lon="1.73019">
        <ele>139</ele>
        <time>2020-09-13T12:44:16Z</time>
      </trkpt>
      <trkpt lat="49.05924" lon="1.73034">
        <ele>140</ele>
        <time>2020-09-13T12:44:23Z</time>
      </trkpt>
      <trkpt lat="49.0592" lon="1.73048">
        <ele>140</ele>
        <time>2020-09-13T12:44:32Z</time>
      </trkpt>
      <trkpt lat="49.05914" lon="1.73061">
        <ele>140</ele>
        <time>2020-09-13T12:44:40Z</time>
      </trkpt>
      <trkpt lat="49.05909" lon="1.73074">
        <ele>140</ele>
        <time>2020-09-13T12:44:48Z</time>
      </trkpt>
      <trkpt lat="49.05904" lon="1.73089">
        <ele>141</ele>
        <time>2020-09-13T12:44:56Z</time>
      </trkpt>
      <trkpt lat="49.059" lon="1.73104">
        <ele>141</ele>
        <time>2020-09-13T12:45:04Z</time>
      </trkpt>
      <trkpt lat="49.05897" lon="1.73119">
        <ele>141</ele>
        <time>2020-09-13T12:45:12Z</time>
      </trkpt>
      <trkpt lat="49.0589" lon="1.7313">
        <ele>141</ele>
        <time>2020-09-13T12:45:21Z</time>
      </trkpt>
      <trkpt lat="49.05884" lon="1.73141">
        <ele>141</ele>
        <time>2020-09-13T12:45:27Z</time>
      </trkpt>
      <trkpt lat="49.05881" lon="1.73156">
        <ele>141</ele>
        <time>2020-09-13T12:45:35Z</time>
      </trkpt>
      <trkpt lat="49.05875" lon="1.7317">
        <ele>142</ele>
        <time>2020-09-13T12:45:43Z</time>
      </trkpt>
      <trkpt lat="49.0587" lon="1.73184">
        <ele>142</ele>
        <time>2020-09-13T12:45:51Z</time>
      </trkpt>
      <trkpt lat="49.05863" lon="1.73198">
        <ele>142</ele>
        <time>2020-09-13T12:45:59Z</time>
      </trkpt>
      <trkpt lat="49.05857" lon="1.7321">
        <ele>142</ele>
        <time>2020-09-13T12:46:06Z</time>
      </trkpt>
      <trkpt lat="49.05851" lon="1.73225">
        <ele>142</ele>
        <time>2020-09-13T12:46:14Z</time>
      </trkpt>
      <trkpt lat="49.05845" lon="1.73237">
        <ele>141</ele>
        <time>2020-09-13T12:46:20Z</time>
      </trkpt>
      <trkpt lat="49.05839" lon="1.73249">
        <ele>141</ele>
        <time>2020-09-13T12:46:28Z</time>
      </trkpt>
      <trkpt lat="49.05834" lon="1.73263">
        <ele>141</ele>
        <time>2020-09-13T12:46:35Z</time>
      </trkpt>
      <trkpt lat="49.0583" lon="1.73276">
        <ele>142</ele>
        <time>2020-09-13T12:46:42Z</time>
      </trkpt>
      <trkpt lat="49.05825" lon="1.73289">
        <ele>142</ele>
        <time>2020-09-13T12:46:49Z</time>
      </trkpt>
      <trkpt lat="49.05821" lon="1.73304">
        <ele>142</ele>
        <time>2020-09-13T12:46:57Z</time>
      </trkpt>
      <trkpt lat="49.05816" lon="1.73318">
        <ele>143</ele>
        <time>2020-09-13T12:47:05Z</time>
      </trkpt>
      <trkpt lat="49.05811" lon="1.73331">
        <ele>143</ele>
        <time>2020-09-13T12:47:13Z</time>
      </trkpt>
      <trkpt lat="49.05805" lon="1.73345">
        <ele>145</ele>
        <time>2020-09-13T12:47:21Z</time>
      </trkpt>
      <trkpt lat="49.05798" lon="1.73357">
        <ele>145</ele>
        <time>2020-09-13T12:47:29Z</time>
      </trkpt>
      <trkpt lat="49.05793" lon="1.73372">
        <ele>145</ele>
        <time>2020-09-13T12:47:38Z</time>
      </trkpt>
      <trkpt lat="49.05788" lon="1.73385">
        <ele>145</ele>
        <time>2020-09-13T12:47:45Z</time>
      </trkpt>
      <trkpt lat="49.05782" lon="1.73397">
        <ele>146</ele>
        <time>2020-09-13T12:47:52Z</time>
      </trkpt>
      <trkpt lat="49.05776" lon="1.73409">
        <ele>146</ele>
        <time>2020-09-13T12:47:58Z</time>
      </trkpt>
      <trkpt lat="49.05771" lon="1.7342">
        <ele>147</ele>
        <time>2020-09-13T12:48:05Z</time>
      </trkpt>
      <trkpt lat="49.05766" lon="1.73433">
        <ele>147</ele>
        <time>2020-09-13T12:48:14Z</time>
      </trkpt>
      <trkpt lat="49.05763" lon="1.73449">
        <ele>147</ele>
        <time>2020-09-13T12:48:21Z</time>
      </trkpt>
      <trkpt lat="49.05758" lon="1.73463">
        <ele>147</ele>
        <time>2020-09-13T12:48:28Z</time>
      </trkpt>
      <trkpt lat="49.05754" lon="1.73476">
        <ele>148</ele>
        <time>2020-09-13T12:48:35Z</time>
      </trkpt>
      <trkpt lat="49.05749" lon="1.7349">
        <ele>148</ele>
        <time>2020-09-13T12:48:44Z</time>
      </trkpt>
      <trkpt lat="49.05742" lon="1.73503">
        <ele>149</ele>
        <time>2020-09-13T12:48:50Z</time>
      </trkpt>
      <trkpt lat="49.05735" lon="1.73514">
        <ele>150</ele>
        <time>2020-09-13T12:48:57Z</time>
      </trkpt>
      <trkpt lat="49.05732" lon="1.73529">
        <ele>150</ele>
        <time>2020-09-13T12:49:05Z</time>
      </trkpt>
      <trkpt lat="49.05726" lon="1.73542">
        <ele>150</ele>
        <time>2020-09-13T12:49:13Z</time>
      </trkpt>
      <trkpt lat="49.05719" lon="1.73553">
        <ele>151</ele>
        <time>2020-09-13T12:49:21Z</time>
      </trkpt>
      <trkpt lat="49.05713" lon="1.73567">
        <ele>151</ele>
        <time>2020-09-13T12:49:29Z</time>
      </trkpt>
      <trkpt lat="49.0571" lon="1.73582">
        <ele>151</ele>
        <time>2020-09-13T12:49:37Z</time>
      </trkpt>
      <trkpt lat="49.05706" lon="1.73594">
        <ele>150</ele>
        <time>2020-09-13T12:49:43Z</time>
      </trkpt>
      <trkpt lat="49.05702" lon="1.73609">
        <ele>150</ele>
        <time>2020-09-13T12:49:51Z</time>
      </trkpt>
      <trkpt lat="49.05697" lon="1.73624">
        <ele>150</ele>
        <time>2020-09-13T12:49:59Z</time>
      </trkpt>
      <trkpt lat="49.05691" lon="1.73638">
        <ele>150</ele>
        <time>2020-09-13T12:50:06Z</time>
      </trkpt>
      <trkpt lat="49.05685" lon="1.73649">
        <ele>150</ele>
        <time>2020-09-13T12:50:14Z</time>
      </trkpt>
      <trkpt lat="49.05682" lon="1.73664">
        <ele>150</ele>
        <time>2020-09-13T12:50:21Z</time>
      </trkpt>
      <trkpt lat="49.05675" lon="1.73676">
        <ele>149</ele>
        <time>2020-09-13T12:50:29Z</time>
      </trkpt>
      <trkpt lat="49.05668" lon="1.73688">
        <ele>149</ele>
        <time>2020-09-13T12:50:37Z</time>
      </trkpt>
      <trkpt lat="49.05666" lon="1.73702">
        <ele>148</ele>
        <time>2020-09-13T12:50:43Z</time>
      </trkpt>
      <trkpt lat="49.05662" lon="1.73718">
        <ele>147</ele>
        <time>2020-09-13T12:50:52Z</time>
      </trkpt>
      <trkpt lat="49.05656" lon="1.73731">
        <ele>146</ele>
        <time>2020-09-13T12:50:59Z</time>
      </trkpt>
      <trkpt lat="49.0565" lon="1.73746">
        <ele>146</ele>
        <time>2020-09-13T12:51:06Z</time>
      </trkpt>
      <trkpt lat="49.05644" lon="1.73758">
        <ele>144</ele>
        <time>2020-09-13T12:51:13Z</time>
      </trkpt>
      <trkpt lat="49.05639" lon="1.73773">
        <ele>143</ele>
        <time>2020-09-13T12:51:20Z</time>
      </trkpt>
      <trkpt lat="49.05632" lon="1.73786">
        <ele>143</ele>
        <time>2020-09-13T12:51:29Z</time>
      </trkpt>
      <trkpt lat="49.05628" lon="1.73798">
        <ele>143</ele>
        <time>2020-09-13T12:51:35Z</time>
      </trkpt>
      <trkpt lat="49.05623" lon="1.73811">
        <ele>143</ele>
        <time>2020-09-13T12:51:41Z</time>
      </trkpt>
      <trkpt lat="49.05618" lon="1.73824">
        <ele>142</ele>
        <time>2020-09-13T12:51:48Z</time>
      </trkpt>
      <trkpt lat="49.05613" lon="1.73839">
        <ele>141</ele>
        <time>2020-09-13T12:51:56Z</time>
      </trkpt>
      <trkpt lat="49.0561" lon="1.73852">
        <ele>141</ele>
        <time>2020-09-13T12:52:02Z</time>
      </trkpt>
      <trkpt lat="49.05605" lon="1.73865">
        <ele>141</ele>
        <time>2020-09-13T12:52:08Z</time>
      </trkpt>
      <trkpt lat="49.05601" lon="1.73881">
        <ele>141</ele>
        <time>2020-09-13T12:52:17Z</time>
      </trkpt>
      <trkpt lat="49.05594" lon="1.73894">
        <ele>140</ele>
        <time>2020-09-13T12:52:25Z</time>
      </trkpt>
      <trkpt lat="49.05588" lon="1.73908">
        <ele>140</ele>
        <time>2020-09-13T12:52:33Z</time>
      </trkpt>
      <trkpt lat="49.05582" lon="1.73921">
        <ele>139</ele>
        <time>2020-09-13T12:52:41Z</time>
      </trkpt>
      <trkpt lat="49.05579" lon="1.7393">
        <ele>139</ele>
        <time>2020-09-13T12:54:53Z</time>
      </trkpt>
      <trkpt lat="49.05588" lon="1.73936">
        <ele>139</ele>
        <time>2020-09-13T12:55:02Z</time>
      </trkpt>
      <trkpt lat="49.05599" lon="1.73941">
        <ele>139</ele>
        <time>2020-09-13T12:55:08Z</time>
      </trkpt>
      <trkpt lat="49.05609" lon="1.73946">
        <ele>139</ele>
        <time>2020-09-13T12:55:15Z</time>
      </trkpt>
      <trkpt lat="49.05619" lon="1.73951">
        <ele>139</ele>
        <time>2020-09-13T12:55:23Z</time>
      </trkpt>
      <trkpt lat="49.05628" lon="1.73958">
        <ele>139</ele>
        <time>2020-09-13T12:55:31Z</time>
      </trkpt>
      <trkpt lat="49.05638" lon="1.73962">
        <ele>138</ele>
        <time>2020-09-13T12:55:38Z</time>
      </trkpt>
      <trkpt lat="49.05649" lon="1.73965">
        <ele>138</ele>
        <time>2020-09-13T12:55:44Z</time>
      </trkpt>
      <trkpt lat="49.0566" lon="1.7397">
        <ele>138</ele>
        <time>2020-09-13T12:55:50Z</time>
      </trkpt>
      <trkpt lat="49.0567" lon="1.73975">
        <ele>137</ele>
        <time>2020-09-13T12:55:58Z</time>
      </trkpt>
      <trkpt lat="49.0568" lon="1.73979">
        <ele>137</ele>
        <time>2020-09-13T12:56:06Z</time>
      </trkpt>
      <trkpt lat="49.05689" lon="1.73985">
        <ele>137</ele>
        <time>2020-09-13T12:56:15Z</time>
      </trkpt>
      <trkpt lat="49.05697" lon="1.73993">
        <ele>137</ele>
        <time>2020-09-13T12:56:27Z</time>
      </trkpt>
      <trkpt lat="49.05707" lon="1.73996">
        <ele>137</ele>
        <time>2020-09-13T12:56:35Z</time>
      </trkpt>
      <trkpt lat="49.05716" lon="1.73995">
        <ele>137</ele>
        <time>2020-09-13T12:56:41Z</time>
      </trkpt>
      <trkpt lat="49.05726" lon="1.73994">
        <ele>137</ele>
        <time>2020-09-13T12:56:54Z</time>
      </trkpt>
      <trkpt lat="49.05736" lon="1.73993">
        <ele>137</ele>
        <time>2020-09-13T12:57:03Z</time>
      </trkpt>
      <trkpt lat="49.05746" lon="1.73996">
        <ele>136</ele>
        <time>2020-09-13T12:57:09Z</time>
      </trkpt>
      <trkpt lat="49.05759" lon="1.73995">
        <ele>134</ele>
        <time>2020-09-13T12:57:15Z</time>
      </trkpt>
      <trkpt lat="49.0577" lon="1.73997">
        <ele>133</ele>
        <time>2020-09-13T12:57:19Z</time>
      </trkpt>
      <trkpt lat="49.0578" lon="1.73997">
        <ele>132</ele>
        <time>2020-09-13T12:57:23Z</time>
      </trkpt>
      <trkpt lat="49.05789" lon="1.74001">
        <ele>129</ele>
        <time>2020-09-13T12:57:36Z</time>
      </trkpt>
      <trkpt lat="49.05799" lon="1.74006">
        <ele>128</ele>
        <time>2020-09-13T12:57:59Z</time>
      </trkpt>
      <trkpt lat="49.05808" lon="1.74012">
        <ele>127</ele>
        <time>2020-09-13T12:58:08Z</time>
      </trkpt>
      <trkpt lat="49.05818" lon="1.74013">
        <ele>126</ele>
        <time>2020-09-13T12:58:18Z</time>
      </trkpt>
      <trkpt lat="49.05829" lon="1.74015">
        <ele>125</ele>
        <time>2020-09-13T12:58:24Z</time>
      </trkpt>
      <trkpt lat="49.05839" lon="1.74017">
        <ele>119</ele>
        <time>2020-09-13T12:58:28Z</time>
      </trkpt>
      <trkpt lat="49.05849" lon="1.74021">
        <ele>118</ele>
        <time>2020-09-13T12:58:32Z</time>
      </trkpt>
      <trkpt lat="49.05859" lon="1.74024">
        <ele>117</ele>
        <time>2020-09-13T12:58:36Z</time>
      </trkpt>
      <trkpt lat="49.05868" lon="1.74026">
        <ele>116</ele>
        <time>2020-09-13T12:58:40Z</time>
      </trkpt>
      <trkpt lat="49.05879" lon="1.74029">
        <ele>115</ele>
        <time>2020-09-13T12:58:46Z</time>
      </trkpt>
      <trkpt lat="49.05889" lon="1.74034">
        <ele>115</ele>
        <time>2020-09-13T12:58:52Z</time>
      </trkpt>
      <trkpt lat="49.05899" lon="1.74039">
        <ele>114</ele>
        <time>2020-09-13T12:58:59Z</time>
      </trkpt>
      <trkpt lat="49.05909" lon="1.74045">
        <ele>113</ele>
        <time>2020-09-13T12:59:07Z</time>
      </trkpt>
      <trkpt lat="49.05916" lon="1.74056">
        <ele>113</ele>
        <time>2020-09-13T12:59:34Z</time>
      </trkpt>
      <trkpt lat="49.05925" lon="1.7405">
        <ele>109</ele>
        <time>2020-09-13T12:59:43Z</time>
      </trkpt>
      <trkpt lat="49.05935" lon="1.7405">
        <ele>109</ele>
        <time>2020-09-13T12:59:50Z</time>
      </trkpt>
      <trkpt lat="49.05945" lon="1.74055">
        <ele>109</ele>
        <time>2020-09-13T12:59:59Z</time>
      </trkpt>
      <trkpt lat="49.05955" lon="1.7406">
        <ele>108</ele>
        <time>2020-09-13T13:00:07Z</time>
      </trkpt>
      <trkpt lat="49.05964" lon="1.74068">
        <ele>108</ele>
        <time>2020-09-13T13:00:15Z</time>
      </trkpt>
      <trkpt lat="49.05974" lon="1.74066">
        <ele>108</ele>
        <time>2020-09-13T13:00:21Z</time>
      </trkpt>
      <trkpt lat="49.05983" lon="1.7406">
        <ele>108</ele>
        <time>2020-09-13T13:00:29Z</time>
      </trkpt>
      <trkpt lat="49.05992" lon="1.74056">
        <ele>108</ele>
        <time>2020-09-13T13:00:36Z</time>
      </trkpt>
      <trkpt lat="49.06002" lon="1.74051">
        <ele>108</ele>
        <time>2020-09-13T13:00:42Z</time>
      </trkpt>
      <trkpt lat="49.06011" lon="1.74046">
        <ele>108</ele>
        <time>2020-09-13T13:00:50Z</time>
      </trkpt>
      <trkpt lat="49.06021" lon="1.74043">
        <ele>108</ele>
        <time>2020-09-13T13:00:58Z</time>
      </trkpt>
      <trkpt lat="49.06031" lon="1.74044">
        <ele>109</ele>
        <time>2020-09-13T13:01:07Z</time>
      </trkpt>
      <trkpt lat="49.06037" lon="1.74057">
        <ele>109</ele>
        <time>2020-09-13T13:01:29Z</time>
      </trkpt>
      <trkpt lat="49.06041" lon="1.74069">
        <ele>109</ele>
        <time>2020-09-13T13:01:35Z</time>
      </trkpt>
      <trkpt lat="49.06047" lon="1.74084">
        <ele>112</ele>
        <time>2020-09-13T13:01:43Z</time>
      </trkpt>
      <trkpt lat="49.06053" lon="1.74096">
        <ele>112</ele>
        <time>2020-09-13T13:01:52Z</time>
      </trkpt>
      <trkpt lat="49.06056" lon="1.74111">
        <ele>112</ele>
        <time>2020-09-13T13:02:01Z</time>
      </trkpt>
      <trkpt lat="49.06063" lon="1.74124">
        <ele>113</ele>
        <time>2020-09-13T13:02:08Z</time>
      </trkpt>
      <trkpt lat="49.06067" lon="1.74138">
        <ele>113</ele>
        <time>2020-09-13T13:02:16Z</time>
      </trkpt>
      <trkpt lat="49.06073" lon="1.74149">
        <ele>114</ele>
        <time>2020-09-13T13:02:29Z</time>
      </trkpt>
      <trkpt lat="49.06082" lon="1.74155">
        <ele>115</ele>
        <time>2020-09-13T13:02:38Z</time>
      </trkpt>
      <trkpt lat="49.06089" lon="1.74165">
        <ele>118</ele>
        <time>2020-09-13T13:02:48Z</time>
      </trkpt>
      <trkpt lat="49.06094" lon="1.74179">
        <ele>121</ele>
        <time>2020-09-13T13:03:01Z</time>
      </trkpt>
      <trkpt lat="49.061" lon="1.7419">
        <ele>122</ele>
        <time>2020-09-13T13:03:10Z</time>
      </trkpt>
      <trkpt lat="49.06107" lon="1.74201">
        <ele>124</ele>
        <time>2020-09-13T13:03:21Z</time>
      </trkpt>
      <trkpt lat="49.06101" lon="1.7422">
        <ele>124</ele>
        <time>2020-09-13T13:03:42Z</time>
      </trkpt>
      <trkpt lat="49.06092" lon="1.74221">
        <ele>124</ele>
        <time>2020-09-13T13:03:55Z</time>
      </trkpt>
      <trkpt lat="49.06081" lon="1.74221">
        <ele>120</ele>
        <time>2020-09-13T13:04:04Z</time>
      </trkpt>
      <trkpt lat="49.06071" lon="1.74229">
        <ele>121</ele>
        <time>2020-09-13T13:04:14Z</time>
      </trkpt>
      <trkpt lat="49.06062" lon="1.74244">
        <ele>121</ele>
        <time>2020-09-13T13:04:25Z</time>
      </trkpt>
      <trkpt lat="49.06051" lon="1.74248">
        <ele>120</ele>
        <time>2020-09-13T13:04:33Z</time>
      </trkpt>
      <trkpt lat="49.06041" lon="1.74251">
        <ele>124</ele>
        <time>2020-09-13T13:04:41Z</time>
      </trkpt>
      <trkpt lat="49.06033" lon="1.74259">
        <ele>124</ele>
        <time>2020-09-13T13:04:55Z</time>
      </trkpt>
      <trkpt lat="49.06026" lon="1.74272">
        <ele>124</ele>
        <time>2020-09-13T13:05:00Z</time>
      </trkpt>
      <trkpt lat="49.06018" lon="1.74283">
        <ele>124</ele>
        <time>2020-09-13T13:05:06Z</time>
      </trkpt>
      <trkpt lat="49.06011" lon="1.74295">
        <ele>124</ele>
        <time>2020-09-13T13:05:14Z</time>
      </trkpt>
      <trkpt lat="49.06002" lon="1.74303">
        <ele>125</ele>
        <time>2020-09-13T13:05:22Z</time>
      </trkpt>
      <trkpt lat="49.05993" lon="1.74309">
        <ele>122</ele>
        <time>2020-09-13T13:05:31Z</time>
      </trkpt>
      <trkpt lat="49.05996" lon="1.74322">
        <ele>124</ele>
        <time>2020-09-13T13:05:40Z</time>
      </trkpt>
      <trkpt lat="49.06003" lon="1.74331">
        <ele>126</ele>
        <time>2020-09-13T13:05:49Z</time>
      </trkpt>
      <trkpt lat="49.06012" lon="1.74339">
        <ele>128</ele>
        <time>2020-09-13T13:05:57Z</time>
      </trkpt>
      <trkpt lat="49.06021" lon="1.74349">
        <ele>128</ele>
        <time>2020-09-13T13:06:07Z</time>
      </trkpt>
      <trkpt lat="49.06028" lon="1.7436">
        <ele>129</ele>
        <time>2020-09-13T13:06:16Z</time>
      </trkpt>
      <trkpt lat="49.06036" lon="1.7437">
        <ele>130</ele>
        <time>2020-09-13T13:06:25Z</time>
      </trkpt>
      <trkpt lat="49.06043" lon="1.74381">
        <ele>130</ele>
        <time>2020-09-13T13:06:33Z</time>
      </trkpt>
      <trkpt lat="49.0605" lon="1.7439">
        <ele>130</ele>
        <time>2020-09-13T13:06:41Z</time>
      </trkpt>
      <trkpt lat="49.06059" lon="1.74392">
        <ele>131</ele>
        <time>2020-09-13T13:06:49Z</time>
      </trkpt>
      <trkpt lat="49.06068" lon="1.74383">
        <ele>130</ele>
        <time>2020-09-13T13:06:56Z</time>
      </trkpt>
      <trkpt lat="49.06075" lon="1.74373">
        <ele>130</ele>
        <time>2020-09-13T13:07:05Z</time>
      </trkpt>
      <trkpt lat="49.06082" lon="1.74361">
        <ele>130</ele>
        <time>2020-09-13T13:07:12Z</time>
      </trkpt>
      <trkpt lat="49.06091" lon="1.74352">
        <ele>132</ele>
        <time>2020-09-13T13:07:22Z</time>
      </trkpt>
      <trkpt lat="49.06099" lon="1.74342">
        <ele>131</ele>
        <time>2020-09-13T13:07:30Z</time>
      </trkpt>
      <trkpt lat="49.06107" lon="1.74332">
        <ele>130</ele>
        <time>2020-09-13T13:07:37Z</time>
      </trkpt>
      <trkpt lat="49.06115" lon="1.74321">
        <ele>130</ele>
        <time>2020-09-13T13:07:45Z</time>
      </trkpt>
      <trkpt lat="49.06121" lon="1.74308">
        <ele>130</ele>
        <time>2020-09-13T13:07:53Z</time>
      </trkpt>
      <trkpt lat="49.06122" lon="1.74292">
        <ele>129</ele>
        <time>2020-09-13T13:08:03Z</time>
      </trkpt>
      <trkpt lat="49.06122" lon="1.74271">
        <ele>129</ele>
        <time>2020-09-13T13:08:21Z</time>
      </trkpt>
      <trkpt lat="49.0613" lon="1.74261">
        <ele>129</ele>
        <time>2020-09-13T13:08:30Z</time>
      </trkpt>
      <trkpt lat="49.06139" lon="1.74254">
        <ele>129</ele>
        <time>2020-09-13T13:08:39Z</time>
      </trkpt>
      <trkpt lat="49.06149" lon="1.74267">
        <ele>130</ele>
        <time>2020-09-13T13:08:56Z</time>
      </trkpt>
      <trkpt lat="49.06153" lon="1.74281">
        <ele>130</ele>
        <time>2020-09-13T13:09:05Z</time>
      </trkpt>
      <trkpt lat="49.06157" lon="1.74294">
        <ele>130</ele>
        <time>2020-09-13T13:09:14Z</time>
      </trkpt>
      <trkpt lat="49.06162" lon="1.74308">
        <ele>131</ele>
        <time>2020-09-13T13:09:21Z</time>
      </trkpt>
      <trkpt lat="49.06169" lon="1.74319">
        <ele>135</ele>
        <time>2020-09-13T13:09:30Z</time>
      </trkpt>
      <trkpt lat="49.06177" lon="1.74329">
        <ele>135</ele>
        <time>2020-09-13T13:09:39Z</time>
      </trkpt>
      <trkpt lat="49.06182" lon="1.74341">
        <ele>136</ele>
        <time>2020-09-13T13:09:47Z</time>
      </trkpt>
      <trkpt lat="49.06188" lon="1.74355">
        <ele>137</ele>
        <time>2020-09-13T13:09:55Z</time>
      </trkpt>
      <trkpt lat="49.06193" lon="1.74367">
        <ele>137</ele>
        <time>2020-09-13T13:10:03Z</time>
      </trkpt>
      <trkpt lat="49.06199" lon="1.74378">
        <ele>138</ele>
        <time>2020-09-13T13:10:11Z</time>
      </trkpt>
      <trkpt lat="49.06206" lon="1.74391">
        <ele>138</ele>
        <time>2020-09-13T13:10:19Z</time>
      </trkpt>
      <trkpt lat="49.06209" lon="1.74405">
        <ele>138</ele>
        <time>2020-09-13T13:10:27Z</time>
      </trkpt>
      <trkpt lat="49.06214" lon="1.74418">
        <ele>137</ele>
        <time>2020-09-13T13:10:36Z</time>
      </trkpt>
      <trkpt lat="49.0622" lon="1.74432">
        <ele>137</ele>
        <time>2020-09-13T13:10:44Z</time>
      </trkpt>
      <trkpt lat="49.06227" lon="1.74444">
        <ele>137</ele>
        <time>2020-09-13T13:10:52Z</time>
      </trkpt>
      <trkpt lat="49.06234" lon="1.74456">
        <ele>137</ele>
        <time>2020-09-13T13:10:58Z</time>
      </trkpt>
      <trkpt lat="49.06239" lon="1.74468">
        <ele>137</ele>
        <time>2020-09-13T13:11:06Z</time>
      </trkpt>
      <trkpt lat="49.06247" lon="1.74478">
        <ele>137</ele>
        <time>2020-09-13T13:11:14Z</time>
      </trkpt>
      <trkpt lat="49.06253" lon="1.7449">
        <ele>138</ele>
        <time>2020-09-13T13:11:24Z</time>
      </trkpt>
      <trkpt lat="49.06263" lon="1.74488">
        <ele>138</ele>
        <time>2020-09-13T13:11:31Z</time>
      </trkpt>
      <trkpt lat="49.0627" lon="1.74475">
        <ele>138</ele>
        <time>2020-09-13T13:11:37Z</time>
      </trkpt>
      <trkpt lat="49.06274" lon="1.74461">
        <ele>138</ele>
        <time>2020-09-13T13:11:45Z</time>
      </trkpt>
      <trkpt lat="49.06277" lon="1.74447">
        <ele>139</ele>
        <time>2020-09-13T13:11:53Z</time>
      </trkpt>
      <trkpt lat="49.06279" lon="1.74432">
        <ele>139</ele>
        <time>2020-09-13T13:12:01Z</time>
      </trkpt>
      <trkpt lat="49.06284" lon="1.74418">
        <ele>139</ele>
        <time>2020-09-13T13:12:09Z</time>
      </trkpt>
      <trkpt lat="49.06289" lon="1.74406">
        <ele>141</ele>
        <time>2020-09-13T13:12:15Z</time>
      </trkpt>
      <trkpt lat="49.06293" lon="1.74392">
        <ele>141</ele>
        <time>2020-09-13T13:12:22Z</time>
      </trkpt>
      <trkpt lat="49.063" lon="1.74379">
        <ele>141</ele>
        <time>2020-09-13T13:12:30Z</time>
      </trkpt>
      <trkpt lat="49.06306" lon="1.74366">
        <ele>141</ele>
        <time>2020-09-13T13:12:40Z</time>
      </trkpt>
      <trkpt lat="49.06311" lon="1.74351">
        <ele>141</ele>
        <time>2020-09-13T13:12:47Z</time>
      </trkpt>
      <trkpt lat="49.06316" lon="1.74337">
        <ele>141</ele>
        <time>2020-09-13T13:12:53Z</time>
      </trkpt>
      <trkpt lat="49.06319" lon="1.74324">
        <ele>143</ele>
        <time>2020-09-13T13:13:01Z</time>
      </trkpt>
      <trkpt lat="49.06321" lon="1.74308">
        <ele>143</ele>
        <time>2020-09-13T13:13:09Z</time>
      </trkpt>
      <trkpt lat="49.06325" lon="1.74294">
        <ele>144</ele>
        <time>2020-09-13T13:13:16Z</time>
      </trkpt>
      <trkpt lat="49.0633" lon="1.74281">
        <ele>144</ele>
        <time>2020-09-13T13:13:23Z</time>
      </trkpt>
      <trkpt lat="49.06334" lon="1.74267">
        <ele>143</ele>
        <time>2020-09-13T13:13:32Z</time>
      </trkpt>
      <trkpt lat="49.06339" lon="1.74255">
        <ele>144</ele>
        <time>2020-09-13T13:13:39Z</time>
      </trkpt>
      <trkpt lat="49.06342" lon="1.7424">
        <ele>144</ele>
        <time>2020-09-13T13:13:47Z</time>
      </trkpt>
      <trkpt lat="49.06349" lon="1.74227">
        <ele>144</ele>
        <time>2020-09-13T13:13:55Z</time>
      </trkpt>
      <trkpt lat="49.06354" lon="1.74214">
        <ele>144</ele>
        <time>2020-09-13T13:14:03Z</time>
      </trkpt>
      <trkpt lat="49.06361" lon="1.74203">
        <ele>144</ele>
        <time>2020-09-13T13:14:09Z</time>
      </trkpt>
      <trkpt lat="49.06367" lon="1.74189">
        <ele>144</ele>
        <time>2020-09-13T13:14:17Z</time>
      </trkpt>
      <trkpt lat="49.06372" lon="1.74175">
        <ele>144</ele>
        <time>2020-09-13T13:14:25Z</time>
      </trkpt>
      <trkpt lat="49.06376" lon="1.74159">
        <ele>143</ele>
        <time>2020-09-13T13:14:33Z</time>
      </trkpt>
      <trkpt lat="49.0638" lon="1.74142">
        <ele>143</ele>
        <time>2020-09-13T13:14:41Z</time>
      </trkpt>
      <trkpt lat="49.06386" lon="1.7413">
        <ele>143</ele>
        <time>2020-09-13T13:14:48Z</time>
      </trkpt>
      <trkpt lat="49.06391" lon="1.74116">
        <ele>142</ele>
        <time>2020-09-13T13:14:56Z</time>
      </trkpt>
      <trkpt lat="49.06397" lon="1.74102">
        <ele>142</ele>
        <time>2020-09-13T13:15:04Z</time>
      </trkpt>
      <trkpt lat="49.06401" lon="1.74088">
        <ele>141</ele>
        <time>2020-09-13T13:15:11Z</time>
      </trkpt>
      <trkpt lat="49.06406" lon="1.74074">
        <ele>141</ele>
        <time>2020-09-13T13:15:19Z</time>
      </trkpt>
      <trkpt lat="49.06412" lon="1.74062">
        <ele>142</ele>
        <time>2020-09-13T13:15:27Z</time>
      </trkpt>
      <trkpt lat="49.06416" lon="1.74047">
        <ele>142</ele>
        <time>2020-09-13T13:15:35Z</time>
      </trkpt>
      <trkpt lat="49.0642" lon="1.74031">
        <ele>141</ele>
        <time>2020-09-13T13:15:43Z</time>
      </trkpt>
      <trkpt lat="49.06424" lon="1.74017">
        <ele>141</ele>
        <time>2020-09-13T13:15:49Z</time>
      </trkpt>
      <trkpt lat="49.06428" lon="1.74004">
        <ele>142</ele>
        <time>2020-09-13T13:15:56Z</time>
      </trkpt>
      <trkpt lat="49.06433" lon="1.73989">
        <ele>141</ele>
        <time>2020-09-13T13:16:04Z</time>
      </trkpt>
      <trkpt lat="49.06438" lon="1.73976">
        <ele>140</ele>
        <time>2020-09-13T13:16:12Z</time>
      </trkpt>
      <trkpt lat="49.06444" lon="1.73962">
        <ele>140</ele>
        <time>2020-09-13T13:16:20Z</time>
      </trkpt>
      <trkpt lat="49.06448" lon="1.73947">
        <ele>140</ele>
        <time>2020-09-13T13:16:28Z</time>
      </trkpt>
      <trkpt lat="49.06452" lon="1.73933">
        <ele>140</ele>
        <time>2020-09-13T13:16:34Z</time>
      </trkpt>
      <trkpt lat="49.06459" lon="1.7392">
        <ele>139</ele>
        <time>2020-09-13T13:16:40Z</time>
      </trkpt>
      <trkpt lat="49.06464" lon="1.73907">
        <ele>138</ele>
        <time>2020-09-13T13:16:48Z</time>
      </trkpt>
      <trkpt lat="49.06469" lon="1.73893">
        <ele>138</ele>
        <time>2020-09-13T13:16:57Z</time>
      </trkpt>
      <trkpt lat="49.0648" lon="1.73899">
        <ele>138</ele>
        <time>2020-09-13T13:17:25Z</time>
      </trkpt>
      <trkpt lat="49.06491" lon="1.73904">
        <ele>138</ele>
        <time>2020-09-13T13:17:33Z</time>
      </trkpt>
      <trkpt lat="49.06501" lon="1.7391">
        <ele>137</ele>
        <time>2020-09-13T13:17:41Z</time>
      </trkpt>
      <trkpt lat="49.06511" lon="1.73915">
        <ele>137</ele>
        <time>2020-09-13T13:17:49Z</time>
      </trkpt>
      <trkpt lat="49.06521" lon="1.73919">
        <ele>138</ele>
        <time>2020-09-13T13:17:56Z</time>
      </trkpt>
      <trkpt lat="49.06531" lon="1.73921">
        <ele>138</ele>
        <time>2020-09-13T13:18:05Z</time>
      </trkpt>
      <trkpt lat="49.06543" lon="1.73924">
        <ele>138</ele>
        <time>2020-09-13T13:18:12Z</time>
      </trkpt>
      <trkpt lat="49.06555" lon="1.73925">
        <ele>138</ele>
        <time>2020-09-13T13:18:19Z</time>
      </trkpt>
      <trkpt lat="49.06565" lon="1.73927">
        <ele>138</ele>
        <time>2020-09-13T13:18:27Z</time>
      </trkpt>
      <trkpt lat="49.06575" lon="1.73932">
        <ele>139</ele>
        <time>2020-09-13T13:18:37Z</time>
      </trkpt>
      <trkpt lat="49.06585" lon="1.73931">
        <ele>139</ele>
        <time>2020-09-13T13:18:46Z</time>
      </trkpt>
      <trkpt lat="49.06597" lon="1.73933">
        <ele>139</ele>
        <time>2020-09-13T13:18:52Z</time>
      </trkpt>
      <trkpt lat="49.06607" lon="1.73935">
        <ele>140</ele>
        <time>2020-09-13T13:18:59Z</time>
      </trkpt>
      <trkpt lat="49.06618" lon="1.73941">
        <ele>140</ele>
        <time>2020-09-13T13:19:07Z</time>
      </trkpt>
      <trkpt lat="49.06628" lon="1.73945">
        <ele>140</ele>
        <time>2020-09-13T13:19:14Z</time>
      </trkpt>
      <trkpt lat="49.06638" lon="1.73948">
        <ele>140</ele>
        <time>2020-09-13T13:19:23Z</time>
      </trkpt>
      <trkpt lat="49.06649" lon="1.73952">
        <ele>140</ele>
        <time>2020-09-13T13:19:31Z</time>
      </trkpt>
      <trkpt lat="49.0666" lon="1.73956">
        <ele>140</ele>
        <time>2020-09-13T13:19:39Z</time>
      </trkpt>
      <trkpt lat="49.06669" lon="1.73961">
        <ele>139</ele>
        <time>2020-09-13T13:19:47Z</time>
      </trkpt>
      <trkpt lat="49.06679" lon="1.73966">
        <ele>139</ele>
        <time>2020-09-13T13:19:55Z</time>
      </trkpt>
      <trkpt lat="49.06689" lon="1.73971">
        <ele>138</ele>
        <time>2020-09-13T13:20:03Z</time>
      </trkpt>
      <trkpt lat="49.06698" lon="1.73978">
        <ele>138</ele>
        <time>2020-09-13T13:20:10Z</time>
      </trkpt>
      <trkpt lat="49.06707" lon="1.73985">
        <ele>138</ele>
        <time>2020-09-13T13:20:19Z</time>
      </trkpt>
      <trkpt lat="49.06715" lon="1.73993">
        <ele>138</ele>
        <time>2020-09-13T13:20:26Z</time>
      </trkpt>
      <trkpt lat="49.06724" lon="1.73999">
        <ele>137</ele>
        <time>2020-09-13T13:20:32Z</time>
      </trkpt>
      <trkpt lat="49.06733" lon="1.74005">
        <ele>137</ele>
        <time>2020-09-13T13:20:38Z</time>
      </trkpt>
      <trkpt lat="49.0674" lon="1.74016">
        <ele>137</ele>
        <time>2020-09-13T13:20:47Z</time>
      </trkpt>
      <trkpt lat="49.06747" lon="1.74025">
        <ele>137</ele>
        <time>2020-09-13T13:20:55Z</time>
      </trkpt>
      <trkpt lat="49.06756" lon="1.74032">
        <ele>137</ele>
        <time>2020-09-13T13:21:03Z</time>
      </trkpt>
      <trkpt lat="49.06766" lon="1.74037">
        <ele>137</ele>
        <time>2020-09-13T13:21:10Z</time>
      </trkpt>
      <trkpt lat="49.06775" lon="1.74043">
        <ele>137</ele>
        <time>2020-09-13T13:21:18Z</time>
      </trkpt>
      <trkpt lat="49.06782" lon="1.74054">
        <ele>137</ele>
        <time>2020-09-13T13:21:51Z</time>
      </trkpt>
      <trkpt lat="49.0679" lon="1.74062">
        <ele>137</ele>
        <time>2020-09-13T13:21:58Z</time>
      </trkpt>
      <trkpt lat="49.06798" lon="1.74072">
        <ele>137</ele>
        <time>2020-09-13T13:22:07Z</time>
      </trkpt>
      <trkpt lat="49.06808" lon="1.74081">
        <ele>137</ele>
        <time>2020-09-13T13:22:15Z</time>
      </trkpt>
      <trkpt lat="49.06814" lon="1.74091">
        <ele>138</ele>
        <time>2020-09-13T13:22:23Z</time>
      </trkpt>
      <trkpt lat="49.06823" lon="1.74099">
        <ele>138</ele>
        <time>2020-09-13T13:22:31Z</time>
      </trkpt>
      <trkpt lat="49.06832" lon="1.74108">
        <ele>138</ele>
        <time>2020-09-13T13:22:38Z</time>
      </trkpt>
      <trkpt lat="49.06841" lon="1.74116">
        <ele>139</ele>
        <time>2020-09-13T13:22:45Z</time>
      </trkpt>
      <trkpt lat="49.0685" lon="1.74122">
        <ele>139</ele>
        <time>2020-09-13T13:22:53Z</time>
      </trkpt>
      <trkpt lat="49.06859" lon="1.74131">
        <ele>140</ele>
        <time>2020-09-13T13:23:02Z</time>
      </trkpt>
      <trkpt lat="49.06868" lon="1.74138">
        <ele>140</ele>
        <time>2020-09-13T13:23:10Z</time>
      </trkpt>
      <trkpt lat="49.06878" lon="1.74146">
        <ele>140</ele>
        <time>2020-09-13T13:23:18Z</time>
      </trkpt>
      <trkpt lat="49.06887" lon="1.7415">
        <ele>141</ele>
        <time>2020-09-13T13:23:26Z</time>
      </trkpt>
      <trkpt lat="49.06897" lon="1.7415">
        <ele>141</ele>
        <time>2020-09-13T13:23:33Z</time>
      </trkpt>
      <trkpt lat="49.06905" lon="1.74158">
        <ele>142</ele>
        <time>2020-09-13T13:23:45Z</time>
      </trkpt>
      <trkpt lat="49.06914" lon="1.74164">
        <ele>143</ele>
        <time>2020-09-13T13:23:54Z</time>
      </trkpt>
      <trkpt lat="49.06923" lon="1.74171">
        <ele>144</ele>
        <time>2020-09-13T13:24:01Z</time>
      </trkpt>
      <trkpt lat="49.06933" lon="1.74176">
        <ele>144</ele>
        <time>2020-09-13T13:24:13Z</time>
      </trkpt>
      <trkpt lat="49.06943" lon="1.7418">
        <ele>144</ele>
        <time>2020-09-13T13:24:21Z</time>
      </trkpt>
      <trkpt lat="49.06952" lon="1.74184">
        <ele>144</ele>
        <time>2020-09-13T13:24:34Z</time>
      </trkpt>
      <trkpt lat="49.06961" lon="1.74181">
        <ele>143</ele>
        <time>2020-09-13T13:24:52Z</time>
      </trkpt>
      <trkpt lat="49.06965" lon="1.74162">
        <ele>140</ele>
        <time>2020-09-13T13:25:38Z</time>
      </trkpt>
      <trkpt lat="49.06964" lon="1.74182">
        <ele>143</ele>
        <time>2020-09-13T13:26:57Z</time>
      </trkpt>
      <trkpt lat="49.06974" lon="1.74189">
        <ele>143</ele>
        <time>2020-09-13T13:28:11Z</time>
      </trkpt>
      <trkpt lat="49.06984" lon="1.7419">
        <ele>143</ele>
        <time>2020-09-13T13:28:21Z</time>
      </trkpt>
      <trkpt lat="49.06993" lon="1.74192">
        <ele>143</ele>
        <time>2020-09-13T13:28:28Z</time>
      </trkpt>
      <trkpt lat="49.07004" lon="1.74194">
        <ele>139</ele>
        <time>2020-09-13T13:28:34Z</time>
      </trkpt>
      <trkpt lat="49.07013" lon="1.74197">
        <ele>139</ele>
        <time>2020-09-13T13:28:40Z</time>
      </trkpt>
      <trkpt lat="49.07023" lon="1.74202">
        <ele>139</ele>
        <time>2020-09-13T13:28:49Z</time>
      </trkpt>
      <trkpt lat="49.07033" lon="1.74209">
        <ele>138</ele>
        <time>2020-09-13T13:29:00Z</time>
      </trkpt>
      <trkpt lat="49.07041" lon="1.74217">
        <ele>138</ele>
        <time>2020-09-13T13:29:08Z</time>
      </trkpt>
      <trkpt lat="49.07051" lon="1.74225">
        <ele>137</ele>
        <time>2020-09-13T13:29:16Z</time>
      </trkpt>
      <trkpt lat="49.0706" lon="1.74234">
        <ele>137</ele>
        <time>2020-09-13T13:29:23Z</time>
      </trkpt>
      <trkpt lat="49.07068" lon="1.74242">
        <ele>136</ele>
        <time>2020-09-13T13:29:29Z</time>
      </trkpt>
      <trkpt lat="49.07076" lon="1.74252">
        <ele>135</ele>
        <time>2020-09-13T13:29:36Z</time>
      </trkpt>
      <trkpt lat="49.07084" lon="1.74264">
        <ele>131</ele>
        <time>2020-09-13T13:29:44Z</time>
      </trkpt>
      <trkpt lat="49.07091" lon="1.74276">
        <ele>130</ele>
        <time>2020-09-13T13:29:52Z</time>
      </trkpt>
      <trkpt lat="49.07096" lon="1.74289">
        <ele>129</ele>
        <time>2020-09-13T13:30:00Z</time>
      </trkpt>
      <trkpt lat="49.07101" lon="1.74303">
        <ele>129</ele>
        <time>2020-09-13T13:30:08Z</time>
      </trkpt>
      <trkpt lat="49.07106" lon="1.74317">
        <ele>129</ele>
        <time>2020-09-13T13:30:16Z</time>
      </trkpt>
      <trkpt lat="49.07112" lon="1.74332">
        <ele>129</ele>
        <time>2020-09-13T13:30:24Z</time>
      </trkpt>
      <trkpt lat="49.07116" lon="1.74347">
        <ele>130</ele>
        <time>2020-09-13T13:30:32Z</time>
      </trkpt>
      <trkpt lat="49.07122" lon="1.74362">
        <ele>130</ele>
        <time>2020-09-13T13:30:40Z</time>
      </trkpt>
      <trkpt lat="49.07129" lon="1.74372">
        <ele>130</ele>
        <time>2020-09-13T13:30:46Z</time>
      </trkpt>
      <trkpt lat="49.07136" lon="1.74383">
        <ele>130</ele>
        <time>2020-09-13T13:30:57Z</time>
      </trkpt>
      <trkpt lat="49.0714" lon="1.74396">
        <ele>130</ele>
        <time>2020-09-13T13:31:06Z</time>
      </trkpt>
      <trkpt lat="49.07149" lon="1.74407">
        <ele>129</ele>
        <time>2020-09-13T13:31:14Z</time>
      </trkpt>
      <trkpt lat="49.07158" lon="1.74417">
        <ele>129</ele>
        <time>2020-09-13T13:31:22Z</time>
      </trkpt>
      <trkpt lat="49.07167" lon="1.74426">
        <ele>127</ele>
        <time>2020-09-13T13:31:30Z</time>
      </trkpt>
      <trkpt lat="49.07175" lon="1.74436">
        <ele>126</ele>
        <time>2020-09-13T13:31:37Z</time>
      </trkpt>
      <trkpt lat="49.07185" lon="1.74444">
        <ele>126</ele>
        <time>2020-09-13T13:31:45Z</time>
      </trkpt>
      <trkpt lat="49.07193" lon="1.74454">
        <ele>125</ele>
        <time>2020-09-13T13:31:54Z</time>
      </trkpt>
      <trkpt lat="49.07199" lon="1.74466">
        <ele>125</ele>
        <time>2020-09-13T13:32:03Z</time>
      </trkpt>
      <trkpt lat="49.07204" lon="1.74477">
        <ele>125</ele>
        <time>2020-09-13T13:32:09Z</time>
      </trkpt>
      <trkpt lat="49.07209" lon="1.74492">
        <ele>124</ele>
        <time>2020-09-13T13:32:17Z</time>
      </trkpt>
      <trkpt lat="49.07217" lon="1.74502">
        <ele>124</ele>
        <time>2020-09-13T13:32:23Z</time>
      </trkpt>
      <trkpt lat="49.07227" lon="1.74508">
        <ele>123</ele>
        <time>2020-09-13T13:32:29Z</time>
      </trkpt>
      <trkpt lat="49.07237" lon="1.74513">
        <ele>122</ele>
        <time>2020-09-13T13:32:36Z</time>
      </trkpt>
      <trkpt lat="49.07246" lon="1.74519">
        <ele>122</ele>
        <time>2020-09-13T13:32:42Z</time>
      </trkpt>
      <trkpt lat="49.07254" lon="1.74528">
        <ele>122</ele>
        <time>2020-09-13T13:32:49Z</time>
      </trkpt>
      <trkpt lat="49.07263" lon="1.74533">
        <ele>122</ele>
        <time>2020-09-13T13:32:56Z</time>
      </trkpt>
      <trkpt lat="49.07274" lon="1.74538">
        <ele>122</ele>
        <time>2020-09-13T13:33:05Z</time>
      </trkpt>
      <trkpt lat="49.07284" lon="1.74542">
        <ele>122</ele>
        <time>2020-09-13T13:33:14Z</time>
      </trkpt>
      <trkpt lat="49.07294" lon="1.74546">
        <ele>123</ele>
        <time>2020-09-13T13:33:34Z</time>
      </trkpt>
      <trkpt lat="49.07304" lon="1.74547">
        <ele>123</ele>
        <time>2020-09-13T13:33:42Z</time>
      </trkpt>
      <trkpt lat="49.07314" lon="1.74554">
        <ele>123</ele>
        <time>2020-09-13T13:33:51Z</time>
      </trkpt>
      <trkpt lat="49.07324" lon="1.74557">
        <ele>123</ele>
        <time>2020-09-13T13:33:59Z</time>
      </trkpt>
      <trkpt lat="49.07335" lon="1.7456">
        <ele>125</ele>
        <time>2020-09-13T13:34:07Z</time>
      </trkpt>
      <trkpt lat="49.07344" lon="1.74567">
        <ele>125</ele>
        <time>2020-09-13T13:34:16Z</time>
      </trkpt>
      <trkpt lat="49.07354" lon="1.7457">
        <ele>125</ele>
        <time>2020-09-13T13:34:23Z</time>
      </trkpt>
      <trkpt lat="49.07365" lon="1.74574">
        <ele>125</ele>
        <time>2020-09-13T13:34:29Z</time>
      </trkpt>
      <trkpt lat="49.07375" lon="1.74578">
        <ele>125</ele>
        <time>2020-09-13T13:34:37Z</time>
      </trkpt>
      <trkpt lat="49.07384" lon="1.74582">
        <ele>125</ele>
        <time>2020-09-13T13:34:46Z</time>
      </trkpt>
      <trkpt lat="49.07394" lon="1.74587">
        <ele>126</ele>
        <time>2020-09-13T13:34:54Z</time>
      </trkpt>
      <trkpt lat="49.07404" lon="1.74592">
        <ele>126</ele>
        <time>2020-09-13T13:35:02Z</time>
      </trkpt>
      <trkpt lat="49.07414" lon="1.74595">
        <ele>126</ele>
        <time>2020-09-13T13:35:10Z</time>
      </trkpt>
      <trkpt lat="49.07424" lon="1.746">
        <ele>128</ele>
        <time>2020-09-13T13:35:18Z</time>
      </trkpt>
      <trkpt lat="49.07434" lon="1.74601">
        <ele>129</ele>
        <time>2020-09-13T13:35:27Z</time>
      </trkpt>
      <trkpt lat="49.07442" lon="1.74608">
        <ele>130</ele>
        <time>2020-09-13T13:35:33Z</time>
      </trkpt>
      <trkpt lat="49.07452" lon="1.74613">
        <ele>130</ele>
        <time>2020-09-13T13:35:40Z</time>
      </trkpt>
      <trkpt lat="49.07462" lon="1.74614">
        <ele>130</ele>
        <time>2020-09-13T13:35:47Z</time>
      </trkpt>
      <trkpt lat="49.07472" lon="1.74614">
        <ele>131</ele>
        <time>2020-09-13T13:35:55Z</time>
      </trkpt>
      <trkpt lat="49.07482" lon="1.7462">
        <ele>131</ele>
        <time>2020-09-13T13:36:03Z</time>
      </trkpt>
      <trkpt lat="49.07491" lon="1.74625">
        <ele>131</ele>
        <time>2020-09-13T13:36:10Z</time>
      </trkpt>
      <trkpt lat="49.07501" lon="1.7463">
        <ele>133</ele>
        <time>2020-09-13T13:36:18Z</time>
      </trkpt>
      <trkpt lat="49.0751" lon="1.74635">
        <ele>133</ele>
        <time>2020-09-13T13:36:26Z</time>
      </trkpt>
      <trkpt lat="49.07521" lon="1.74639">
        <ele>133</ele>
        <time>2020-09-13T13:36:36Z</time>
      </trkpt>
      <trkpt lat="49.07531" lon="1.7464">
        <ele>133</ele>
        <time>2020-09-13T13:36:44Z</time>
      </trkpt>
      <trkpt lat="49.07541" lon="1.74646">
        <ele>133</ele>
        <time>2020-09-13T13:36:50Z</time>
      </trkpt>
      <trkpt lat="49.07551" lon="1.74655">
        <ele>134</ele>
        <time>2020-09-13T13:36:58Z</time>
      </trkpt>
      <trkpt lat="49.07561" lon="1.74661">
        <ele>134</ele>
        <time>2020-09-13T13:37:06Z</time>
      </trkpt>
      <trkpt lat="49.0757" lon="1.74667">
        <ele>136</ele>
        <time>2020-09-13T13:37:15Z</time>
      </trkpt>
      <trkpt lat="49.0758" lon="1.74672">
        <ele>136</ele>
        <time>2020-09-13T13:37:24Z</time>
      </trkpt>
      <trkpt lat="49.07591" lon="1.74675">
        <ele>136</ele>
        <time>2020-09-13T13:37:33Z</time>
      </trkpt>
      <trkpt lat="49.07602" lon="1.74679">
        <ele>136</ele>
        <time>2020-09-13T13:37:41Z</time>
      </trkpt>
      <trkpt lat="49.07612" lon="1.74684">
        <ele>137</ele>
        <time>2020-09-13T13:37:51Z</time>
      </trkpt>
      <trkpt lat="49.07621" lon="1.74694">
        <ele>137</ele>
        <time>2020-09-13T13:37:59Z</time>
      </trkpt>
      <trkpt lat="49.0763" lon="1.74703">
        <ele>137</ele>
        <time>2020-09-13T13:38:08Z</time>
      </trkpt>
      <trkpt lat="49.07637" lon="1.74713">
        <ele>138</ele>
        <time>2020-09-13T13:38:16Z</time>
      </trkpt>
      <trkpt lat="49.07645" lon="1.74724">
        <ele>138</ele>
        <time>2020-09-13T13:38:24Z</time>
      </trkpt>
      <trkpt lat="49.07653" lon="1.74735">
        <ele>138</ele>
        <time>2020-09-13T13:38:32Z</time>
      </trkpt>
      <trkpt lat="49.0766" lon="1.74746">
        <ele>139</ele>
        <time>2020-09-13T13:38:41Z</time>
      </trkpt>
      <trkpt lat="49.07669" lon="1.74747">
        <ele>139</ele>
        <time>2020-09-13T13:38:49Z</time>
      </trkpt>
      <trkpt lat="49.07679" lon="1.74742">
        <ele>138</ele>
        <time>2020-09-13T13:38:58Z</time>
      </trkpt>
      <trkpt lat="49.07687" lon="1.74733">
        <ele>138</ele>
        <time>2020-09-13T13:39:06Z</time>
      </trkpt>
      <trkpt lat="49.07695" lon="1.74727">
        <ele>138</ele>
        <time>2020-09-13T13:39:14Z</time>
      </trkpt>
      <trkpt lat="49.07703" lon="1.74719">
        <ele>137</ele>
        <time>2020-09-13T13:39:22Z</time>
      </trkpt>
      <trkpt lat="49.07711" lon="1.74709">
        <ele>137</ele>
        <time>2020-09-13T13:39:30Z</time>
      </trkpt>
      <trkpt lat="49.07721" lon="1.74702">
        <ele>137</ele>
        <time>2020-09-13T13:39:37Z</time>
      </trkpt>
      <trkpt lat="49.0773" lon="1.74695">
        <ele>137</ele>
        <time>2020-09-13T13:39:47Z</time>
      </trkpt>
      <trkpt lat="49.07738" lon="1.74686">
        <ele>137</ele>
        <time>2020-09-13T13:39:55Z</time>
      </trkpt>
      <trkpt lat="49.07747" lon="1.74677">
        <ele>138</ele>
        <time>2020-09-13T13:40:03Z</time>
      </trkpt>
      <trkpt lat="49.07754" lon="1.74666">
        <ele>138</ele>
        <time>2020-09-13T13:40:11Z</time>
      </trkpt>
      <trkpt lat="49.07763" lon="1.74657">
        <ele>139</ele>
        <time>2020-09-13T13:40:18Z</time>
      </trkpt>
      <trkpt lat="49.07772" lon="1.74648">
        <ele>140</ele>
        <time>2020-09-13T13:40:26Z</time>
      </trkpt>
      <trkpt lat="49.07778" lon="1.74634">
        <ele>140</ele>
        <time>2020-09-13T13:40:34Z</time>
      </trkpt>
      <trkpt lat="49.07785" lon="1.74621">
        <ele>141</ele>
        <time>2020-09-13T13:40:41Z</time>
      </trkpt>
      <trkpt lat="49.07792" lon="1.74613">
        <ele>141</ele>
        <time>2020-09-13T13:40:48Z</time>
      </trkpt>
      <trkpt lat="49.07799" lon="1.74599">
        <ele>141</ele>
        <time>2020-09-13T13:40:57Z</time>
      </trkpt>
      <trkpt lat="49.07804" lon="1.74584">
        <ele>141</ele>
        <time>2020-09-13T13:41:04Z</time>
      </trkpt>
      <trkpt lat="49.07807" lon="1.7457">
        <ele>142</ele>
        <time>2020-09-13T13:41:11Z</time>
      </trkpt>
      <trkpt lat="49.07812" lon="1.74559">
        <ele>142</ele>
        <time>2020-09-13T13:41:17Z</time>
      </trkpt>
      <trkpt lat="49.0782" lon="1.74545">
        <ele>143</ele>
        <time>2020-09-13T13:41:25Z</time>
      </trkpt>
      <trkpt lat="49.07827" lon="1.74532">
        <ele>143</ele>
        <time>2020-09-13T13:41:33Z</time>
      </trkpt>
      <trkpt lat="49.07832" lon="1.74519">
        <ele>143</ele>
        <time>2020-09-13T13:41:41Z</time>
      </trkpt>
      <trkpt lat="49.07837" lon="1.74505">
        <ele>144</ele>
        <time>2020-09-13T13:41:49Z</time>
      </trkpt>
      <trkpt lat="49.07847" lon="1.74515">
        <ele>144</ele>
        <time>2020-09-13T13:42:02Z</time>
      </trkpt>
      <trkpt lat="49.07853" lon="1.74528">
        <ele>144</ele>
        <time>2020-09-13T13:42:11Z</time>
      </trkpt>
      <trkpt lat="49.07861" lon="1.74538">
        <ele>143</ele>
        <time>2020-09-13T13:42:18Z</time>
      </trkpt>
      <trkpt lat="49.07871" lon="1.74544">
        <ele>143</ele>
        <time>2020-09-13T13:42:25Z</time>
      </trkpt>
      <trkpt lat="49.07881" lon="1.74551">
        <ele>143</ele>
        <time>2020-09-13T13:42:33Z</time>
      </trkpt>
      <trkpt lat="49.07891" lon="1.74554">
        <ele>144</ele>
        <time>2020-09-13T13:42:41Z</time>
      </trkpt>
      <trkpt lat="49.07901" lon="1.74557">
        <ele>144</ele>
        <time>2020-09-13T13:42:49Z</time>
      </trkpt>
      <trkpt lat="49.07911" lon="1.74563">
        <ele>144</ele>
        <time>2020-09-13T13:42:58Z</time>
      </trkpt>
      <trkpt lat="49.07921" lon="1.7457">
        <ele>144</ele>
        <time>2020-09-13T13:43:06Z</time>
      </trkpt>
      <trkpt lat="49.07928" lon="1.74578">
        <ele>144</ele>
        <time>2020-09-13T13:43:12Z</time>
      </trkpt>
      <trkpt lat="49.07936" lon="1.74587">
        <ele>145</ele>
        <time>2020-09-13T13:43:20Z</time>
      </trkpt>
      <trkpt lat="49.07943" lon="1.74598">
        <ele>146</ele>
        <time>2020-09-13T13:43:28Z</time>
      </trkpt>
      <trkpt lat="49.0795" lon="1.74611">
        <ele>146</ele>
        <time>2020-09-13T13:43:36Z</time>
      </trkpt>
      <trkpt lat="49.07954" lon="1.74624">
        <ele>147</ele>
        <time>2020-09-13T13:43:43Z</time>
      </trkpt>
      <trkpt lat="49.07958" lon="1.74637">
        <ele>147</ele>
        <time>2020-09-13T13:43:49Z</time>
      </trkpt>
      <trkpt lat="49.0796" lon="1.74654">
        <ele>147</ele>
        <time>2020-09-13T13:43:57Z</time>
      </trkpt>
      <trkpt lat="49.0796" lon="1.7467">
        <ele>150</ele>
        <time>2020-09-13T13:44:07Z</time>
      </trkpt>
      <trkpt lat="49.07966" lon="1.74681">
        <ele>151</ele>
        <time>2020-09-13T13:44:16Z</time>
      </trkpt>
      <trkpt lat="49.07976" lon="1.74683">
        <ele>151</ele>
        <time>2020-09-13T13:44:37Z</time>
      </trkpt>
      <trkpt lat="49.07986" lon="1.74679">
        <ele>150</ele>
        <time>2020-09-13T13:44:45Z</time>
      </trkpt>
      <trkpt lat="49.07995" lon="1.74677">
        <ele>150</ele>
        <time>2020-09-13T13:44:52Z</time>
      </trkpt>
      <trkpt lat="49.08002" lon="1.74688">
        <ele>153</ele>
        <time>2020-09-13T13:45:01Z</time>
      </trkpt>
      <trkpt lat="49.0801" lon="1.74702">
        <ele>154</ele>
        <time>2020-09-13T13:45:09Z</time>
      </trkpt>
      <trkpt lat="49.08019" lon="1.7471">
        <ele>154</ele>
        <time>2020-09-13T13:45:16Z</time>
      </trkpt>
      <trkpt lat="49.08026" lon="1.74721">
        <ele>155</ele>
        <time>2020-09-13T13:45:25Z</time>
      </trkpt>
      <trkpt lat="49.08035" lon="1.74731">
        <ele>156</ele>
        <time>2020-09-13T13:45:33Z</time>
      </trkpt>
      <trkpt lat="49.08043" lon="1.74741">
        <ele>156</ele>
        <time>2020-09-13T13:45:43Z</time>
      </trkpt>
      <trkpt lat="49.08045" lon="1.74759">
        <ele>161</ele>
        <time>2020-09-13T13:46:52Z</time>
      </trkpt>
      <trkpt lat="49.08054" lon="1.74758">
        <ele>161</ele>
        <time>2020-09-13T13:47:40Z</time>
      </trkpt>
      <trkpt lat="49.0806" lon="1.74769">
        <ele>162</ele>
        <time>2020-09-13T13:47:51Z</time>
      </trkpt>
      <trkpt lat="49.08065" lon="1.74783">
        <ele>162</ele>
        <time>2020-09-13T13:48:04Z</time>
      </trkpt>
      <trkpt lat="49.0807" lon="1.74797">
        <ele>163</ele>
        <time>2020-09-13T13:48:18Z</time>
      </trkpt>
      <trkpt lat="49.0808" lon="1.74806">
        <ele>164</ele>
        <time>2020-09-13T13:48:26Z</time>
      </trkpt>
      <trkpt lat="49.08089" lon="1.74815">
        <ele>167</ele>
        <time>2020-09-13T13:48:34Z</time>
      </trkpt>
      <trkpt lat="49.08096" lon="1.74826">
        <ele>167</ele>
        <time>2020-09-13T13:48:45Z</time>
      </trkpt>
      <trkpt lat="49.08105" lon="1.74835">
        <ele>170</ele>
        <time>2020-09-13T13:48:55Z</time>
      </trkpt>
      <trkpt lat="49.08112" lon="1.74845">
        <ele>171</ele>
        <time>2020-09-13T13:49:05Z</time>
      </trkpt>
      <trkpt lat="49.08119" lon="1.74857">
        <ele>172</ele>
        <time>2020-09-13T13:49:15Z</time>
      </trkpt>
      <trkpt lat="49.08127" lon="1.74868">
        <ele>172</ele>
        <time>2020-09-13T13:49:24Z</time>
      </trkpt>
      <trkpt lat="49.08133" lon="1.74878">
        <ele>173</ele>
        <time>2020-09-13T13:49:33Z</time>
      </trkpt>
      <trkpt lat="49.08138" lon="1.74891">
        <ele>174</ele>
        <time>2020-09-13T13:49:42Z</time>
      </trkpt>
      <trkpt lat="49.08138" lon="1.74907">
        <ele>174</ele>
        <time>2020-09-13T13:49:51Z</time>
      </trkpt>
      <trkpt lat="49.08137" lon="1.74923">
        <ele>177</ele>
        <time>2020-09-13T13:50:00Z</time>
      </trkpt>
      <trkpt lat="49.0814" lon="1.74939">
        <ele>177</ele>
        <time>2020-09-13T13:50:10Z</time>
      </trkpt>
      <trkpt lat="49.08142" lon="1.74952">
        <ele>177</ele>
        <time>2020-09-13T13:50:19Z</time>
      </trkpt>
      <trkpt lat="49.08146" lon="1.74966">
        <ele>178</ele>
        <time>2020-09-13T13:50:29Z</time>
      </trkpt>
      <trkpt lat="49.08149" lon="1.74979">
        <ele>178</ele>
        <time>2020-09-13T13:50:38Z</time>
      </trkpt>
      <trkpt lat="49.08154" lon="1.74992">
        <ele>180</ele>
        <time>2020-09-13T13:50:47Z</time>
      </trkpt>
      <trkpt lat="49.08157" lon="1.75005">
        <ele>181</ele>
        <time>2020-09-13T13:50:57Z</time>
      </trkpt>
      <trkpt lat="49.08156" lon="1.7502">
        <ele>181</ele>
        <time>2020-09-13T13:51:06Z</time>
      </trkpt>
      <trkpt lat="49.08158" lon="1.75035">
        <ele>181</ele>
        <time>2020-09-13T13:51:15Z</time>
      </trkpt>
      <trkpt lat="49.08159" lon="1.75051">
        <ele>181</ele>
        <time>2020-09-13T13:51:27Z</time>
      </trkpt>
      <trkpt lat="49.08161" lon="1.75065">
        <ele>182</ele>
        <time>2020-09-13T13:51:37Z</time>
      </trkpt>
      <trkpt lat="49.08161" lon="1.7508">
        <ele>184</ele>
        <time>2020-09-13T13:51:47Z</time>
      </trkpt>
      <trkpt lat="49.08163" lon="1.75094">
        <ele>184</ele>
        <time>2020-09-13T13:51:58Z</time>
      </trkpt>
      <trkpt lat="49.08161" lon="1.75108">
        <ele>183</ele>
        <time>2020-09-13T13:52:10Z</time>
      </trkpt>
      <trkpt lat="49.08162" lon="1.75126">
        <ele>183</ele>
        <time>2020-09-13T13:52:20Z</time>
      </trkpt>
      <trkpt lat="49.08164" lon="1.7514">
        <ele>184</ele>
        <time>2020-09-13T13:52:30Z</time>
      </trkpt>
      <trkpt lat="49.08169" lon="1.75154">
        <ele>188</ele>
        <time>2020-09-13T13:52:41Z</time>
      </trkpt>
      <trkpt lat="49.08175" lon="1.75165">
        <ele>188</ele>
        <time>2020-09-13T13:52:53Z</time>
      </trkpt>
      <trkpt lat="49.08182" lon="1.75176">
        <ele>191</ele>
        <time>2020-09-13T13:53:01Z</time>
      </trkpt>
      <trkpt lat="49.08189" lon="1.75187">
        <ele>192</ele>
        <time>2020-09-13T13:53:09Z</time>
      </trkpt>
      <trkpt lat="49.08198" lon="1.75196">
        <ele>193</ele>
        <time>2020-09-13T13:53:17Z</time>
      </trkpt>
      <trkpt lat="49.08206" lon="1.75205">
        <ele>194</ele>
        <time>2020-09-13T13:53:26Z</time>
      </trkpt>
      <trkpt lat="49.08215" lon="1.75216">
        <ele>195</ele>
        <time>2020-09-13T13:53:34Z</time>
      </trkpt>
      <trkpt lat="49.08223" lon="1.75224">
        <ele>195</ele>
        <time>2020-09-13T13:53:42Z</time>
      </trkpt>
      <trkpt lat="49.08232" lon="1.75229">
        <ele>196</ele>
        <time>2020-09-13T13:53:52Z</time>
      </trkpt>
      <trkpt lat="49.0824" lon="1.75238">
        <ele>197</ele>
        <time>2020-09-13T13:54:02Z</time>
      </trkpt>
      <trkpt lat="49.0825" lon="1.75244">
        <ele>199</ele>
        <time>2020-09-13T13:54:10Z</time>
      </trkpt>
      <trkpt lat="49.0826" lon="1.7525">
        <ele>200</ele>
        <time>2020-09-13T13:54:18Z</time>
      </trkpt>
      <trkpt lat="49.0827" lon="1.75254">
        <ele>201</ele>
        <time>2020-09-13T13:54:27Z</time>
      </trkpt>
      <trkpt lat="49.0828" lon="1.75258">
        <ele>201</ele>
        <time>2020-09-13T13:54:35Z</time>
      </trkpt>
      <trkpt lat="49.0829" lon="1.75264">
        <ele>202</ele>
        <time>2020-09-13T13:54:43Z</time>
      </trkpt>
      <trkpt lat="49.08299" lon="1.75268">
        <ele>202</ele>
        <time>2020-09-13T13:54:51Z</time>
      </trkpt>
      <trkpt lat="49.08309" lon="1.75272">
        <ele>202</ele>
        <time>2020-09-13T13:54:58Z</time>
      </trkpt>
      <trkpt lat="49.08319" lon="1.75275">
        <ele>202</ele>
        <time>2020-09-13T13:55:05Z</time>
      </trkpt>
      <trkpt lat="49.08328" lon="1.75277">
        <ele>202</ele>
        <time>2020-09-13T13:55:16Z</time>
      </trkpt>
      <trkpt lat="49.08338" lon="1.7528">
        <ele>203</ele>
        <time>2020-09-13T13:55:27Z</time>
      </trkpt>
      <trkpt lat="49.08349" lon="1.75287">
        <ele>204</ele>
        <time>2020-09-13T13:55:36Z</time>
      </trkpt>
      <trkpt lat="49.08358" lon="1.75294">
        <ele>204</ele>
        <time>2020-09-13T13:55:43Z</time>
      </trkpt>
      <trkpt lat="49.08366" lon="1.75301">
        <ele>204</ele>
        <time>2020-09-13T13:55:52Z</time>
      </trkpt>
      <trkpt lat="49.08376" lon="1.75308">
        <ele>204</ele>
        <time>2020-09-13T13:55:59Z</time>
      </trkpt>
      <trkpt lat="49.08385" lon="1.7531">
        <ele>205</ele>
        <time>2020-09-13T13:56:05Z</time>
      </trkpt>
      <trkpt lat="49.08394" lon="1.75315">
        <ele>205</ele>
        <time>2020-09-13T13:56:13Z</time>
      </trkpt>
      <trkpt lat="49.08403" lon="1.7532">
        <ele>205</ele>
        <time>2020-09-13T13:56:20Z</time>
      </trkpt>
      <trkpt lat="49.08413" lon="1.75327">
        <ele>206</ele>
        <time>2020-09-13T13:56:27Z</time>
      </trkpt>
      <trkpt lat="49.08422" lon="1.75331">
        <ele>206</ele>
        <time>2020-09-13T13:56:35Z</time>
      </trkpt>
      <trkpt lat="49.08432" lon="1.75332">
        <ele>206</ele>
        <time>2020-09-13T13:56:45Z</time>
      </trkpt>
      <trkpt lat="49.08443" lon="1.75331">
        <ele>206</ele>
        <time>2020-09-13T13:56:55Z</time>
      </trkpt>
      <trkpt lat="49.08454" lon="1.75331">
        <ele>206</ele>
        <time>2020-09-13T13:57:04Z</time>
      </trkpt>
      <trkpt lat="49.08463" lon="1.75331">
        <ele>207</ele>
        <time>2020-09-13T13:57:36Z</time>
      </trkpt>
      <trkpt lat="49.08472" lon="1.75331">
        <ele>207</ele>
        <time>2020-09-13T13:57:44Z</time>
      </trkpt>
      <trkpt lat="49.08482" lon="1.7533">
        <ele>207</ele>
        <time>2020-09-13T13:57:53Z</time>
      </trkpt>
      <trkpt lat="49.08492" lon="1.7533">
        <ele>207</ele>
        <time>2020-09-13T13:58:00Z</time>
      </trkpt>
      <trkpt lat="49.08502" lon="1.75327">
        <ele>207</ele>
        <time>2020-09-13T13:58:07Z</time>
      </trkpt>
      <trkpt lat="49.08513" lon="1.75329">
        <ele>207</ele>
        <time>2020-09-13T13:58:16Z</time>
      </trkpt>
      <trkpt lat="49.08522" lon="1.7533">
        <ele>207</ele>
        <time>2020-09-13T13:58:25Z</time>
      </trkpt>
      <trkpt lat="49.08533" lon="1.7533">
        <ele>207</ele>
        <time>2020-09-13T13:58:33Z</time>
      </trkpt>
      <trkpt lat="49.08543" lon="1.75329">
        <ele>207</ele>
        <time>2020-09-13T13:58:40Z</time>
      </trkpt>
      <trkpt lat="49.08554" lon="1.75329">
        <ele>207</ele>
        <time>2020-09-13T13:58:49Z</time>
      </trkpt>
      <trkpt lat="49.08563" lon="1.75337">
        <ele>206</ele>
        <time>2020-09-13T13:58:59Z</time>
      </trkpt>
      <trkpt lat="49.08571" lon="1.75346">
        <ele>206</ele>
        <time>2020-09-13T13:59:09Z</time>
      </trkpt>
      <trkpt lat="49.08579" lon="1.75355">
        <ele>206</ele>
        <time>2020-09-13T13:59:17Z</time>
      </trkpt>
      <trkpt lat="49.08589" lon="1.75364">
        <ele>206</ele>
        <time>2020-09-13T13:59:25Z</time>
      </trkpt>
      <trkpt lat="49.08596" lon="1.75373">
        <ele>206</ele>
        <time>2020-09-13T13:59:33Z</time>
      </trkpt>
      <trkpt lat="49.08604" lon="1.75383">
        <ele>206</ele>
        <time>2020-09-13T13:59:42Z</time>
      </trkpt>
      <trkpt lat="49.08613" lon="1.75392">
        <ele>206</ele>
        <time>2020-09-13T13:59:50Z</time>
      </trkpt>
      <trkpt lat="49.08623" lon="1.75398">
        <ele>206</ele>
        <time>2020-09-13T13:59:57Z</time>
      </trkpt>
      <trkpt lat="49.08632" lon="1.75405">
        <ele>206</ele>
        <time>2020-09-13T14:00:03Z</time>
      </trkpt>
      <trkpt lat="49.08642" lon="1.75411">
        <ele>206</ele>
        <time>2020-09-13T14:00:10Z</time>
      </trkpt>
      <trkpt lat="49.08652" lon="1.75413">
        <ele>207</ele>
        <time>2020-09-13T14:00:19Z</time>
      </trkpt>
      <trkpt lat="49.08662" lon="1.75417">
        <ele>208</ele>
        <time>2020-09-13T14:00:29Z</time>
      </trkpt>
      <trkpt lat="49.08672" lon="1.75422">
        <ele>209</ele>
        <time>2020-09-13T14:00:38Z</time>
      </trkpt>
      <trkpt lat="49.08682" lon="1.75427">
        <ele>209</ele>
        <time>2020-09-13T14:00:47Z</time>
      </trkpt>
      <trkpt lat="49.0869" lon="1.75438">
        <ele>210</ele>
        <time>2020-09-13T14:00:55Z</time>
      </trkpt>
      <trkpt lat="49.08699" lon="1.75446">
        <ele>210</ele>
        <time>2020-09-13T14:01:04Z</time>
      </trkpt>
      <trkpt lat="49.0871" lon="1.7545">
        <ele>210</ele>
        <time>2020-09-13T14:01:14Z</time>
      </trkpt>
      <trkpt lat="49.08719" lon="1.75454">
        <ele>211</ele>
        <time>2020-09-13T14:01:22Z</time>
      </trkpt>
      <trkpt lat="49.08728" lon="1.75462">
        <ele>211</ele>
        <time>2020-09-13T14:01:28Z</time>
      </trkpt>
      <trkpt lat="49.08737" lon="1.75471">
        <ele>211</ele>
        <time>2020-09-13T14:01:34Z</time>
      </trkpt>
      <trkpt lat="49.08743" lon="1.75482">
        <ele>212</ele>
        <time>2020-09-13T14:01:43Z</time>
      </trkpt>
      <trkpt lat="49.08747" lon="1.75494">
        <ele>213</ele>
        <time>2020-09-13T14:01:51Z</time>
      </trkpt>
      <trkpt lat="49.08756" lon="1.75501">
        <ele>214</ele>
        <time>2020-09-13T14:01:58Z</time>
      </trkpt>
      <trkpt lat="49.08766" lon="1.75507">
        <ele>214</ele>
        <time>2020-09-13T14:02:04Z</time>
      </trkpt>
      <trkpt lat="49.08773" lon="1.75518">
        <ele>213</ele>
        <time>2020-09-13T14:02:12Z</time>
      </trkpt>
      <trkpt lat="49.08779" lon="1.75531">
        <ele>214</ele>
        <time>2020-09-13T14:02:19Z</time>
      </trkpt>
      <trkpt lat="49.08785" lon="1.75543">
        <ele>214</ele>
        <time>2020-09-13T14:02:27Z</time>
      </trkpt>
      <trkpt lat="49.08786" lon="1.75558">
        <ele>214</ele>
        <time>2020-09-13T14:02:36Z</time>
      </trkpt>
      <trkpt lat="49.08789" lon="1.75573">
        <ele>214</ele>
        <time>2020-09-13T14:02:44Z</time>
      </trkpt>
      <trkpt lat="49.08791" lon="1.75588">
        <ele>215</ele>
        <time>2020-09-13T14:02:53Z</time>
      </trkpt>
      <trkpt lat="49.08792" lon="1.75604">
        <ele>215</ele>
        <time>2020-09-13T14:02:59Z</time>
      </trkpt>
      <trkpt lat="49.08795" lon="1.75618">
        <ele>215</ele>
        <time>2020-09-13T14:03:06Z</time>
      </trkpt>
      <trkpt lat="49.08801" lon="1.7563">
        <ele>215</ele>
        <time>2020-09-13T14:03:16Z</time>
      </trkpt>
      <trkpt lat="49.08806" lon="1.75643">
        <ele>215</ele>
        <time>2020-09-13T14:03:26Z</time>
      </trkpt>
      <trkpt lat="49.08813" lon="1.75655">
        <ele>215</ele>
        <time>2020-09-13T14:03:35Z</time>
      </trkpt>
      <trkpt lat="49.08821" lon="1.75664">
        <ele>215</ele>
        <time>2020-09-13T14:03:43Z</time>
      </trkpt>
      <trkpt lat="49.0883" lon="1.75669">
        <ele>215</ele>
        <time>2020-09-13T14:03:51Z</time>
      </trkpt>
      <trkpt lat="49.08841" lon="1.75673">
        <ele>215</ele>
        <time>2020-09-13T14:03:59Z</time>
      </trkpt>
      <trkpt lat="49.08851" lon="1.75677">
        <ele>214</ele>
        <time>2020-09-13T14:04:05Z</time>
      </trkpt>
      <trkpt lat="49.08862" lon="1.75679">
        <ele>214</ele>
        <time>2020-09-13T14:04:12Z</time>
      </trkpt>
      <trkpt lat="49.08871" lon="1.75681">
        <ele>214</ele>
        <time>2020-09-13T14:04:20Z</time>
      </trkpt>
      <trkpt lat="49.08881" lon="1.75684">
        <ele>214</ele>
        <time>2020-09-13T14:04:31Z</time>
      </trkpt>
      <trkpt lat="49.08892" lon="1.75687">
        <ele>214</ele>
        <time>2020-09-13T14:04:40Z</time>
      </trkpt>
      <trkpt lat="49.08902" lon="1.75688">
        <ele>214</ele>
        <time>2020-09-13T14:04:47Z</time>
      </trkpt>
      <trkpt lat="49.08914" lon="1.75687">
        <ele>214</ele>
        <time>2020-09-13T14:04:55Z</time>
      </trkpt>
      <trkpt lat="49.08923" lon="1.75687">
        <ele>214</ele>
        <time>2020-09-13T14:05:03Z</time>
      </trkpt>
      <trkpt lat="49.08933" lon="1.75688">
        <ele>214</ele>
        <time>2020-09-13T14:05:09Z</time>
      </trkpt>
      <trkpt lat="49.08943" lon="1.75691">
        <ele>214</ele>
        <time>2020-09-13T14:05:17Z</time>
      </trkpt>
      <trkpt lat="49.08952" lon="1.75693">
        <ele>214</ele>
        <time>2020-09-13T14:05:25Z</time>
      </trkpt>
      <trkpt lat="49.08963" lon="1.75696">
        <ele>214</ele>
        <time>2020-09-13T14:05:33Z</time>
      </trkpt>
      <trkpt lat="49.08973" lon="1.75698">
        <ele>214</ele>
        <time>2020-09-13T14:05:40Z</time>
      </trkpt>
      <trkpt lat="49.08985" lon="1.75702">
        <ele>214</ele>
        <time>2020-09-13T14:05:48Z</time>
      </trkpt>
      <trkpt lat="49.08995" lon="1.75704">
        <ele>214</ele>
        <time>2020-09-13T14:05:57Z</time>
      </trkpt>
      <trkpt lat="49.09004" lon="1.75705">
        <ele>214</ele>
        <time>2020-09-13T14:06:16Z</time>
      </trkpt>
      <trkpt lat="49.09011" lon="1.75715">
        <ele>214</ele>
        <time>2020-09-13T14:06:25Z</time>
      </trkpt>
      <trkpt lat="49.09019" lon="1.75726">
        <ele>214</ele>
        <time>2020-09-13T14:06:33Z</time>
      </trkpt>
      <trkpt lat="49.09023" lon="1.75739">
        <ele>214</ele>
        <time>2020-09-13T14:06:42Z</time>
      </trkpt>
      <trkpt lat="49.09024" lon="1.75754">
        <ele>214</ele>
        <time>2020-09-13T14:06:50Z</time>
      </trkpt>
      <trkpt lat="49.09024" lon="1.75771">
        <ele>214</ele>
        <time>2020-09-13T14:06:58Z</time>
      </trkpt>
      <trkpt lat="49.09024" lon="1.75787">
        <ele>214</ele>
        <time>2020-09-13T14:07:07Z</time>
      </trkpt>
      <trkpt lat="49.09022" lon="1.75804">
        <ele>214</ele>
        <time>2020-09-13T14:07:15Z</time>
      </trkpt>
      <trkpt lat="49.09021" lon="1.7582">
        <ele>214</ele>
        <time>2020-09-13T14:07:23Z</time>
      </trkpt>
      <trkpt lat="49.0902" lon="1.75835">
        <ele>214</ele>
        <time>2020-09-13T14:07:31Z</time>
      </trkpt>
      <trkpt lat="49.09021" lon="1.75851">
        <ele>214</ele>
        <time>2020-09-13T14:07:38Z</time>
      </trkpt>
      <trkpt lat="49.09019" lon="1.75868">
        <ele>213</ele>
        <time>2020-09-13T14:07:46Z</time>
      </trkpt>
      <trkpt lat="49.09016" lon="1.75883">
        <ele>213</ele>
        <time>2020-09-13T14:07:54Z</time>
      </trkpt>
      <trkpt lat="49.09018" lon="1.75898">
        <ele>213</ele>
        <time>2020-09-13T14:08:02Z</time>
      </trkpt>
      <trkpt lat="49.09021" lon="1.75913">
        <ele>213</ele>
        <time>2020-09-13T14:08:10Z</time>
      </trkpt>
      <trkpt lat="49.09024" lon="1.7593">
        <ele>213</ele>
        <time>2020-09-13T14:08:18Z</time>
      </trkpt>
      <trkpt lat="49.09024" lon="1.75946">
        <ele>213</ele>
        <time>2020-09-13T14:08:26Z</time>
      </trkpt>
      <trkpt lat="49.09027" lon="1.75962">
        <ele>213</ele>
        <time>2020-09-13T14:08:34Z</time>
      </trkpt>
      <trkpt lat="49.09027" lon="1.75977">
        <ele>213</ele>
        <time>2020-09-13T14:08:42Z</time>
      </trkpt>
      <trkpt lat="49.09027" lon="1.75993">
        <ele>213</ele>
        <time>2020-09-13T14:08:51Z</time>
      </trkpt>
      <trkpt lat="49.09026" lon="1.7601">
        <ele>212</ele>
        <time>2020-09-13T14:08:59Z</time>
      </trkpt>
      <trkpt lat="49.09027" lon="1.76027">
        <ele>212</ele>
        <time>2020-09-13T14:09:07Z</time>
      </trkpt>
      <trkpt lat="49.09028" lon="1.76043">
        <ele>212</ele>
        <time>2020-09-13T14:09:15Z</time>
      </trkpt>
      <trkpt lat="49.09029" lon="1.76057">
        <ele>212</ele>
        <time>2020-09-13T14:09:23Z</time>
      </trkpt>
      <trkpt lat="49.09031" lon="1.76073">
        <ele>212</ele>
        <time>2020-09-13T14:09:31Z</time>
      </trkpt>
      <trkpt lat="49.09035" lon="1.7609">
        <ele>210</ele>
        <time>2020-09-13T14:09:39Z</time>
      </trkpt>
      <trkpt lat="49.09039" lon="1.76105">
        <ele>210</ele>
        <time>2020-09-13T14:09:46Z</time>
      </trkpt>
      <trkpt lat="49.09044" lon="1.76119">
        <ele>209</ele>
        <time>2020-09-13T14:09:53Z</time>
      </trkpt>
      <trkpt lat="49.09048" lon="1.76133">
        <ele>209</ele>
        <time>2020-09-13T14:10:01Z</time>
      </trkpt>
      <trkpt lat="49.0905" lon="1.7615">
        <ele>209</ele>
        <time>2020-09-13T14:10:09Z</time>
      </trkpt>
      <trkpt lat="49.09053" lon="1.76167">
        <ele>209</ele>
        <time>2020-09-13T14:10:17Z</time>
      </trkpt>
      <trkpt lat="49.09057" lon="1.76183">
        <ele>207</ele>
        <time>2020-09-13T14:10:25Z</time>
      </trkpt>
      <trkpt lat="49.09064" lon="1.76195">
        <ele>207</ele>
        <time>2020-09-13T14:10:33Z</time>
      </trkpt>
      <trkpt lat="49.0907" lon="1.76208">
        <ele>206</ele>
        <time>2020-09-13T14:10:41Z</time>
      </trkpt>
      <trkpt lat="49.09076" lon="1.76221">
        <ele>206</ele>
        <time>2020-09-13T14:10:50Z</time>
      </trkpt>
      <trkpt lat="49.09082" lon="1.76233">
        <ele>206</ele>
        <time>2020-09-13T14:10:58Z</time>
      </trkpt>
      <trkpt lat="49.09088" lon="1.76245">
        <ele>205</ele>
        <time>2020-09-13T14:11:06Z</time>
      </trkpt>
      <trkpt lat="49.09094" lon="1.76258">
        <ele>204</ele>
        <time>2020-09-13T14:11:15Z</time>
      </trkpt>
      <trkpt lat="49.09098" lon="1.76273">
        <ele>203</ele>
        <time>2020-09-13T14:11:24Z</time>
      </trkpt>
      <trkpt lat="49.09103" lon="1.76285">
        <ele>202</ele>
        <time>2020-09-13T14:11:31Z</time>
      </trkpt>
      <trkpt lat="49.09109" lon="1.76297">
        <ele>202</ele>
        <time>2020-09-13T14:11:37Z</time>
      </trkpt>
      <trkpt lat="49.09114" lon="1.76309">
        <ele>202</ele>
        <time>2020-09-13T14:11:44Z</time>
      </trkpt>
      <trkpt lat="49.09125" lon="1.76321">
        <ele>202</ele>
        <time>2020-09-13T14:12:39Z</time>
      </trkpt>
      <trkpt lat="49.09131" lon="1.76333">
        <ele>202</ele>
        <time>2020-09-13T14:12:47Z</time>
      </trkpt>
      <trkpt lat="49.09137" lon="1.76346">
        <ele>201</ele>
        <time>2020-09-13T14:12:55Z</time>
      </trkpt>
      <trkpt lat="49.09143" lon="1.7636">
        <ele>201</ele>
        <time>2020-09-13T14:13:05Z</time>
      </trkpt>
      <trkpt lat="49.09132" lon="1.76353">
        <ele>201</ele>
        <time>2020-09-13T14:13:41Z</time>
      </trkpt>
      <trkpt lat="49.09123" lon="1.76342">
        <ele>201</ele>
        <time>2020-09-13T14:13:50Z</time>
      </trkpt>
      <trkpt lat="49.09115" lon="1.76334">
        <ele>201</ele>
        <time>2020-09-13T14:13:57Z</time>
      </trkpt>
      <trkpt lat="49.09107" lon="1.76323">
        <ele>202</ele>
        <time>2020-09-13T14:14:05Z</time>
      </trkpt>
      <trkpt lat="49.09099" lon="1.76312">
        <ele>202</ele>
        <time>2020-09-13T14:14:13Z</time>
      </trkpt>
      <trkpt lat="49.09089" lon="1.76307">
        <ele>202</ele>
        <time>2020-09-13T14:14:23Z</time>
      </trkpt>
      <trkpt lat="49.09078" lon="1.76305">
        <ele>203</ele>
        <time>2020-09-13T14:14:29Z</time>
      </trkpt>
      <trkpt lat="49.09069" lon="1.76306">
        <ele>203</ele>
        <time>2020-09-13T14:14:35Z</time>
      </trkpt>
      <trkpt lat="49.09057" lon="1.76307">
        <ele>203</ele>
        <time>2020-09-13T14:14:44Z</time>
      </trkpt>
      <trkpt lat="49.09047" lon="1.76305">
        <ele>203</ele>
        <time>2020-09-13T14:14:55Z</time>
      </trkpt>
      <trkpt lat="49.09036" lon="1.76304">
        <ele>203</ele>
        <time>2020-09-13T14:15:05Z</time>
      </trkpt>
      <trkpt lat="49.09025" lon="1.76304">
        <ele>203</ele>
        <time>2020-09-13T14:15:13Z</time>
      </trkpt>
      <trkpt lat="49.09015" lon="1.76302">
        <ele>203</ele>
        <time>2020-09-13T14:15:20Z</time>
      </trkpt>
      <trkpt lat="49.09004" lon="1.76298">
        <ele>203</ele>
        <time>2020-09-13T14:15:29Z</time>
      </trkpt>
      <trkpt lat="49.08994" lon="1.76297">
        <ele>203</ele>
        <time>2020-09-13T14:15:37Z</time>
      </trkpt>
      <trkpt lat="49.08983" lon="1.76297">
        <ele>203</ele>
        <time>2020-09-13T14:15:44Z</time>
      </trkpt>
      <trkpt lat="49.08977" lon="1.76286">
        <ele>203</ele>
        <time>2020-09-13T14:15:53Z</time>
      </trkpt>
      <trkpt lat="49.08978" lon="1.7627">
        <ele>204</ele>
        <time>2020-09-13T14:16:00Z</time>
      </trkpt>
      <trkpt lat="49.08979" lon="1.76256">
        <ele>204</ele>
        <time>2020-09-13T14:16:06Z</time>
      </trkpt>
      <trkpt lat="49.08982" lon="1.76239">
        <ele>205</ele>
        <time>2020-09-13T14:16:14Z</time>
      </trkpt>
      <trkpt lat="49.08984" lon="1.76224">
        <ele>205</ele>
        <time>2020-09-13T14:16:22Z</time>
      </trkpt>
      <trkpt lat="49.08984" lon="1.76208">
        <ele>205</ele>
        <time>2020-09-13T14:16:33Z</time>
      </trkpt>
      <trkpt lat="49.08985" lon="1.76193">
        <ele>205</ele>
        <time>2020-09-13T14:16:45Z</time>
      </trkpt>
      <trkpt lat="49.08985" lon="1.76176">
        <ele>205</ele>
        <time>2020-09-13T14:16:53Z</time>
      </trkpt>
      <trkpt lat="49.08986" lon="1.76159">
        <ele>207</ele>
        <time>2020-09-13T14:17:01Z</time>
      </trkpt>
      <trkpt lat="49.08988" lon="1.76143">
        <ele>208</ele>
        <time>2020-09-13T14:17:09Z</time>
      </trkpt>
      <trkpt lat="49.08987" lon="1.76128">
        <ele>209</ele>
        <time>2020-09-13T14:17:18Z</time>
      </trkpt>
      <trkpt lat="49.08986" lon="1.76113">
        <ele>209</ele>
        <time>2020-09-13T14:17:26Z</time>
      </trkpt>
      <trkpt lat="49.08979" lon="1.76102">
        <ele>210</ele>
        <time>2020-09-13T14:17:37Z</time>
      </trkpt>
      <trkpt lat="49.08971" lon="1.76095">
        <ele>210</ele>
        <time>2020-09-13T14:17:48Z</time>
      </trkpt>
      <trkpt lat="49.08961" lon="1.76093">
        <ele>210</ele>
        <time>2020-09-13T14:17:57Z</time>
      </trkpt>
      <trkpt lat="49.08951" lon="1.76091">
        <ele>210</ele>
        <time>2020-09-13T14:18:06Z</time>
      </trkpt>
      <trkpt lat="49.08941" lon="1.76091">
        <ele>210</ele>
        <time>2020-09-13T14:18:14Z</time>
      </trkpt>
      <trkpt lat="49.0893" lon="1.76091">
        <ele>211</ele>
        <time>2020-09-13T14:18:23Z</time>
      </trkpt>
      <trkpt lat="49.0892" lon="1.76088">
        <ele>211</ele>
        <time>2020-09-13T14:18:31Z</time>
      </trkpt>
      <trkpt lat="49.08909" lon="1.76087">
        <ele>211</ele>
        <time>2020-09-13T14:18:40Z</time>
      </trkpt>
      <trkpt lat="49.08901" lon="1.76093">
        <ele>209</ele>
        <time>2020-09-13T14:18:54Z</time>
      </trkpt>
      <trkpt lat="49.08893" lon="1.76088">
        <ele>209</ele>
        <time>2020-09-13T14:19:03Z</time>
      </trkpt>
      <trkpt lat="49.08882" lon="1.76082">
        <ele>211</ele>
        <time>2020-09-13T14:19:11Z</time>
      </trkpt>
      <trkpt lat="49.08872" lon="1.76081">
        <ele>210</ele>
        <time>2020-09-13T14:19:19Z</time>
      </trkpt>
      <trkpt lat="49.08863" lon="1.76078">
        <ele>210</ele>
        <time>2020-09-13T14:19:41Z</time>
      </trkpt>
      <trkpt lat="49.08853" lon="1.76074">
        <ele>209</ele>
        <time>2020-09-13T14:19:51Z</time>
      </trkpt>
      <trkpt lat="49.08844" lon="1.76069">
        <ele>209</ele>
        <time>2020-09-13T14:19:57Z</time>
      </trkpt>
      <trkpt lat="49.08833" lon="1.76066">
        <ele>208</ele>
        <time>2020-09-13T14:20:03Z</time>
      </trkpt>
      <trkpt lat="49.08823" lon="1.76061">
        <ele>208</ele>
        <time>2020-09-13T14:20:09Z</time>
      </trkpt>
      <trkpt lat="49.08812" lon="1.76057">
        <ele>208</ele>
        <time>2020-09-13T14:20:15Z</time>
      </trkpt>
      <trkpt lat="49.088" lon="1.76054">
        <ele>208</ele>
        <time>2020-09-13T14:20:21Z</time>
      </trkpt>
      <trkpt lat="49.0879" lon="1.76055">
        <ele>208</ele>
        <time>2020-09-13T14:20:27Z</time>
      </trkpt>
      <trkpt lat="49.08781" lon="1.76055">
        <ele>208</ele>
        <time>2020-09-13T14:20:33Z</time>
      </trkpt>
      <trkpt lat="49.0877" lon="1.76056">
        <ele>208</ele>
        <time>2020-09-13T14:20:40Z</time>
      </trkpt>
      <trkpt lat="49.0876" lon="1.76056">
        <ele>208</ele>
        <time>2020-09-13T14:20:48Z</time>
      </trkpt>
      <trkpt lat="49.08751" lon="1.76055">
        <ele>208</ele>
        <time>2020-09-13T14:20:57Z</time>
      </trkpt>
      <trkpt lat="49.08741" lon="1.76062">
        <ele>208</ele>
        <time>2020-09-13T14:21:05Z</time>
      </trkpt>
      <trkpt lat="49.08732" lon="1.76072">
        <ele>208</ele>
        <time>2020-09-13T14:21:11Z</time>
      </trkpt>
      <trkpt lat="49.08724" lon="1.76084">
        <ele>207</ele>
        <time>2020-09-13T14:21:17Z</time>
      </trkpt>
      <trkpt lat="49.08715" lon="1.76095">
        <ele>207</ele>
        <time>2020-09-13T14:21:23Z</time>
      </trkpt>
      <trkpt lat="49.08708" lon="1.76107">
        <ele>207</ele>
        <time>2020-09-13T14:21:29Z</time>
      </trkpt>
      <trkpt lat="49.08701" lon="1.7612">
        <ele>207</ele>
        <time>2020-09-13T14:21:37Z</time>
      </trkpt>
      <trkpt lat="49.08697" lon="1.76136">
        <ele>207</ele>
        <time>2020-09-13T14:21:45Z</time>
      </trkpt>
      <trkpt lat="49.08696" lon="1.76152">
        <ele>207</ele>
        <time>2020-09-13T14:21:53Z</time>
      </trkpt>
      <trkpt lat="49.08696" lon="1.76167">
        <ele>206</ele>
        <time>2020-09-13T14:22:01Z</time>
      </trkpt>
      <trkpt lat="49.08693" lon="1.76184">
        <ele>206</ele>
        <time>2020-09-13T14:22:09Z</time>
      </trkpt>
      <trkpt lat="49.0869" lon="1.76199">
        <ele>205</ele>
        <time>2020-09-13T14:22:17Z</time>
      </trkpt>
      <trkpt lat="49.08688" lon="1.76214">
        <ele>205</ele>
        <time>2020-09-13T14:22:27Z</time>
      </trkpt>
      <trkpt lat="49.08687" lon="1.76229">
        <ele>205</ele>
        <time>2020-09-13T14:22:37Z</time>
      </trkpt>
      <trkpt lat="49.08684" lon="1.76244">
        <ele>206</ele>
        <time>2020-09-13T14:22:49Z</time>
      </trkpt>
      <trkpt lat="49.08682" lon="1.76264">
        <ele>206</ele>
        <time>2020-09-13T14:23:41Z</time>
      </trkpt>
      <trkpt lat="49.08683" lon="1.76278">
        <ele>205</ele>
        <time>2020-09-13T14:24:09Z</time>
      </trkpt>
      <trkpt lat="49.08689" lon="1.76291">
        <ele>205</ele>
        <time>2020-09-13T14:24:22Z</time>
      </trkpt>
      <trkpt lat="49.08691" lon="1.76305">
        <ele>205</ele>
        <time>2020-09-13T14:24:32Z</time>
      </trkpt>
      <trkpt lat="49.08691" lon="1.76321">
        <ele>205</ele>
        <time>2020-09-13T14:24:41Z</time>
      </trkpt>
      <trkpt lat="49.08688" lon="1.76338">
        <ele>205</ele>
        <time>2020-09-13T14:24:50Z</time>
      </trkpt>
      <trkpt lat="49.08684" lon="1.76352">
        <ele>205</ele>
        <time>2020-09-13T14:25:04Z</time>
      </trkpt>
      <trkpt lat="49.08683" lon="1.76366">
        <ele>204</ele>
        <time>2020-09-13T14:25:14Z</time>
      </trkpt>
      <trkpt lat="49.08679" lon="1.7638">
        <ele>204</ele>
        <time>2020-09-13T14:25:25Z</time>
      </trkpt>
      <trkpt lat="49.08677" lon="1.76393">
        <ele>204</ele>
        <time>2020-09-13T14:25:33Z</time>
      </trkpt>
      <trkpt lat="49.08679" lon="1.76408">
        <ele>204</ele>
        <time>2020-09-13T14:25:41Z</time>
      </trkpt>
      <trkpt lat="49.08684" lon="1.76422">
        <ele>204</ele>
        <time>2020-09-13T14:25:48Z</time>
      </trkpt>
      <trkpt lat="49.08688" lon="1.76435">
        <ele>203</ele>
        <time>2020-09-13T14:25:54Z</time>
      </trkpt>
      <trkpt lat="49.08692" lon="1.76449">
        <ele>203</ele>
        <time>2020-09-13T14:26:01Z</time>
      </trkpt>
      <trkpt lat="49.08696" lon="1.76463">
        <ele>204</ele>
        <time>2020-09-13T14:26:09Z</time>
      </trkpt>
      <trkpt lat="49.087" lon="1.76477">
        <ele>204</ele>
        <time>2020-09-13T14:26:17Z</time>
      </trkpt>
      <trkpt lat="49.08704" lon="1.76491">
        <ele>204</ele>
        <time>2020-09-13T14:26:25Z</time>
      </trkpt>
      <trkpt lat="49.08706" lon="1.76508">
        <ele>204</ele>
        <time>2020-09-13T14:26:35Z</time>
      </trkpt>
      <trkpt lat="49.08709" lon="1.76523">
        <ele>204</ele>
        <time>2020-09-13T14:26:43Z</time>
      </trkpt>
      <trkpt lat="49.08709" lon="1.76539">
        <ele>204</ele>
        <time>2020-09-13T14:26:51Z</time>
      </trkpt>
      <trkpt lat="49.08707" lon="1.76553">
        <ele>204</ele>
        <time>2020-09-13T14:26:59Z</time>
      </trkpt>
      <trkpt lat="49.08704" lon="1.76568">
        <ele>205</ele>
        <time>2020-09-13T14:27:07Z</time>
      </trkpt>
      <trkpt lat="49.08698" lon="1.76582">
        <ele>205</ele>
        <time>2020-09-13T14:27:15Z</time>
      </trkpt>
      <trkpt lat="49.08692" lon="1.76596">
        <ele>205</ele>
        <time>2020-09-13T14:27:23Z</time>
      </trkpt>
      <trkpt lat="49.0869" lon="1.76611">
        <ele>205</ele>
        <time>2020-09-13T14:27:31Z</time>
      </trkpt>
      <trkpt lat="49.08693" lon="1.76627">
        <ele>205</ele>
        <time>2020-09-13T14:27:39Z</time>
      </trkpt>
      <trkpt lat="49.08697" lon="1.76641">
        <ele>205</ele>
        <time>2020-09-13T14:27:46Z</time>
      </trkpt>
      <trkpt lat="49.08703" lon="1.76652">
        <ele>204</ele>
        <time>2020-09-13T14:28:01Z</time>
      </trkpt>
      <trkpt lat="49.08702" lon="1.76667">
        <ele>204</ele>
        <time>2020-09-13T14:28:12Z</time>
      </trkpt>
      <trkpt lat="49.087" lon="1.76682">
        <ele>204</ele>
        <time>2020-09-13T14:28:22Z</time>
      </trkpt>
      <trkpt lat="49.08699" lon="1.76698">
        <ele>204</ele>
        <time>2020-09-13T14:28:31Z</time>
      </trkpt>
      <trkpt lat="49.087" lon="1.76716">
        <ele>204</ele>
        <time>2020-09-13T14:28:39Z</time>
      </trkpt>
      <trkpt lat="49.08702" lon="1.76732">
        <ele>204</ele>
        <time>2020-09-13T14:28:47Z</time>
      </trkpt>
      <trkpt lat="49.08699" lon="1.76747">
        <ele>204</ele>
        <time>2020-09-13T14:28:56Z</time>
      </trkpt>
      <trkpt lat="49.08695" lon="1.76761">
        <ele>204</ele>
        <time>2020-09-13T14:29:04Z</time>
      </trkpt>
      <trkpt lat="49.08692" lon="1.76776">
        <ele>204</ele>
        <time>2020-09-13T14:29:12Z</time>
      </trkpt>
      <trkpt lat="49.08692" lon="1.76793">
        <ele>204</ele>
        <time>2020-09-13T14:29:20Z</time>
      </trkpt>
      <trkpt lat="49.08694" lon="1.76808">
        <ele>204</ele>
        <time>2020-09-13T14:29:28Z</time>
      </trkpt>
      <trkpt lat="49.08695" lon="1.76822">
        <ele>204</ele>
        <time>2020-09-13T14:29:36Z</time>
      </trkpt>
      <trkpt lat="49.08697" lon="1.76839">
        <ele>204</ele>
        <time>2020-09-13T14:29:44Z</time>
      </trkpt>
      <trkpt lat="49.08701" lon="1.76855">
        <ele>204</ele>
        <time>2020-09-13T14:29:52Z</time>
      </trkpt>
      <trkpt lat="49.08705" lon="1.76869">
        <ele>204</ele>
        <time>2020-09-13T14:29:59Z</time>
      </trkpt>
      <trkpt lat="49.08711" lon="1.76882">
        <ele>204</ele>
        <time>2020-09-13T14:30:06Z</time>
      </trkpt>
      <trkpt lat="49.08718" lon="1.76893">
        <ele>204</ele>
        <time>2020-09-13T14:30:14Z</time>
      </trkpt>
      <trkpt lat="49.08726" lon="1.76906">
        <ele>203</ele>
        <time>2020-09-13T14:30:22Z</time>
      </trkpt>
      <trkpt lat="49.08734" lon="1.76917">
        <ele>203</ele>
        <time>2020-09-13T14:30:30Z</time>
      </trkpt>
      <trkpt lat="49.08742" lon="1.76929">
        <ele>203</ele>
        <time>2020-09-13T14:30:37Z</time>
      </trkpt>
      <trkpt lat="49.08749" lon="1.76938">
        <ele>203</ele>
        <time>2020-09-13T14:30:43Z</time>
      </trkpt>
      <trkpt lat="49.08756" lon="1.76949">
        <ele>204</ele>
        <time>2020-09-13T14:30:51Z</time>
      </trkpt>
      <trkpt lat="49.0876" lon="1.76965">
        <ele>205</ele>
        <time>2020-09-13T14:30:59Z</time>
      </trkpt>
      <trkpt lat="49.08763" lon="1.76982">
        <ele>205</ele>
        <time>2020-09-13T14:31:07Z</time>
      </trkpt>
      <trkpt lat="49.08765" lon="1.76996">
        <ele>204</ele>
        <time>2020-09-13T14:31:15Z</time>
      </trkpt>
      <trkpt lat="49.08768" lon="1.77011">
        <ele>204</ele>
        <time>2020-09-13T14:31:23Z</time>
      </trkpt>
      <trkpt lat="49.08774" lon="1.77023">
        <ele>204</ele>
        <time>2020-09-13T14:31:32Z</time>
      </trkpt>
      <trkpt lat="49.08782" lon="1.77033">
        <ele>204</ele>
        <time>2020-09-13T14:31:41Z</time>
      </trkpt>
      <trkpt lat="49.0879" lon="1.77043">
        <ele>204</ele>
        <time>2020-09-13T14:31:49Z</time>
      </trkpt>
      <trkpt lat="49.08797" lon="1.77053">
        <ele>204</ele>
        <time>2020-09-13T14:31:57Z</time>
      </trkpt>
      <trkpt lat="49.08804" lon="1.77064">
        <ele>204</ele>
        <time>2020-09-13T14:32:05Z</time>
      </trkpt>
      <trkpt lat="49.08811" lon="1.77077">
        <ele>204</ele>
        <time>2020-09-13T14:32:13Z</time>
      </trkpt>
      <trkpt lat="49.08818" lon="1.77089">
        <ele>203</ele>
        <time>2020-09-13T14:32:20Z</time>
      </trkpt>
      <trkpt lat="49.08824" lon="1.77101">
        <ele>203</ele>
        <time>2020-09-13T14:32:29Z</time>
      </trkpt>
      <trkpt lat="49.08829" lon="1.77114">
        <ele>203</ele>
        <time>2020-09-13T14:32:38Z</time>
      </trkpt>
      <trkpt lat="49.08833" lon="1.77128">
        <ele>203</ele>
        <time>2020-09-13T14:32:46Z</time>
      </trkpt>
      <trkpt lat="49.08837" lon="1.77143">
        <ele>203</ele>
        <time>2020-09-13T14:32:55Z</time>
      </trkpt>
      <trkpt lat="49.08838" lon="1.77158">
        <ele>202</ele>
        <time>2020-09-13T14:33:03Z</time>
      </trkpt>
      <trkpt lat="49.08842" lon="1.77173">
        <ele>202</ele>
        <time>2020-09-13T14:33:13Z</time>
      </trkpt>
      <trkpt lat="49.08849" lon="1.77186">
        <ele>202</ele>
        <time>2020-09-13T14:33:21Z</time>
      </trkpt>
      <trkpt lat="49.08858" lon="1.77197">
        <ele>202</ele>
        <time>2020-09-13T14:33:29Z</time>
      </trkpt>
      <trkpt lat="49.08867" lon="1.77206">
        <ele>202</ele>
        <time>2020-09-13T14:33:37Z</time>
      </trkpt>
      <trkpt lat="49.08876" lon="1.77217">
        <ele>202</ele>
        <time>2020-09-13T14:33:45Z</time>
      </trkpt>
      <trkpt lat="49.08882" lon="1.7723">
        <ele>202</ele>
        <time>2020-09-13T14:33:54Z</time>
      </trkpt>
      <trkpt lat="49.08887" lon="1.77244">
        <ele>202</ele>
        <time>2020-09-13T14:34:04Z</time>
      </trkpt>
      <trkpt lat="49.08893" lon="1.77256">
        <ele>203</ele>
        <time>2020-09-13T14:34:12Z</time>
      </trkpt>
      <trkpt lat="49.08901" lon="1.77266">
        <ele>203</ele>
        <time>2020-09-13T14:34:20Z</time>
      </trkpt>
      <trkpt lat="49.0891" lon="1.7727">
        <ele>203</ele>
        <time>2020-09-13T14:34:30Z</time>
      </trkpt>
      <trkpt lat="49.0892" lon="1.77271">
        <ele>204</ele>
        <time>2020-09-13T14:34:39Z</time>
      </trkpt>
      <trkpt lat="49.08929" lon="1.7727">
        <ele>204</ele>
        <time>2020-09-13T14:34:45Z</time>
      </trkpt>
      <trkpt lat="49.08939" lon="1.77269">
        <ele>204</ele>
        <time>2020-09-13T14:34:52Z</time>
      </trkpt>
      <trkpt lat="49.08949" lon="1.77266">
        <ele>204</ele>
        <time>2020-09-13T14:35:00Z</time>
      </trkpt>
      <trkpt lat="49.0896" lon="1.77264">
        <ele>203</ele>
        <time>2020-09-13T14:35:07Z</time>
      </trkpt>
      <trkpt lat="49.08969" lon="1.7726">
        <ele>203</ele>
        <time>2020-09-13T14:35:15Z</time>
      </trkpt>
      <trkpt lat="49.08973" lon="1.77279">
        <ele>203</ele>
        <time>2020-09-13T14:35:31Z</time>
      </trkpt>
      <trkpt lat="49.08972" lon="1.77295">
        <ele>204</ele>
        <time>2020-09-13T14:35:39Z</time>
      </trkpt>
      <trkpt lat="49.08973" lon="1.77311">
        <ele>204</ele>
        <time>2020-09-13T14:35:47Z</time>
      </trkpt>
      <trkpt lat="49.08973" lon="1.77327">
        <ele>204</ele>
        <time>2020-09-13T14:35:56Z</time>
      </trkpt>
      <trkpt lat="49.08972" lon="1.77344">
        <ele>205</ele>
        <time>2020-09-13T14:36:04Z</time>
      </trkpt>
      <trkpt lat="49.08973" lon="1.77359">
        <ele>205</ele>
        <time>2020-09-13T14:36:12Z</time>
      </trkpt>
      <trkpt lat="49.08976" lon="1.77374">
        <ele>205</ele>
        <time>2020-09-13T14:36:20Z</time>
      </trkpt>
      <trkpt lat="49.0898" lon="1.77388">
        <ele>204</ele>
        <time>2020-09-13T14:36:28Z</time>
      </trkpt>
      <trkpt lat="49.08986" lon="1.77401">
        <ele>204</ele>
        <time>2020-09-13T14:36:36Z</time>
      </trkpt>
      <trkpt lat="49.08986" lon="1.77417">
        <ele>203</ele>
        <time>2020-09-13T14:36:45Z</time>
      </trkpt>
      <trkpt lat="49.08981" lon="1.77431">
        <ele>203</ele>
        <time>2020-09-13T14:36:55Z</time>
      </trkpt>
      <trkpt lat="49.08978" lon="1.77445">
        <ele>203</ele>
        <time>2020-09-13T14:37:06Z</time>
      </trkpt>
      <trkpt lat="49.08978" lon="1.7746">
        <ele>202</ele>
        <time>2020-09-13T14:37:14Z</time>
      </trkpt>
      <trkpt lat="49.08978" lon="1.77476">
        <ele>202</ele>
        <time>2020-09-13T14:37:21Z</time>
      </trkpt>
      <trkpt lat="49.08977" lon="1.77493">
        <ele>202</ele>
        <time>2020-09-13T14:37:29Z</time>
      </trkpt>
      <trkpt lat="49.08977" lon="1.77509">
        <ele>200</ele>
        <time>2020-09-13T14:37:37Z</time>
      </trkpt>
      <trkpt lat="49.08978" lon="1.77525">
        <ele>200</ele>
        <time>2020-09-13T14:37:46Z</time>
      </trkpt>
      <trkpt lat="49.08977" lon="1.7754">
        <ele>200</ele>
        <time>2020-09-13T14:37:55Z</time>
      </trkpt>
      <trkpt lat="49.08978" lon="1.77555">
        <ele>201</ele>
        <time>2020-09-13T14:38:02Z</time>
      </trkpt>
      <trkpt lat="49.08978" lon="1.77573">
        <ele>201</ele>
        <time>2020-09-13T14:38:10Z</time>
      </trkpt>
      <trkpt lat="49.08978" lon="1.77589">
        <ele>201</ele>
        <time>2020-09-13T14:38:17Z</time>
      </trkpt>
      <trkpt lat="49.08979" lon="1.77604">
        <ele>201</ele>
        <time>2020-09-13T14:38:23Z</time>
      </trkpt>
      <trkpt lat="49.0898" lon="1.77619">
        <ele>202</ele>
        <time>2020-09-13T14:38:29Z</time>
      </trkpt>
      <trkpt lat="49.0898" lon="1.77634">
        <ele>202</ele>
        <time>2020-09-13T14:38:36Z</time>
      </trkpt>
      <trkpt lat="49.08978" lon="1.77651">
        <ele>202</ele>
        <time>2020-09-13T14:38:44Z</time>
      </trkpt>
      <trkpt lat="49.08976" lon="1.77668">
        <ele>204</ele>
        <time>2020-09-13T14:38:52Z</time>
      </trkpt>
      <trkpt lat="49.08975" lon="1.77684">
        <ele>204</ele>
        <time>2020-09-13T14:39:01Z</time>
      </trkpt>
      <trkpt lat="49.08976" lon="1.77698">
        <ele>204</ele>
        <time>2020-09-13T14:39:09Z</time>
      </trkpt>
      <trkpt lat="49.08975" lon="1.77714">
        <ele>204</ele>
        <time>2020-09-13T14:39:20Z</time>
      </trkpt>
      <trkpt lat="49.08975" lon="1.77728">
        <ele>204</ele>
        <time>2020-09-13T14:39:29Z</time>
      </trkpt>
      <trkpt lat="49.08976" lon="1.77743">
        <ele>205</ele>
        <time>2020-09-13T14:39:40Z</time>
      </trkpt>
      <trkpt lat="49.08976" lon="1.77757">
        <ele>205</ele>
        <time>2020-09-13T14:39:48Z</time>
      </trkpt>
      <trkpt lat="49.08977" lon="1.77772">
        <ele>205</ele>
        <time>2020-09-13T14:39:56Z</time>
      </trkpt>
      <trkpt lat="49.0898" lon="1.77786">
        <ele>205</ele>
        <time>2020-09-13T14:40:04Z</time>
      </trkpt>
      <trkpt lat="49.08984" lon="1.778">
        <ele>205</ele>
        <time>2020-09-13T14:40:12Z</time>
      </trkpt>
      <trkpt lat="49.08989" lon="1.77814">
        <ele>205</ele>
        <time>2020-09-13T14:40:19Z</time>
      </trkpt>
      <trkpt lat="49.08993" lon="1.7783">
        <ele>205</ele>
        <time>2020-09-13T14:40:27Z</time>
      </trkpt>
      <trkpt lat="49.08993" lon="1.77845">
        <ele>205</ele>
        <time>2020-09-13T14:40:36Z</time>
      </trkpt>
      <trkpt lat="49.08993" lon="1.7786">
        <ele>205</ele>
        <time>2020-09-13T14:40:45Z</time>
      </trkpt>
      <trkpt lat="49.08992" lon="1.77874">
        <ele>205</ele>
        <time>2020-09-13T14:40:55Z</time>
      </trkpt>
      <trkpt lat="49.08994" lon="1.77889">
        <ele>206</ele>
        <time>2020-09-13T14:41:11Z</time>
      </trkpt>
      <trkpt lat="49.09002" lon="1.77895">
        <ele>205</ele>
        <time>2020-09-13T14:41:44Z</time>
      </trkpt>
      <trkpt lat="49.08999" lon="1.77909">
        <ele>206</ele>
        <time>2020-09-13T14:46:03Z</time>
      </trkpt>
      <trkpt lat="49.08993" lon="1.7792">
        <ele>206</ele>
        <time>2020-09-13T14:46:10Z</time>
      </trkpt>
      <trkpt lat="49.08989" lon="1.77934">
        <ele>207</ele>
        <time>2020-09-13T14:46:19Z</time>
      </trkpt>
      <trkpt lat="49.08991" lon="1.77949">
        <ele>207</ele>
        <time>2020-09-13T14:46:34Z</time>
      </trkpt>
      <trkpt lat="49.08993" lon="1.77962">
        <ele>207</ele>
        <time>2020-09-13T14:46:43Z</time>
      </trkpt>
      <trkpt lat="49.08998" lon="1.77977">
        <ele>208</ele>
        <time>2020-09-13T14:46:50Z</time>
      </trkpt>
      <trkpt lat="49.08998" lon="1.77992">
        <ele>208</ele>
        <time>2020-09-13T14:46:58Z</time>
      </trkpt>
      <trkpt lat="49.09001" lon="1.78007">
        <ele>208</ele>
        <time>2020-09-13T14:47:06Z</time>
      </trkpt>
      <trkpt lat="49.09004" lon="1.78021">
        <ele>207</ele>
        <time>2020-09-13T14:47:16Z</time>
      </trkpt>
      <trkpt lat="49.09001" lon="1.78034">
        <ele>207</ele>
        <time>2020-09-13T14:47:25Z</time>
      </trkpt>
      <trkpt lat="49.08995" lon="1.78047">
        <ele>208</ele>
        <time>2020-09-13T14:47:36Z</time>
      </trkpt>
      <trkpt lat="49.08992" lon="1.78061">
        <ele>208</ele>
        <time>2020-09-13T14:47:49Z</time>
      </trkpt>
      <trkpt lat="49.08988" lon="1.78075">
        <ele>208</ele>
        <time>2020-09-13T14:47:56Z</time>
      </trkpt>
      <trkpt lat="49.08985" lon="1.78089">
        <ele>208</ele>
        <time>2020-09-13T14:48:03Z</time>
      </trkpt>
      <trkpt lat="49.08979" lon="1.78102">
        <ele>208</ele>
        <time>2020-09-13T14:48:13Z</time>
      </trkpt>
      <trkpt lat="49.08973" lon="1.78115">
        <ele>208</ele>
        <time>2020-09-13T14:48:23Z</time>
      </trkpt>
      <trkpt lat="49.08969" lon="1.78128">
        <ele>208</ele>
        <time>2020-09-13T14:48:33Z</time>
      </trkpt>
      <trkpt lat="49.08963" lon="1.78142">
        <ele>207</ele>
        <time>2020-09-13T14:48:44Z</time>
      </trkpt>
      <trkpt lat="49.08957" lon="1.78154">
        <ele>207</ele>
        <time>2020-09-13T14:48:50Z</time>
      </trkpt>
      <trkpt lat="49.08956" lon="1.78171">
        <ele>207</ele>
        <time>2020-09-13T14:48:58Z</time>
      </trkpt>
      <trkpt lat="49.08956" lon="1.78188">
        <ele>207</ele>
        <time>2020-09-13T14:49:06Z</time>
      </trkpt>
      <trkpt lat="49.08955" lon="1.78204">
        <ele>207</ele>
        <time>2020-09-13T14:49:14Z</time>
      </trkpt>
      <trkpt lat="49.08952" lon="1.78218">
        <ele>207</ele>
        <time>2020-09-13T14:49:23Z</time>
      </trkpt>
      <trkpt lat="49.08947" lon="1.7823">
        <ele>207</ele>
        <time>2020-09-13T14:49:36Z</time>
      </trkpt>
      <trkpt lat="49.08941" lon="1.78245">
        <ele>207</ele>
        <time>2020-09-13T14:49:46Z</time>
      </trkpt>
      <trkpt lat="49.08936" lon="1.78258">
        <ele>207</ele>
        <time>2020-09-13T14:49:53Z</time>
      </trkpt>
      <trkpt lat="49.08931" lon="1.78272">
        <ele>207</ele>
        <time>2020-09-13T14:50:00Z</time>
      </trkpt>
      <trkpt lat="49.08925" lon="1.78287">
        <ele>207</ele>
        <time>2020-09-13T14:50:09Z</time>
      </trkpt>
      <trkpt lat="49.0892" lon="1.78301">
        <ele>207</ele>
        <time>2020-09-13T14:50:17Z</time>
      </trkpt>
      <trkpt lat="49.08914" lon="1.78313">
        <ele>207</ele>
        <time>2020-09-13T14:50:23Z</time>
      </trkpt>
      <trkpt lat="49.08911" lon="1.78327">
        <ele>207</ele>
        <time>2020-09-13T14:50:30Z</time>
      </trkpt>
      <trkpt lat="49.08909" lon="1.78341">
        <ele>206</ele>
        <time>2020-09-13T14:50:36Z</time>
      </trkpt>
      <trkpt lat="49.08908" lon="1.78356">
        <ele>205</ele>
        <time>2020-09-13T14:50:44Z</time>
      </trkpt>
      <trkpt lat="49.08908" lon="1.78372">
        <ele>204</ele>
        <time>2020-09-13T14:50:53Z</time>
      </trkpt>
      <trkpt lat="49.08909" lon="1.78387">
        <ele>204</ele>
        <time>2020-09-13T14:51:08Z</time>
      </trkpt>
      <trkpt lat="49.08919" lon="1.78384">
        <ele>205</ele>
        <time>2020-09-13T14:51:24Z</time>
      </trkpt>
      <trkpt lat="49.08928" lon="1.78383">
        <ele>205</ele>
        <time>2020-09-13T14:51:32Z</time>
      </trkpt>
      <trkpt lat="49.08939" lon="1.78382">
        <ele>205</ele>
        <time>2020-09-13T14:51:40Z</time>
      </trkpt>
      <trkpt lat="49.08949" lon="1.78382">
        <ele>205</ele>
        <time>2020-09-13T14:51:47Z</time>
      </trkpt>
      <trkpt lat="49.08959" lon="1.78382">
        <ele>205</ele>
        <time>2020-09-13T14:51:54Z</time>
      </trkpt>
      <trkpt lat="49.08969" lon="1.78382">
        <ele>206</ele>
        <time>2020-09-13T14:52:02Z</time>
      </trkpt>
      <trkpt lat="49.08979" lon="1.78384">
        <ele>206</ele>
        <time>2020-09-13T14:52:14Z</time>
      </trkpt>
      <trkpt lat="49.08988" lon="1.78383">
        <ele>206</ele>
        <time>2020-09-13T14:52:21Z</time>
      </trkpt>
      <trkpt lat="49.08999" lon="1.7838">
        <ele>206</ele>
        <time>2020-09-13T14:52:28Z</time>
      </trkpt>
      <trkpt lat="49.0901" lon="1.7838">
        <ele>205</ele>
        <time>2020-09-13T14:52:36Z</time>
      </trkpt>
      <trkpt lat="49.09019" lon="1.78386">
        <ele>205</ele>
        <time>2020-09-13T14:52:45Z</time>
      </trkpt>
      <trkpt lat="49.09024" lon="1.784">
        <ele>205</ele>
        <time>2020-09-13T14:52:55Z</time>
      </trkpt>
      <trkpt lat="49.09025" lon="1.78414">
        <ele>205</ele>
        <time>2020-09-13T14:53:03Z</time>
      </trkpt>
      <trkpt lat="49.09024" lon="1.78429">
        <ele>206</ele>
        <time>2020-09-13T14:53:11Z</time>
      </trkpt>
      <trkpt lat="49.09022" lon="1.78445">
        <ele>206</ele>
        <time>2020-09-13T14:53:19Z</time>
      </trkpt>
      <trkpt lat="49.09021" lon="1.78462">
        <ele>206</ele>
        <time>2020-09-13T14:53:27Z</time>
      </trkpt>
      <trkpt lat="49.0902" lon="1.78478">
        <ele>207</ele>
        <time>2020-09-13T14:53:35Z</time>
      </trkpt>
      <trkpt lat="49.09016" lon="1.78493">
        <ele>207</ele>
        <time>2020-09-13T14:53:43Z</time>
      </trkpt>
      <trkpt lat="49.09016" lon="1.78509">
        <ele>207</ele>
        <time>2020-09-13T14:53:51Z</time>
      </trkpt>
      <trkpt lat="49.09021" lon="1.78523">
        <ele>207</ele>
        <time>2020-09-13T14:53:59Z</time>
      </trkpt>
      <trkpt lat="49.09024" lon="1.7854">
        <ele>207</ele>
        <time>2020-09-13T14:54:07Z</time>
      </trkpt>
      <trkpt lat="49.09025" lon="1.78555">
        <ele>207</ele>
        <time>2020-09-13T14:54:13Z</time>
      </trkpt>
      <trkpt lat="49.09026" lon="1.78569">
        <ele>207</ele>
        <time>2020-09-13T14:54:19Z</time>
      </trkpt>
      <trkpt lat="49.09027" lon="1.78583">
        <ele>206</ele>
        <time>2020-09-13T14:54:25Z</time>
      </trkpt>
      <trkpt lat="49.09029" lon="1.786">
        <ele>206</ele>
        <time>2020-09-13T14:54:33Z</time>
      </trkpt>
      <trkpt lat="49.0903" lon="1.78616">
        <ele>206</ele>
        <time>2020-09-13T14:54:41Z</time>
      </trkpt>
      <trkpt lat="49.0903" lon="1.78631">
        <ele>206</ele>
        <time>2020-09-13T14:54:49Z</time>
      </trkpt>
      <trkpt lat="49.0903" lon="1.78648">
        <ele>206</ele>
        <time>2020-09-13T14:54:56Z</time>
      </trkpt>
      <trkpt lat="49.0903" lon="1.78663">
        <ele>206</ele>
        <time>2020-09-13T14:55:02Z</time>
      </trkpt>
      <trkpt lat="49.0903" lon="1.78678">
        <ele>206</ele>
        <time>2020-09-13T14:55:10Z</time>
      </trkpt>
      <trkpt lat="49.09031" lon="1.78693">
        <ele>205</ele>
        <time>2020-09-13T14:55:18Z</time>
      </trkpt>
      <trkpt lat="49.09031" lon="1.78708">
        <ele>205</ele>
        <time>2020-09-13T14:55:27Z</time>
      </trkpt>
      <trkpt lat="49.09031" lon="1.78724">
        <ele>205</ele>
        <time>2020-09-13T14:55:36Z</time>
      </trkpt>
      <trkpt lat="49.09031" lon="1.7874">
        <ele>205</ele>
        <time>2020-09-13T14:55:44Z</time>
      </trkpt>
      <trkpt lat="49.09029" lon="1.78756">
        <ele>202</ele>
        <time>2020-09-13T14:55:52Z</time>
      </trkpt>
      <trkpt lat="49.0903" lon="1.78773">
        <ele>202</ele>
        <time>2020-09-13T14:56:00Z</time>
      </trkpt>
      <trkpt lat="49.09033" lon="1.7879">
        <ele>201</ele>
        <time>2020-09-13T14:56:08Z</time>
      </trkpt>
      <trkpt lat="49.09036" lon="1.78805">
        <ele>201</ele>
        <time>2020-09-13T14:56:15Z</time>
      </trkpt>
      <trkpt lat="49.09038" lon="1.78821">
        <ele>200</ele>
        <time>2020-09-13T14:56:22Z</time>
      </trkpt>
      <trkpt lat="49.0904" lon="1.78838">
        <ele>197</ele>
        <time>2020-09-13T14:56:30Z</time>
      </trkpt>
      <trkpt lat="49.09045" lon="1.7885">
        <ele>197</ele>
        <time>2020-09-13T14:56:40Z</time>
      </trkpt>
      <trkpt lat="49.09051" lon="1.78862">
        <ele>198</ele>
        <time>2020-09-13T14:57:23Z</time>
      </trkpt>
      <trkpt lat="49.0905" lon="1.78877">
        <ele>197</ele>
        <time>2020-09-13T14:57:35Z</time>
      </trkpt>
      <trkpt lat="49.0905" lon="1.78892">
        <ele>197</ele>
        <time>2020-09-13T14:57:45Z</time>
      </trkpt>
      <trkpt lat="49.09051" lon="1.78906">
        <ele>197</ele>
        <time>2020-09-13T14:57:54Z</time>
      </trkpt>
      <trkpt lat="49.09052" lon="1.78922">
        <ele>196</ele>
        <time>2020-09-13T14:58:02Z</time>
      </trkpt>
      <trkpt lat="49.09054" lon="1.78938">
        <ele>196</ele>
        <time>2020-09-13T14:58:10Z</time>
      </trkpt>
      <trkpt lat="49.09056" lon="1.78954">
        <ele>195</ele>
        <time>2020-09-13T14:58:18Z</time>
      </trkpt>
      <trkpt lat="49.09056" lon="1.78969">
        <ele>195</ele>
        <time>2020-09-13T14:58:24Z</time>
      </trkpt>
      <trkpt lat="49.09056" lon="1.78986">
        <ele>196</ele>
        <time>2020-09-13T14:58:32Z</time>
      </trkpt>
      <trkpt lat="49.09059" lon="1.79003">
        <ele>195</ele>
        <time>2020-09-13T14:58:40Z</time>
      </trkpt>
      <trkpt lat="49.09061" lon="1.79018">
        <ele>195</ele>
        <time>2020-09-13T14:58:48Z</time>
      </trkpt>
      <trkpt lat="49.09063" lon="1.79033">
        <ele>194</ele>
        <time>2020-09-13T14:58:56Z</time>
      </trkpt>
      <trkpt lat="49.09064" lon="1.79049">
        <ele>194</ele>
        <time>2020-09-13T14:59:04Z</time>
      </trkpt>
      <trkpt lat="49.09066" lon="1.79063">
        <ele>194</ele>
        <time>2020-09-13T14:59:12Z</time>
      </trkpt>
      <trkpt lat="49.09069" lon="1.79078">
        <ele>195</ele>
        <time>2020-09-13T14:59:21Z</time>
      </trkpt>
      <trkpt lat="49.09071" lon="1.79093">
        <ele>194</ele>
        <time>2020-09-13T14:59:29Z</time>
      </trkpt>
      <trkpt lat="49.09074" lon="1.79109">
        <ele>193</ele>
        <time>2020-09-13T14:59:39Z</time>
      </trkpt>
      <trkpt lat="49.09074" lon="1.79124">
        <ele>192</ele>
        <time>2020-09-13T14:59:47Z</time>
      </trkpt>
      <trkpt lat="49.09076" lon="1.79142">
        <ele>192</ele>
        <time>2020-09-13T14:59:55Z</time>
      </trkpt>
      <trkpt lat="49.0908" lon="1.79155">
        <ele>193</ele>
        <time>2020-09-13T15:00:01Z</time>
      </trkpt>
      <trkpt lat="49.09086" lon="1.79169">
        <ele>195</ele>
        <time>2020-09-13T15:00:07Z</time>
      </trkpt>
      <trkpt lat="49.09091" lon="1.7918">
        <ele>195</ele>
        <time>2020-09-13T15:00:13Z</time>
      </trkpt>
      <trkpt lat="49.09098" lon="1.79195">
        <ele>195</ele>
        <time>2020-09-13T15:00:21Z</time>
      </trkpt>
      <trkpt lat="49.09104" lon="1.79208">
        <ele>195</ele>
        <time>2020-09-13T15:00:30Z</time>
      </trkpt>
      <trkpt lat="49.09112" lon="1.79217">
        <ele>195</ele>
        <time>2020-09-13T15:00:38Z</time>
      </trkpt>
      <trkpt lat="49.09122" lon="1.79228">
        <ele>195</ele>
        <time>2020-09-13T15:00:46Z</time>
      </trkpt>
      <trkpt lat="49.09129" lon="1.79237">
        <ele>195</ele>
        <time>2020-09-13T15:00:53Z</time>
      </trkpt>
      <trkpt lat="49.09136" lon="1.79247">
        <ele>196</ele>
        <time>2020-09-13T15:01:04Z</time>
      </trkpt>
      <trkpt lat="49.09144" lon="1.79255">
        <ele>192</ele>
        <time>2020-09-13T15:01:12Z</time>
      </trkpt>
      <trkpt lat="49.09154" lon="1.79263">
        <ele>193</ele>
        <time>2020-09-13T15:01:19Z</time>
      </trkpt>
      <trkpt lat="49.09164" lon="1.79268">
        <ele>193</ele>
        <time>2020-09-13T15:01:25Z</time>
      </trkpt>
      <trkpt lat="49.09174" lon="1.79273">
        <ele>192</ele>
        <time>2020-09-13T15:01:32Z</time>
      </trkpt>
      <trkpt lat="49.09183" lon="1.7928">
        <ele>191</ele>
        <time>2020-09-13T15:01:38Z</time>
      </trkpt>
      <trkpt lat="49.09194" lon="1.79286">
        <ele>191</ele>
        <time>2020-09-13T15:01:44Z</time>
      </trkpt>
      <trkpt lat="49.09204" lon="1.79288">
        <ele>190</ele>
        <time>2020-09-13T15:01:53Z</time>
      </trkpt>
      <trkpt lat="49.09214" lon="1.79286">
        <ele>190</ele>
        <time>2020-09-13T15:02:02Z</time>
      </trkpt>
      <trkpt lat="49.09223" lon="1.7928">
        <ele>190</ele>
        <time>2020-09-13T15:02:14Z</time>
      </trkpt>
      <trkpt lat="49.0923" lon="1.7927">
        <ele>190</ele>
        <time>2020-09-13T15:02:29Z</time>
      </trkpt>
      <trkpt lat="49.09237" lon="1.7926">
        <ele>191</ele>
        <time>2020-09-13T15:02:48Z</time>
      </trkpt>
      <trkpt lat="49.09246" lon="1.79264">
        <ele>191</ele>
        <time>2020-09-13T15:05:16Z</time>
      </trkpt>
      <trkpt lat="49.09251" lon="1.79251">
        <ele>190</ele>
        <time>2020-09-13T15:05:58Z</time>
      </trkpt>
      <trkpt lat="49.09258" lon="1.79242">
        <ele>189</ele>
        <time>2020-09-13T15:06:06Z</time>
      </trkpt>
      <trkpt lat="49.09266" lon="1.79232">
        <ele>188</ele>
        <time>2020-09-13T15:06:16Z</time>
      </trkpt>
      <trkpt lat="49.09273" lon="1.79221">
        <ele>187</ele>
        <time>2020-09-13T15:06:28Z</time>
      </trkpt>
      <trkpt lat="49.09278" lon="1.79206">
        <ele>187</ele>
        <time>2020-09-13T15:06:39Z</time>
      </trkpt>
      <trkpt lat="49.09281" lon="1.79193">
        <ele>187</ele>
        <time>2020-09-13T15:06:49Z</time>
      </trkpt>
      <trkpt lat="49.09284" lon="1.79177">
        <ele>187</ele>
        <time>2020-09-13T15:06:58Z</time>
      </trkpt>
      <trkpt lat="49.09286" lon="1.79161">
        <ele>189</ele>
        <time>2020-09-13T15:07:07Z</time>
      </trkpt>
      <trkpt lat="49.09288" lon="1.79145">
        <ele>189</ele>
        <time>2020-09-13T15:07:19Z</time>
      </trkpt>
      <trkpt lat="49.09291" lon="1.79131">
        <ele>188</ele>
        <time>2020-09-13T15:07:31Z</time>
      </trkpt>
      <trkpt lat="49.09295" lon="1.79118">
        <ele>188</ele>
        <time>2020-09-13T15:07:41Z</time>
      </trkpt>
      <trkpt lat="49.09299" lon="1.79105">
        <ele>188</ele>
        <time>2020-09-13T15:07:52Z</time>
      </trkpt>
      <trkpt lat="49.09301" lon="1.79091">
        <ele>187</ele>
        <time>2020-09-13T15:08:04Z</time>
      </trkpt>
      <trkpt lat="49.09301" lon="1.79077">
        <ele>188</ele>
        <time>2020-09-13T15:08:15Z</time>
      </trkpt>
      <trkpt lat="49.09302" lon="1.79061">
        <ele>189</ele>
        <time>2020-09-13T15:08:23Z</time>
      </trkpt>
      <trkpt lat="49.09304" lon="1.79045">
        <ele>189</ele>
        <time>2020-09-13T15:08:33Z</time>
      </trkpt>
      <trkpt lat="49.09307" lon="1.79031">
        <ele>189</ele>
        <time>2020-09-13T15:08:45Z</time>
      </trkpt>
      <trkpt lat="49.09313" lon="1.79019">
        <ele>188</ele>
        <time>2020-09-13T15:08:56Z</time>
      </trkpt>
      <trkpt lat="49.09317" lon="1.79006">
        <ele>187</ele>
        <time>2020-09-13T15:09:07Z</time>
      </trkpt>
      <trkpt lat="49.09322" lon="1.78991">
        <ele>187</ele>
        <time>2020-09-13T15:09:16Z</time>
      </trkpt>
      <trkpt lat="49.09328" lon="1.78978">
        <ele>187</ele>
        <time>2020-09-13T15:09:24Z</time>
      </trkpt>
      <trkpt lat="49.09337" lon="1.78969">
        <ele>180</ele>
        <time>2020-09-13T15:09:32Z</time>
      </trkpt>
      <trkpt lat="49.09348" lon="1.78967">
        <ele>179</ele>
        <time>2020-09-13T15:09:40Z</time>
      </trkpt>
      <trkpt lat="49.09358" lon="1.78967">
        <ele>179</ele>
        <time>2020-09-13T15:09:52Z</time>
      </trkpt>
      <trkpt lat="49.09367" lon="1.78969">
        <ele>178</ele>
        <time>2020-09-13T15:10:08Z</time>
      </trkpt>
      <trkpt lat="49.09377" lon="1.78973">
        <ele>177</ele>
        <time>2020-09-13T15:10:25Z</time>
      </trkpt>
    </trkseg>
  </trk>
</gpx>